<?xml version="1.0" encoding="UTF-8" standalone="no" ?>
<gpx xmlns="http://www.topografix.com/GPX/1/1" xmlns:xsi="http://www.w3.org/2001/XMLSchema-instance" xsi:schemaLocation="http://www.topografix.com/GPX/1/1 http://www.topografix.com/GPX/1/1/gpx.xsd" version="1.1" creator="VisuGPX - https://www.visugpx.com">
  <metadata>
    <name>Wellin MARCHE ADEPS 2015 (Mars)</name>
    <desc><![CDATA[Marche sympa pour se ressourcé ]]></desc>
  </metadata>
  <trk>
    <name><![CDATA[solo scooby]]></name>
    <cmt><![CDATA[AVG 06° MAX 11° MIN 04°
]]></cmt>
    <trkseg>
      <trkpt lat="50.08033" lon="5.10949">
        <ele>146</ele>
        <time>2015-03-15T09:55:14Z</time>
      </trkpt>
      <trkpt lat="50.08029" lon="5.10954">
        <ele>146</ele>
        <time>2015-03-15T09:55:19Z</time>
      </trkpt>
      <trkpt lat="50.08028" lon="5.1096">
        <ele>146</ele>
        <time>2015-03-15T09:55:24Z</time>
      </trkpt>
      <trkpt lat="50.08028" lon="5.10968">
        <ele>147</ele>
        <time>2015-03-15T09:55:30Z</time>
      </trkpt>
      <trkpt lat="50.0803" lon="5.10975">
        <ele>147</ele>
        <time>2015-03-15T09:55:35Z</time>
      </trkpt>
      <trkpt lat="50.08033" lon="5.10984">
        <ele>147</ele>
        <time>2015-03-15T09:55:40Z</time>
      </trkpt>
      <trkpt lat="50.08036" lon="5.10994">
        <ele>147</ele>
        <time>2015-03-15T09:55:45Z</time>
      </trkpt>
      <trkpt lat="50.0804" lon="5.11006">
        <ele>147</ele>
        <time>2015-03-15T09:55:51Z</time>
      </trkpt>
      <trkpt lat="50.08044" lon="5.11015">
        <ele>146</ele>
        <time>2015-03-15T09:55:56Z</time>
      </trkpt>
      <trkpt lat="50.08049" lon="5.11025">
        <ele>146</ele>
        <time>2015-03-15T09:56:02Z</time>
      </trkpt>
      <trkpt lat="50.08052" lon="5.11033">
        <ele>146</ele>
        <time>2015-03-15T09:56:07Z</time>
      </trkpt>
      <trkpt lat="50.08055" lon="5.11042">
        <ele>146</ele>
        <time>2015-03-15T09:56:12Z</time>
      </trkpt>
      <trkpt lat="50.08057" lon="5.11053">
        <ele>146</ele>
        <time>2015-03-15T09:56:18Z</time>
      </trkpt>
      <trkpt lat="50.08059" lon="5.11062">
        <ele>146</ele>
        <time>2015-03-15T09:56:23Z</time>
      </trkpt>
      <trkpt lat="50.0806" lon="5.11064">
        <ele>146</ele>
        <time>2015-03-15T09:56:28Z</time>
      </trkpt>
      <trkpt lat="50.08061" lon="5.11063">
        <ele>145</ele>
        <time>2015-03-15T09:56:34Z</time>
      </trkpt>
      <trkpt lat="50.08062" lon="5.11067">
        <ele>146</ele>
        <time>2015-03-15T09:56:39Z</time>
      </trkpt>
      <trkpt lat="50.0806" lon="5.11077">
        <ele>146</ele>
        <time>2015-03-15T09:56:45Z</time>
      </trkpt>
      <trkpt lat="50.08054" lon="5.11079">
        <ele>147</ele>
        <time>2015-03-15T09:56:50Z</time>
      </trkpt>
      <trkpt lat="50.08047" lon="5.11078">
        <ele>147</ele>
        <time>2015-03-15T09:56:55Z</time>
      </trkpt>
      <trkpt lat="50.08041" lon="5.11079">
        <ele>148</ele>
        <time>2015-03-15T09:57:00Z</time>
      </trkpt>
      <trkpt lat="50.08033" lon="5.1108">
        <ele>148</ele>
        <time>2015-03-15T09:57:06Z</time>
      </trkpt>
      <trkpt lat="50.08027" lon="5.1108">
        <ele>149</ele>
        <time>2015-03-15T09:57:11Z</time>
      </trkpt>
      <trkpt lat="50.08018" lon="5.11079">
        <ele>149</ele>
        <time>2015-03-15T09:57:17Z</time>
      </trkpt>
      <trkpt lat="50.08012" lon="5.11078">
        <ele>150</ele>
        <time>2015-03-15T09:57:22Z</time>
      </trkpt>
      <trkpt lat="50.08005" lon="5.11075">
        <ele>150</ele>
        <time>2015-03-15T09:57:27Z</time>
      </trkpt>
      <trkpt lat="50.07999" lon="5.11072">
        <ele>150</ele>
        <time>2015-03-15T09:57:32Z</time>
      </trkpt>
      <trkpt lat="50.07992" lon="5.11069">
        <ele>151</ele>
        <time>2015-03-15T09:57:37Z</time>
      </trkpt>
      <trkpt lat="50.07986" lon="5.11066">
        <ele>151</ele>
        <time>2015-03-15T09:57:42Z</time>
      </trkpt>
      <trkpt lat="50.07979" lon="5.11063">
        <ele>152</ele>
        <time>2015-03-15T09:57:47Z</time>
      </trkpt>
      <trkpt lat="50.07972" lon="5.11061">
        <ele>153</ele>
        <time>2015-03-15T09:57:52Z</time>
      </trkpt>
      <trkpt lat="50.07965" lon="5.1106">
        <ele>153</ele>
        <time>2015-03-15T09:57:57Z</time>
      </trkpt>
      <trkpt lat="50.07959" lon="5.11059">
        <ele>153</ele>
        <time>2015-03-15T09:58:02Z</time>
      </trkpt>
      <trkpt lat="50.07952" lon="5.11059">
        <ele>153</ele>
        <time>2015-03-15T09:58:08Z</time>
      </trkpt>
      <trkpt lat="50.07945" lon="5.11059">
        <ele>154</ele>
        <time>2015-03-15T09:58:14Z</time>
      </trkpt>
      <trkpt lat="50.07939" lon="5.1106">
        <ele>155</ele>
        <time>2015-03-15T09:58:19Z</time>
      </trkpt>
      <trkpt lat="50.07933" lon="5.11059">
        <ele>155</ele>
        <time>2015-03-15T09:58:24Z</time>
      </trkpt>
      <trkpt lat="50.07927" lon="5.11059">
        <ele>155</ele>
        <time>2015-03-15T09:58:29Z</time>
      </trkpt>
      <trkpt lat="50.07921" lon="5.11059">
        <ele>156</ele>
        <time>2015-03-15T09:58:34Z</time>
      </trkpt>
      <trkpt lat="50.07915" lon="5.11059">
        <ele>156</ele>
        <time>2015-03-15T09:58:39Z</time>
      </trkpt>
      <trkpt lat="50.07908" lon="5.11059">
        <ele>156</ele>
        <time>2015-03-15T09:58:45Z</time>
      </trkpt>
      <trkpt lat="50.07903" lon="5.11054">
        <ele>157</ele>
        <time>2015-03-15T09:58:50Z</time>
      </trkpt>
      <trkpt lat="50.079" lon="5.11049">
        <ele>157</ele>
        <time>2015-03-15T09:58:55Z</time>
      </trkpt>
      <trkpt lat="50.07896" lon="5.11041">
        <ele>157</ele>
        <time>2015-03-15T09:59:01Z</time>
      </trkpt>
      <trkpt lat="50.07891" lon="5.11034">
        <ele>158</ele>
        <time>2015-03-15T09:59:06Z</time>
      </trkpt>
      <trkpt lat="50.07887" lon="5.11028">
        <ele>158</ele>
        <time>2015-03-15T09:59:11Z</time>
      </trkpt>
      <trkpt lat="50.07882" lon="5.11021">
        <ele>158</ele>
        <time>2015-03-15T09:59:16Z</time>
      </trkpt>
      <trkpt lat="50.07876" lon="5.11013">
        <ele>159</ele>
        <time>2015-03-15T09:59:22Z</time>
      </trkpt>
      <trkpt lat="50.0787" lon="5.11007">
        <ele>159</ele>
        <time>2015-03-15T09:59:27Z</time>
      </trkpt>
      <trkpt lat="50.07863" lon="5.11002">
        <ele>159</ele>
        <time>2015-03-15T09:59:32Z</time>
      </trkpt>
      <trkpt lat="50.07856" lon="5.11">
        <ele>160</ele>
        <time>2015-03-15T09:59:37Z</time>
      </trkpt>
      <trkpt lat="50.07849" lon="5.10999">
        <ele>160</ele>
        <time>2015-03-15T09:59:42Z</time>
      </trkpt>
      <trkpt lat="50.07841" lon="5.10997">
        <ele>161</ele>
        <time>2015-03-15T09:59:48Z</time>
      </trkpt>
      <trkpt lat="50.07834" lon="5.10994">
        <ele>161</ele>
        <time>2015-03-15T09:59:53Z</time>
      </trkpt>
      <trkpt lat="50.07826" lon="5.10992">
        <ele>161</ele>
        <time>2015-03-15T09:59:59Z</time>
      </trkpt>
      <trkpt lat="50.07819" lon="5.10992">
        <ele>161</ele>
        <time>2015-03-15T10:00:05Z</time>
      </trkpt>
      <trkpt lat="50.07813" lon="5.10991">
        <ele>162</ele>
        <time>2015-03-15T10:00:10Z</time>
      </trkpt>
      <trkpt lat="50.07806" lon="5.10991">
        <ele>162</ele>
        <time>2015-03-15T10:00:15Z</time>
      </trkpt>
      <trkpt lat="50.07798" lon="5.10989">
        <ele>162</ele>
        <time>2015-03-15T10:00:21Z</time>
      </trkpt>
      <trkpt lat="50.0779" lon="5.10987">
        <ele>162</ele>
        <time>2015-03-15T10:00:26Z</time>
      </trkpt>
      <trkpt lat="50.07782" lon="5.10984">
        <ele>162</ele>
        <time>2015-03-15T10:00:32Z</time>
      </trkpt>
      <trkpt lat="50.07777" lon="5.1098">
        <ele>163</ele>
        <time>2015-03-15T10:00:37Z</time>
      </trkpt>
      <trkpt lat="50.0777" lon="5.10976">
        <ele>163</ele>
        <time>2015-03-15T10:00:42Z</time>
      </trkpt>
      <trkpt lat="50.07763" lon="5.10973">
        <ele>163</ele>
        <time>2015-03-15T10:00:47Z</time>
      </trkpt>
      <trkpt lat="50.07756" lon="5.10968">
        <ele>164</ele>
        <time>2015-03-15T10:00:53Z</time>
      </trkpt>
      <trkpt lat="50.0775" lon="5.10963">
        <ele>164</ele>
        <time>2015-03-15T10:00:59Z</time>
      </trkpt>
      <trkpt lat="50.07744" lon="5.10959">
        <ele>164</ele>
        <time>2015-03-15T10:01:04Z</time>
      </trkpt>
      <trkpt lat="50.07739" lon="5.10954">
        <ele>164</ele>
        <time>2015-03-15T10:01:09Z</time>
      </trkpt>
      <trkpt lat="50.07734" lon="5.1095">
        <ele>164</ele>
        <time>2015-03-15T10:01:14Z</time>
      </trkpt>
      <trkpt lat="50.07728" lon="5.10945">
        <ele>164</ele>
        <time>2015-03-15T10:01:19Z</time>
      </trkpt>
      <trkpt lat="50.07722" lon="5.10941">
        <ele>164</ele>
        <time>2015-03-15T10:01:24Z</time>
      </trkpt>
      <trkpt lat="50.07715" lon="5.10935">
        <ele>164</ele>
        <time>2015-03-15T10:01:30Z</time>
      </trkpt>
      <trkpt lat="50.07707" lon="5.10928">
        <ele>164</ele>
        <time>2015-03-15T10:01:36Z</time>
      </trkpt>
      <trkpt lat="50.07701" lon="5.10921">
        <ele>165</ele>
        <time>2015-03-15T10:01:41Z</time>
      </trkpt>
      <trkpt lat="50.07695" lon="5.10914">
        <ele>164</ele>
        <time>2015-03-15T10:01:47Z</time>
      </trkpt>
      <trkpt lat="50.0769" lon="5.10906">
        <ele>164</ele>
        <time>2015-03-15T10:01:52Z</time>
      </trkpt>
      <trkpt lat="50.07684" lon="5.10896">
        <ele>164</ele>
        <time>2015-03-15T10:01:58Z</time>
      </trkpt>
      <trkpt lat="50.07679" lon="5.10887">
        <ele>164</ele>
        <time>2015-03-15T10:02:03Z</time>
      </trkpt>
      <trkpt lat="50.07673" lon="5.10877">
        <ele>164</ele>
        <time>2015-03-15T10:02:09Z</time>
      </trkpt>
      <trkpt lat="50.07669" lon="5.10868">
        <ele>163</ele>
        <time>2015-03-15T10:02:14Z</time>
      </trkpt>
      <trkpt lat="50.07664" lon="5.10858">
        <ele>164</ele>
        <time>2015-03-15T10:02:20Z</time>
      </trkpt>
      <trkpt lat="50.0766" lon="5.10849">
        <ele>163</ele>
        <time>2015-03-15T10:02:25Z</time>
      </trkpt>
      <trkpt lat="50.07655" lon="5.10839">
        <ele>164</ele>
        <time>2015-03-15T10:02:31Z</time>
      </trkpt>
      <trkpt lat="50.0765" lon="5.10829">
        <ele>163</ele>
        <time>2015-03-15T10:02:37Z</time>
      </trkpt>
      <trkpt lat="50.07646" lon="5.1082">
        <ele>163</ele>
        <time>2015-03-15T10:02:42Z</time>
      </trkpt>
      <trkpt lat="50.07642" lon="5.10812">
        <ele>163</ele>
        <time>2015-03-15T10:02:47Z</time>
      </trkpt>
      <trkpt lat="50.07638" lon="5.10801">
        <ele>163</ele>
        <time>2015-03-15T10:02:53Z</time>
      </trkpt>
      <trkpt lat="50.07634" lon="5.10792">
        <ele>163</ele>
        <time>2015-03-15T10:02:58Z</time>
      </trkpt>
      <trkpt lat="50.0763" lon="5.10783">
        <ele>164</ele>
        <time>2015-03-15T10:03:03Z</time>
      </trkpt>
      <trkpt lat="50.07625" lon="5.10773">
        <ele>164</ele>
        <time>2015-03-15T10:03:08Z</time>
      </trkpt>
      <trkpt lat="50.07621" lon="5.10764">
        <ele>164</ele>
        <time>2015-03-15T10:03:13Z</time>
      </trkpt>
      <trkpt lat="50.07616" lon="5.10753">
        <ele>164</ele>
        <time>2015-03-15T10:03:19Z</time>
      </trkpt>
      <trkpt lat="50.07611" lon="5.10742">
        <ele>164</ele>
        <time>2015-03-15T10:03:25Z</time>
      </trkpt>
      <trkpt lat="50.07608" lon="5.10733">
        <ele>164</ele>
        <time>2015-03-15T10:03:30Z</time>
      </trkpt>
      <trkpt lat="50.07603" lon="5.10724">
        <ele>164</ele>
        <time>2015-03-15T10:03:36Z</time>
      </trkpt>
      <trkpt lat="50.07598" lon="5.10715">
        <ele>163</ele>
        <time>2015-03-15T10:03:42Z</time>
      </trkpt>
      <trkpt lat="50.07595" lon="5.10706">
        <ele>163</ele>
        <time>2015-03-15T10:03:47Z</time>
      </trkpt>
      <trkpt lat="50.07592" lon="5.10695">
        <ele>163</ele>
        <time>2015-03-15T10:03:53Z</time>
      </trkpt>
      <trkpt lat="50.07588" lon="5.10683">
        <ele>163</ele>
        <time>2015-03-15T10:03:59Z</time>
      </trkpt>
      <trkpt lat="50.07586" lon="5.10673">
        <ele>163</ele>
        <time>2015-03-15T10:04:04Z</time>
      </trkpt>
      <trkpt lat="50.07583" lon="5.1066">
        <ele>163</ele>
        <time>2015-03-15T10:04:10Z</time>
      </trkpt>
      <trkpt lat="50.07581" lon="5.10649">
        <ele>163</ele>
        <time>2015-03-15T10:04:15Z</time>
      </trkpt>
      <trkpt lat="50.07579" lon="5.10636">
        <ele>163</ele>
        <time>2015-03-15T10:04:21Z</time>
      </trkpt>
      <trkpt lat="50.07576" lon="5.10623">
        <ele>163</ele>
        <time>2015-03-15T10:04:27Z</time>
      </trkpt>
      <trkpt lat="50.07573" lon="5.10613">
        <ele>163</ele>
        <time>2015-03-15T10:04:32Z</time>
      </trkpt>
      <trkpt lat="50.07568" lon="5.10602">
        <ele>163</ele>
        <time>2015-03-15T10:04:38Z</time>
      </trkpt>
      <trkpt lat="50.07563" lon="5.10594">
        <ele>163</ele>
        <time>2015-03-15T10:04:43Z</time>
      </trkpt>
      <trkpt lat="50.07557" lon="5.10586">
        <ele>163</ele>
        <time>2015-03-15T10:04:48Z</time>
      </trkpt>
      <trkpt lat="50.0755" lon="5.10578">
        <ele>163</ele>
        <time>2015-03-15T10:04:54Z</time>
      </trkpt>
      <trkpt lat="50.07544" lon="5.10573">
        <ele>163</ele>
        <time>2015-03-15T10:04:59Z</time>
      </trkpt>
      <trkpt lat="50.07537" lon="5.10566">
        <ele>164</ele>
        <time>2015-03-15T10:05:05Z</time>
      </trkpt>
      <trkpt lat="50.0753" lon="5.1056">
        <ele>164</ele>
        <time>2015-03-15T10:05:11Z</time>
      </trkpt>
      <trkpt lat="50.07523" lon="5.10555">
        <ele>164</ele>
        <time>2015-03-15T10:05:16Z</time>
      </trkpt>
      <trkpt lat="50.07516" lon="5.10548">
        <ele>164</ele>
        <time>2015-03-15T10:05:22Z</time>
      </trkpt>
      <trkpt lat="50.0751" lon="5.10541">
        <ele>165</ele>
        <time>2015-03-15T10:05:27Z</time>
      </trkpt>
      <trkpt lat="50.07503" lon="5.10534">
        <ele>165</ele>
        <time>2015-03-15T10:05:33Z</time>
      </trkpt>
      <trkpt lat="50.07497" lon="5.10529">
        <ele>166</ele>
        <time>2015-03-15T10:05:38Z</time>
      </trkpt>
      <trkpt lat="50.0749" lon="5.10522">
        <ele>166</ele>
        <time>2015-03-15T10:05:44Z</time>
      </trkpt>
      <trkpt lat="50.07484" lon="5.10517">
        <ele>167</ele>
        <time>2015-03-15T10:05:49Z</time>
      </trkpt>
      <trkpt lat="50.07478" lon="5.10511">
        <ele>167</ele>
        <time>2015-03-15T10:05:54Z</time>
      </trkpt>
      <trkpt lat="50.07471" lon="5.10504">
        <ele>167</ele>
        <time>2015-03-15T10:06:00Z</time>
      </trkpt>
      <trkpt lat="50.07463" lon="5.10498">
        <ele>168</ele>
        <time>2015-03-15T10:06:06Z</time>
      </trkpt>
      <trkpt lat="50.07457" lon="5.10492">
        <ele>169</ele>
        <time>2015-03-15T10:06:11Z</time>
      </trkpt>
      <trkpt lat="50.07451" lon="5.10486">
        <ele>170</ele>
        <time>2015-03-15T10:06:16Z</time>
      </trkpt>
      <trkpt lat="50.07446" lon="5.1048">
        <ele>170</ele>
        <time>2015-03-15T10:06:21Z</time>
      </trkpt>
      <trkpt lat="50.07438" lon="5.10473">
        <ele>170</ele>
        <time>2015-03-15T10:06:27Z</time>
      </trkpt>
      <trkpt lat="50.07432" lon="5.10469">
        <ele>171</ele>
        <time>2015-03-15T10:06:32Z</time>
      </trkpt>
      <trkpt lat="50.07426" lon="5.10465">
        <ele>172</ele>
        <time>2015-03-15T10:06:37Z</time>
      </trkpt>
      <trkpt lat="50.07418" lon="5.1046">
        <ele>172</ele>
        <time>2015-03-15T10:06:43Z</time>
      </trkpt>
      <trkpt lat="50.07412" lon="5.10456">
        <ele>172</ele>
        <time>2015-03-15T10:06:48Z</time>
      </trkpt>
      <trkpt lat="50.07406" lon="5.10452">
        <ele>173</ele>
        <time>2015-03-15T10:06:53Z</time>
      </trkpt>
      <trkpt lat="50.07399" lon="5.10448">
        <ele>174</ele>
        <time>2015-03-15T10:06:58Z</time>
      </trkpt>
      <trkpt lat="50.07393" lon="5.10443">
        <ele>174</ele>
        <time>2015-03-15T10:07:03Z</time>
      </trkpt>
      <trkpt lat="50.07386" lon="5.1044">
        <ele>175</ele>
        <time>2015-03-15T10:07:08Z</time>
      </trkpt>
      <trkpt lat="50.07381" lon="5.10437">
        <ele>175</ele>
        <time>2015-03-15T10:07:13Z</time>
      </trkpt>
      <trkpt lat="50.07373" lon="5.10432">
        <ele>176</ele>
        <time>2015-03-15T10:07:19Z</time>
      </trkpt>
      <trkpt lat="50.07367" lon="5.10428">
        <ele>176</ele>
        <time>2015-03-15T10:07:24Z</time>
      </trkpt>
      <trkpt lat="50.07361" lon="5.10423">
        <ele>177</ele>
        <time>2015-03-15T10:07:29Z</time>
      </trkpt>
      <trkpt lat="50.07354" lon="5.10417">
        <ele>177</ele>
        <time>2015-03-15T10:07:35Z</time>
      </trkpt>
      <trkpt lat="50.0735" lon="5.10413">
        <ele>178</ele>
        <time>2015-03-15T10:07:40Z</time>
      </trkpt>
      <trkpt lat="50.07348" lon="5.10411">
        <ele>178</ele>
        <time>2015-03-15T10:07:45Z</time>
      </trkpt>
      <trkpt lat="50.07341" lon="5.10405">
        <ele>179</ele>
        <time>2015-03-15T10:07:51Z</time>
      </trkpt>
      <trkpt lat="50.07335" lon="5.10401">
        <ele>179</ele>
        <time>2015-03-15T10:07:56Z</time>
      </trkpt>
      <trkpt lat="50.07327" lon="5.10395">
        <ele>179</ele>
        <time>2015-03-15T10:08:02Z</time>
      </trkpt>
      <trkpt lat="50.07321" lon="5.10391">
        <ele>180</ele>
        <time>2015-03-15T10:08:07Z</time>
      </trkpt>
      <trkpt lat="50.07315" lon="5.10387">
        <ele>181</ele>
        <time>2015-03-15T10:08:12Z</time>
      </trkpt>
      <trkpt lat="50.07308" lon="5.10383">
        <ele>181</ele>
        <time>2015-03-15T10:08:17Z</time>
      </trkpt>
      <trkpt lat="50.07301" lon="5.10377">
        <ele>182</ele>
        <time>2015-03-15T10:08:23Z</time>
      </trkpt>
      <trkpt lat="50.07295" lon="5.10373">
        <ele>182</ele>
        <time>2015-03-15T10:08:28Z</time>
      </trkpt>
      <trkpt lat="50.07289" lon="5.10369">
        <ele>183</ele>
        <time>2015-03-15T10:08:33Z</time>
      </trkpt>
      <trkpt lat="50.07282" lon="5.10364">
        <ele>184</ele>
        <time>2015-03-15T10:08:39Z</time>
      </trkpt>
      <trkpt lat="50.07276" lon="5.10362">
        <ele>184</ele>
        <time>2015-03-15T10:08:44Z</time>
      </trkpt>
      <trkpt lat="50.0727" lon="5.10357">
        <ele>185</ele>
        <time>2015-03-15T10:08:50Z</time>
      </trkpt>
      <trkpt lat="50.07264" lon="5.10353">
        <ele>185</ele>
        <time>2015-03-15T10:08:55Z</time>
      </trkpt>
      <trkpt lat="50.07257" lon="5.10348">
        <ele>187</ele>
        <time>2015-03-15T10:09:01Z</time>
      </trkpt>
      <trkpt lat="50.07251" lon="5.10344">
        <ele>187</ele>
        <time>2015-03-15T10:09:06Z</time>
      </trkpt>
      <trkpt lat="50.07245" lon="5.10339">
        <ele>188</ele>
        <time>2015-03-15T10:09:11Z</time>
      </trkpt>
      <trkpt lat="50.07239" lon="5.10335">
        <ele>189</ele>
        <time>2015-03-15T10:09:16Z</time>
      </trkpt>
      <trkpt lat="50.07232" lon="5.10332">
        <ele>189</ele>
        <time>2015-03-15T10:09:22Z</time>
      </trkpt>
      <trkpt lat="50.07226" lon="5.10331">
        <ele>189</ele>
        <time>2015-03-15T10:09:27Z</time>
      </trkpt>
      <trkpt lat="50.07219" lon="5.10328">
        <ele>189</ele>
        <time>2015-03-15T10:09:33Z</time>
      </trkpt>
      <trkpt lat="50.07213" lon="5.10325">
        <ele>189</ele>
        <time>2015-03-15T10:09:38Z</time>
      </trkpt>
      <trkpt lat="50.07206" lon="5.10323">
        <ele>190</ele>
        <time>2015-03-15T10:09:44Z</time>
      </trkpt>
      <trkpt lat="50.07198" lon="5.10323">
        <ele>190</ele>
        <time>2015-03-15T10:09:50Z</time>
      </trkpt>
      <trkpt lat="50.0719" lon="5.10322">
        <ele>191</ele>
        <time>2015-03-15T10:09:56Z</time>
      </trkpt>
      <trkpt lat="50.07182" lon="5.10322">
        <ele>191</ele>
        <time>2015-03-15T10:10:01Z</time>
      </trkpt>
      <trkpt lat="50.07175" lon="5.1032">
        <ele>191</ele>
        <time>2015-03-15T10:10:06Z</time>
      </trkpt>
      <trkpt lat="50.07169" lon="5.1032">
        <ele>191</ele>
        <time>2015-03-15T10:10:11Z</time>
      </trkpt>
      <trkpt lat="50.07161" lon="5.10322">
        <ele>191</ele>
        <time>2015-03-15T10:10:17Z</time>
      </trkpt>
      <trkpt lat="50.07154" lon="5.10323">
        <ele>192</ele>
        <time>2015-03-15T10:10:22Z</time>
      </trkpt>
      <trkpt lat="50.07146" lon="5.10322">
        <ele>192</ele>
        <time>2015-03-15T10:10:28Z</time>
      </trkpt>
      <trkpt lat="50.0714" lon="5.10322">
        <ele>192</ele>
        <time>2015-03-15T10:10:33Z</time>
      </trkpt>
      <trkpt lat="50.07134" lon="5.10321">
        <ele>192</ele>
        <time>2015-03-15T10:10:38Z</time>
      </trkpt>
      <trkpt lat="50.07128" lon="5.10319">
        <ele>192</ele>
        <time>2015-03-15T10:10:43Z</time>
      </trkpt>
      <trkpt lat="50.07124" lon="5.10315">
        <ele>193</ele>
        <time>2015-03-15T10:10:48Z</time>
      </trkpt>
      <trkpt lat="50.0712" lon="5.10307">
        <ele>192</ele>
        <time>2015-03-15T10:10:54Z</time>
      </trkpt>
      <trkpt lat="50.07117" lon="5.10298">
        <ele>193</ele>
        <time>2015-03-15T10:10:59Z</time>
      </trkpt>
      <trkpt lat="50.07115" lon="5.10286">
        <ele>193</ele>
        <time>2015-03-15T10:11:05Z</time>
      </trkpt>
      <trkpt lat="50.07114" lon="5.10276">
        <ele>193</ele>
        <time>2015-03-15T10:11:10Z</time>
      </trkpt>
      <trkpt lat="50.07112" lon="5.10264">
        <ele>193</ele>
        <time>2015-03-15T10:11:16Z</time>
      </trkpt>
      <trkpt lat="50.0711" lon="5.10254">
        <ele>193</ele>
        <time>2015-03-15T10:11:21Z</time>
      </trkpt>
      <trkpt lat="50.07108" lon="5.10243">
        <ele>193</ele>
        <time>2015-03-15T10:11:27Z</time>
      </trkpt>
      <trkpt lat="50.07105" lon="5.10234">
        <ele>193</ele>
        <time>2015-03-15T10:11:32Z</time>
      </trkpt>
      <trkpt lat="50.07099" lon="5.10228">
        <ele>193</ele>
        <time>2015-03-15T10:11:38Z</time>
      </trkpt>
      <trkpt lat="50.07093" lon="5.10225">
        <ele>193</ele>
        <time>2015-03-15T10:11:43Z</time>
      </trkpt>
      <trkpt lat="50.07087" lon="5.10223">
        <ele>193</ele>
        <time>2015-03-15T10:11:49Z</time>
      </trkpt>
      <trkpt lat="50.0708" lon="5.10223">
        <ele>192</ele>
        <time>2015-03-15T10:11:54Z</time>
      </trkpt>
      <trkpt lat="50.07073" lon="5.1022">
        <ele>193</ele>
        <time>2015-03-15T10:12:00Z</time>
      </trkpt>
      <trkpt lat="50.07067" lon="5.10218">
        <ele>193</ele>
        <time>2015-03-15T10:12:06Z</time>
      </trkpt>
      <trkpt lat="50.07062" lon="5.10216">
        <ele>193</ele>
        <time>2015-03-15T10:12:11Z</time>
      </trkpt>
      <trkpt lat="50.07056" lon="5.10214">
        <ele>193</ele>
        <time>2015-03-15T10:12:16Z</time>
      </trkpt>
      <trkpt lat="50.07049" lon="5.10214">
        <ele>193</ele>
        <time>2015-03-15T10:12:22Z</time>
      </trkpt>
      <trkpt lat="50.07043" lon="5.10213">
        <ele>193</ele>
        <time>2015-03-15T10:12:27Z</time>
      </trkpt>
      <trkpt lat="50.07038" lon="5.10212">
        <ele>193</ele>
        <time>2015-03-15T10:12:32Z</time>
      </trkpt>
      <trkpt lat="50.07031" lon="5.10212">
        <ele>193</ele>
        <time>2015-03-15T10:12:38Z</time>
      </trkpt>
      <trkpt lat="50.07026" lon="5.1021">
        <ele>193</ele>
        <time>2015-03-15T10:12:43Z</time>
      </trkpt>
      <trkpt lat="50.07018" lon="5.1021">
        <ele>194</ele>
        <time>2015-03-15T10:12:49Z</time>
      </trkpt>
      <trkpt lat="50.07011" lon="5.1021">
        <ele>194</ele>
        <time>2015-03-15T10:12:54Z</time>
      </trkpt>
      <trkpt lat="50.07004" lon="5.10209">
        <ele>194</ele>
        <time>2015-03-15T10:13:00Z</time>
      </trkpt>
      <trkpt lat="50.06998" lon="5.10208">
        <ele>195</ele>
        <time>2015-03-15T10:13:05Z</time>
      </trkpt>
      <trkpt lat="50.06991" lon="5.10208">
        <ele>195</ele>
        <time>2015-03-15T10:13:10Z</time>
      </trkpt>
      <trkpt lat="50.06985" lon="5.10206">
        <ele>196</ele>
        <time>2015-03-15T10:13:15Z</time>
      </trkpt>
      <trkpt lat="50.06977" lon="5.10204">
        <ele>196</ele>
        <time>2015-03-15T10:13:21Z</time>
      </trkpt>
      <trkpt lat="50.0697" lon="5.10203">
        <ele>197</ele>
        <time>2015-03-15T10:13:27Z</time>
      </trkpt>
      <trkpt lat="50.06963" lon="5.10202">
        <ele>197</ele>
        <time>2015-03-15T10:13:33Z</time>
      </trkpt>
      <trkpt lat="50.06956" lon="5.10201">
        <ele>198</ele>
        <time>2015-03-15T10:13:38Z</time>
      </trkpt>
      <trkpt lat="50.06955" lon="5.10202">
        <ele>198</ele>
        <time>2015-03-15T10:13:44Z</time>
      </trkpt>
      <trkpt lat="50.06951" lon="5.10202">
        <ele>198</ele>
        <time>2015-03-15T10:13:49Z</time>
      </trkpt>
      <trkpt lat="50.06943" lon="5.10201">
        <ele>199</ele>
        <time>2015-03-15T10:13:55Z</time>
      </trkpt>
      <trkpt lat="50.06937" lon="5.102">
        <ele>200</ele>
        <time>2015-03-15T10:14:00Z</time>
      </trkpt>
      <trkpt lat="50.06932" lon="5.10198">
        <ele>200</ele>
        <time>2015-03-15T10:14:05Z</time>
      </trkpt>
      <trkpt lat="50.06924" lon="5.10196">
        <ele>201</ele>
        <time>2015-03-15T10:14:11Z</time>
      </trkpt>
      <trkpt lat="50.06918" lon="5.10196">
        <ele>202</ele>
        <time>2015-03-15T10:14:17Z</time>
      </trkpt>
      <trkpt lat="50.06911" lon="5.10193">
        <ele>203</ele>
        <time>2015-03-15T10:14:23Z</time>
      </trkpt>
      <trkpt lat="50.06904" lon="5.10192">
        <ele>204</ele>
        <time>2015-03-15T10:14:29Z</time>
      </trkpt>
      <trkpt lat="50.06898" lon="5.10192">
        <ele>204</ele>
        <time>2015-03-15T10:14:34Z</time>
      </trkpt>
      <trkpt lat="50.06892" lon="5.10191">
        <ele>205</ele>
        <time>2015-03-15T10:14:40Z</time>
      </trkpt>
      <trkpt lat="50.06886" lon="5.10191">
        <ele>206</ele>
        <time>2015-03-15T10:14:45Z</time>
      </trkpt>
      <trkpt lat="50.06881" lon="5.10191">
        <ele>207</ele>
        <time>2015-03-15T10:14:50Z</time>
      </trkpt>
      <trkpt lat="50.06875" lon="5.10191">
        <ele>208</ele>
        <time>2015-03-15T10:14:55Z</time>
      </trkpt>
      <trkpt lat="50.06868" lon="5.10192">
        <ele>208</ele>
        <time>2015-03-15T10:15:01Z</time>
      </trkpt>
      <trkpt lat="50.06863" lon="5.10192">
        <ele>209</ele>
        <time>2015-03-15T10:15:06Z</time>
      </trkpt>
      <trkpt lat="50.06857" lon="5.10191">
        <ele>210</ele>
        <time>2015-03-15T10:15:11Z</time>
      </trkpt>
      <trkpt lat="50.0685" lon="5.10191">
        <ele>211</ele>
        <time>2015-03-15T10:15:17Z</time>
      </trkpt>
      <trkpt lat="50.06844" lon="5.10191">
        <ele>211</ele>
        <time>2015-03-15T10:15:22Z</time>
      </trkpt>
      <trkpt lat="50.06837" lon="5.10191">
        <ele>212</ele>
        <time>2015-03-15T10:15:28Z</time>
      </trkpt>
      <trkpt lat="50.0683" lon="5.10191">
        <ele>213</ele>
        <time>2015-03-15T10:15:34Z</time>
      </trkpt>
      <trkpt lat="50.06824" lon="5.10191">
        <ele>214</ele>
        <time>2015-03-15T10:15:39Z</time>
      </trkpt>
      <trkpt lat="50.06818" lon="5.10191">
        <ele>214</ele>
        <time>2015-03-15T10:15:44Z</time>
      </trkpt>
      <trkpt lat="50.06812" lon="5.10192">
        <ele>215</ele>
        <time>2015-03-15T10:15:49Z</time>
      </trkpt>
      <trkpt lat="50.06806" lon="5.10192">
        <ele>215</ele>
        <time>2015-03-15T10:15:54Z</time>
      </trkpt>
      <trkpt lat="50.068" lon="5.10193">
        <ele>216</ele>
        <time>2015-03-15T10:16:00Z</time>
      </trkpt>
      <trkpt lat="50.06799" lon="5.10194">
        <ele>216</ele>
        <time>2015-03-15T10:16:05Z</time>
      </trkpt>
      <trkpt lat="50.06793" lon="5.10195">
        <ele>216</ele>
        <time>2015-03-15T10:16:11Z</time>
      </trkpt>
      <trkpt lat="50.06785" lon="5.10196">
        <ele>217</ele>
        <time>2015-03-15T10:16:17Z</time>
      </trkpt>
      <trkpt lat="50.06779" lon="5.10197">
        <ele>218</ele>
        <time>2015-03-15T10:16:22Z</time>
      </trkpt>
      <trkpt lat="50.06772" lon="5.10198">
        <ele>218</ele>
        <time>2015-03-15T10:16:27Z</time>
      </trkpt>
      <trkpt lat="50.06764" lon="5.10199">
        <ele>219</ele>
        <time>2015-03-15T10:16:33Z</time>
      </trkpt>
      <trkpt lat="50.06759" lon="5.102">
        <ele>219</ele>
        <time>2015-03-15T10:16:38Z</time>
      </trkpt>
      <trkpt lat="50.06758" lon="5.10201">
        <ele>219</ele>
        <time>2015-03-15T10:16:44Z</time>
      </trkpt>
      <trkpt lat="50.06758" lon="5.10201">
        <ele>219</ele>
        <time>2015-03-15T10:16:50Z</time>
      </trkpt>
      <trkpt lat="50.06758" lon="5.10202">
        <ele>220</ele>
        <time>2015-03-15T10:16:55Z</time>
      </trkpt>
      <trkpt lat="50.06758" lon="5.10202">
        <ele>220</ele>
        <time>2015-03-15T10:17:01Z</time>
      </trkpt>
      <trkpt lat="50.06758" lon="5.10203">
        <ele>219</ele>
        <time>2015-03-15T10:17:06Z</time>
      </trkpt>
      <trkpt lat="50.06757" lon="5.10204">
        <ele>219</ele>
        <time>2015-03-15T10:17:11Z</time>
      </trkpt>
      <trkpt lat="50.06756" lon="5.10205">
        <ele>220</ele>
        <time>2015-03-15T10:17:16Z</time>
      </trkpt>
      <trkpt lat="50.06752" lon="5.10205">
        <ele>220</ele>
        <time>2015-03-15T10:17:21Z</time>
      </trkpt>
      <trkpt lat="50.06746" lon="5.10206">
        <ele>220</ele>
        <time>2015-03-15T10:17:27Z</time>
      </trkpt>
      <trkpt lat="50.06739" lon="5.10205">
        <ele>221</ele>
        <time>2015-03-15T10:17:33Z</time>
      </trkpt>
      <trkpt lat="50.06731" lon="5.10208">
        <ele>221</ele>
        <time>2015-03-15T10:17:38Z</time>
      </trkpt>
      <trkpt lat="50.06725" lon="5.1021">
        <ele>222</ele>
        <time>2015-03-15T10:17:43Z</time>
      </trkpt>
      <trkpt lat="50.06719" lon="5.10211">
        <ele>222</ele>
        <time>2015-03-15T10:17:48Z</time>
      </trkpt>
      <trkpt lat="50.06712" lon="5.10211">
        <ele>222</ele>
        <time>2015-03-15T10:17:53Z</time>
      </trkpt>
      <trkpt lat="50.06711" lon="5.10211">
        <ele>222</ele>
        <time>2015-03-15T10:17:59Z</time>
      </trkpt>
      <trkpt lat="50.06711" lon="5.1021">
        <ele>222</ele>
        <time>2015-03-15T10:18:04Z</time>
      </trkpt>
      <trkpt lat="50.06707" lon="5.1021">
        <ele>223</ele>
        <time>2015-03-15T10:18:09Z</time>
      </trkpt>
      <trkpt lat="50.06701" lon="5.10208">
        <ele>223</ele>
        <time>2015-03-15T10:18:15Z</time>
      </trkpt>
      <trkpt lat="50.06696" lon="5.10209">
        <ele>224</ele>
        <time>2015-03-15T10:18:21Z</time>
      </trkpt>
      <trkpt lat="50.06691" lon="5.10213">
        <ele>224</ele>
        <time>2015-03-15T10:18:27Z</time>
      </trkpt>
      <trkpt lat="50.06689" lon="5.10213">
        <ele>224</ele>
        <time>2015-03-15T10:18:32Z</time>
      </trkpt>
      <trkpt lat="50.06689" lon="5.10212">
        <ele>223</ele>
        <time>2015-03-15T10:18:38Z</time>
      </trkpt>
      <trkpt lat="50.06689" lon="5.10215">
        <ele>222</ele>
        <time>2015-03-15T10:18:43Z</time>
      </trkpt>
      <trkpt lat="50.06689" lon="5.10217">
        <ele>222</ele>
        <time>2015-03-15T10:18:48Z</time>
      </trkpt>
      <trkpt lat="50.06689" lon="5.10216">
        <ele>223</ele>
        <time>2015-03-15T10:18:54Z</time>
      </trkpt>
      <trkpt lat="50.06689" lon="5.10215">
        <ele>224</ele>
        <time>2015-03-15T10:18:59Z</time>
      </trkpt>
      <trkpt lat="50.06687" lon="5.10214">
        <ele>223</ele>
        <time>2015-03-15T10:19:04Z</time>
      </trkpt>
      <trkpt lat="50.06686" lon="5.10211">
        <ele>223</ele>
        <time>2015-03-15T10:19:09Z</time>
      </trkpt>
      <trkpt lat="50.06686" lon="5.10207">
        <ele>223</ele>
        <time>2015-03-15T10:19:14Z</time>
      </trkpt>
      <trkpt lat="50.06685" lon="5.10206">
        <ele>223</ele>
        <time>2015-03-15T10:19:20Z</time>
      </trkpt>
      <trkpt lat="50.06685" lon="5.10205">
        <ele>223</ele>
        <time>2015-03-15T10:19:25Z</time>
      </trkpt>
      <trkpt lat="50.06685" lon="5.10202">
        <ele>224</ele>
        <time>2015-03-15T10:19:31Z</time>
      </trkpt>
      <trkpt lat="50.06686" lon="5.10202">
        <ele>223</ele>
        <time>2015-03-15T10:19:36Z</time>
      </trkpt>
      <trkpt lat="50.06686" lon="5.10202">
        <ele>223</ele>
        <time>2015-03-15T10:19:41Z</time>
      </trkpt>
      <trkpt lat="50.06688" lon="5.10206">
        <ele>223</ele>
        <time>2015-03-15T10:19:47Z</time>
      </trkpt>
      <trkpt lat="50.06688" lon="5.10207">
        <ele>224</ele>
        <time>2015-03-15T10:19:53Z</time>
      </trkpt>
      <trkpt lat="50.06684" lon="5.10209">
        <ele>223</ele>
        <time>2015-03-15T10:19:58Z</time>
      </trkpt>
      <trkpt lat="50.06684" lon="5.10211">
        <ele>224</ele>
        <time>2015-03-15T10:20:03Z</time>
      </trkpt>
      <trkpt lat="50.06683" lon="5.10212">
        <ele>224</ele>
        <time>2015-03-15T10:20:08Z</time>
      </trkpt>
      <trkpt lat="50.06683" lon="5.10213">
        <ele>224</ele>
        <time>2015-03-15T10:20:14Z</time>
      </trkpt>
      <trkpt lat="50.06683" lon="5.10213">
        <ele>224</ele>
        <time>2015-03-15T10:20:20Z</time>
      </trkpt>
      <trkpt lat="50.06685" lon="5.10213">
        <ele>224</ele>
        <time>2015-03-15T10:20:25Z</time>
      </trkpt>
      <trkpt lat="50.06684" lon="5.10212">
        <ele>224</ele>
        <time>2015-03-15T10:20:31Z</time>
      </trkpt>
      <trkpt lat="50.06686" lon="5.10212">
        <ele>224</ele>
        <time>2015-03-15T10:20:37Z</time>
      </trkpt>
      <trkpt lat="50.06685" lon="5.10213">
        <ele>223</ele>
        <time>2015-03-15T10:20:42Z</time>
      </trkpt>
      <trkpt lat="50.06681" lon="5.10215">
        <ele>224</ele>
        <time>2015-03-15T10:20:47Z</time>
      </trkpt>
      <trkpt lat="50.06677" lon="5.10215">
        <ele>224</ele>
        <time>2015-03-15T10:20:53Z</time>
      </trkpt>
      <trkpt lat="50.06671" lon="5.10218">
        <ele>223</ele>
        <time>2015-03-15T10:20:59Z</time>
      </trkpt>
      <trkpt lat="50.06664" lon="5.10222">
        <ele>223</ele>
        <time>2015-03-15T10:21:05Z</time>
      </trkpt>
      <trkpt lat="50.06658" lon="5.10225">
        <ele>223</ele>
        <time>2015-03-15T10:21:10Z</time>
      </trkpt>
      <trkpt lat="50.06652" lon="5.10226">
        <ele>223</ele>
        <time>2015-03-15T10:21:16Z</time>
      </trkpt>
      <trkpt lat="50.06647" lon="5.10229">
        <ele>222</ele>
        <time>2015-03-15T10:21:21Z</time>
      </trkpt>
      <trkpt lat="50.06641" lon="5.10232">
        <ele>222</ele>
        <time>2015-03-15T10:21:27Z</time>
      </trkpt>
      <trkpt lat="50.06636" lon="5.10234">
        <ele>221</ele>
        <time>2015-03-15T10:21:33Z</time>
      </trkpt>
      <trkpt lat="50.06632" lon="5.10238">
        <ele>221</ele>
        <time>2015-03-15T10:21:38Z</time>
      </trkpt>
      <trkpt lat="50.06628" lon="5.10242">
        <ele>220</ele>
        <time>2015-03-15T10:21:44Z</time>
      </trkpt>
      <trkpt lat="50.06622" lon="5.10245">
        <ele>220</ele>
        <time>2015-03-15T10:21:50Z</time>
      </trkpt>
      <trkpt lat="50.06617" lon="5.10248">
        <ele>219</ele>
        <time>2015-03-15T10:21:55Z</time>
      </trkpt>
      <trkpt lat="50.06613" lon="5.10253">
        <ele>219</ele>
        <time>2015-03-15T10:22:01Z</time>
      </trkpt>
      <trkpt lat="50.06607" lon="5.10257">
        <ele>218</ele>
        <time>2015-03-15T10:22:07Z</time>
      </trkpt>
      <trkpt lat="50.06603" lon="5.10262">
        <ele>219</ele>
        <time>2015-03-15T10:22:13Z</time>
      </trkpt>
      <trkpt lat="50.06596" lon="5.1027">
        <ele>219</ele>
        <time>2015-03-15T10:22:19Z</time>
      </trkpt>
      <trkpt lat="50.0659" lon="5.10275">
        <ele>219</ele>
        <time>2015-03-15T10:22:24Z</time>
      </trkpt>
      <trkpt lat="50.06585" lon="5.1028">
        <ele>218</ele>
        <time>2015-03-15T10:22:29Z</time>
      </trkpt>
      <trkpt lat="50.06579" lon="5.10284">
        <ele>217</ele>
        <time>2015-03-15T10:22:35Z</time>
      </trkpt>
      <trkpt lat="50.06575" lon="5.10288">
        <ele>217</ele>
        <time>2015-03-15T10:22:40Z</time>
      </trkpt>
      <trkpt lat="50.06567" lon="5.10291">
        <ele>217</ele>
        <time>2015-03-15T10:22:46Z</time>
      </trkpt>
      <trkpt lat="50.06561" lon="5.10294">
        <ele>216</ele>
        <time>2015-03-15T10:22:51Z</time>
      </trkpt>
      <trkpt lat="50.06554" lon="5.10297">
        <ele>216</ele>
        <time>2015-03-15T10:22:57Z</time>
      </trkpt>
      <trkpt lat="50.06548" lon="5.10301">
        <ele>215</ele>
        <time>2015-03-15T10:23:02Z</time>
      </trkpt>
      <trkpt lat="50.06541" lon="5.10305">
        <ele>215</ele>
        <time>2015-03-15T10:23:08Z</time>
      </trkpt>
      <trkpt lat="50.06537" lon="5.10307">
        <ele>215</ele>
        <time>2015-03-15T10:23:14Z</time>
      </trkpt>
      <trkpt lat="50.06534" lon="5.10308">
        <ele>214</ele>
        <time>2015-03-15T10:23:19Z</time>
      </trkpt>
      <trkpt lat="50.06531" lon="5.1031">
        <ele>215</ele>
        <time>2015-03-15T10:23:25Z</time>
      </trkpt>
      <trkpt lat="50.06529" lon="5.1031">
        <ele>215</ele>
        <time>2015-03-15T10:23:31Z</time>
      </trkpt>
      <trkpt lat="50.06527" lon="5.10311">
        <ele>215</ele>
        <time>2015-03-15T10:23:37Z</time>
      </trkpt>
      <trkpt lat="50.06526" lon="5.10311">
        <ele>214</ele>
        <time>2015-03-15T10:23:43Z</time>
      </trkpt>
      <trkpt lat="50.06524" lon="5.10311">
        <ele>215</ele>
        <time>2015-03-15T10:23:49Z</time>
      </trkpt>
      <trkpt lat="50.06523" lon="5.10311">
        <ele>215</ele>
        <time>2015-03-15T10:23:55Z</time>
      </trkpt>
      <trkpt lat="50.06523" lon="5.10311">
        <ele>215</ele>
        <time>2015-03-15T10:24:00Z</time>
      </trkpt>
      <trkpt lat="50.06524" lon="5.10312">
        <ele>215</ele>
        <time>2015-03-15T10:24:06Z</time>
      </trkpt>
      <trkpt lat="50.06525" lon="5.10313">
        <ele>215</ele>
        <time>2015-03-15T10:24:12Z</time>
      </trkpt>
      <trkpt lat="50.06525" lon="5.10313">
        <ele>215</ele>
        <time>2015-03-15T10:24:17Z</time>
      </trkpt>
      <trkpt lat="50.06525" lon="5.10314">
        <ele>215</ele>
        <time>2015-03-15T10:24:22Z</time>
      </trkpt>
      <trkpt lat="50.06524" lon="5.10314">
        <ele>214</ele>
        <time>2015-03-15T10:24:28Z</time>
      </trkpt>
      <trkpt lat="50.06524" lon="5.10314">
        <ele>215</ele>
        <time>2015-03-15T10:24:33Z</time>
      </trkpt>
      <trkpt lat="50.06524" lon="5.10314">
        <ele>215</ele>
        <time>2015-03-15T10:24:39Z</time>
      </trkpt>
      <trkpt lat="50.06523" lon="5.10314">
        <ele>215</ele>
        <time>2015-03-15T10:24:44Z</time>
      </trkpt>
      <trkpt lat="50.06519" lon="5.10312">
        <ele>215</ele>
        <time>2015-03-15T10:24:50Z</time>
      </trkpt>
      <trkpt lat="50.06517" lon="5.10312">
        <ele>214</ele>
        <time>2015-03-15T10:24:57Z</time>
      </trkpt>
      <trkpt lat="50.06521" lon="5.10314">
        <ele>214</ele>
        <time>2015-03-15T10:25:03Z</time>
      </trkpt>
      <trkpt lat="50.06519" lon="5.10314">
        <ele>214</ele>
        <time>2015-03-15T10:25:08Z</time>
      </trkpt>
      <trkpt lat="50.06515" lon="5.10315">
        <ele>214</ele>
        <time>2015-03-15T10:25:14Z</time>
      </trkpt>
      <trkpt lat="50.06511" lon="5.10315">
        <ele>214</ele>
        <time>2015-03-15T10:25:19Z</time>
      </trkpt>
      <trkpt lat="50.06507" lon="5.10314">
        <ele>214</ele>
        <time>2015-03-15T10:25:25Z</time>
      </trkpt>
      <trkpt lat="50.06504" lon="5.10313">
        <ele>214</ele>
        <time>2015-03-15T10:25:30Z</time>
      </trkpt>
      <trkpt lat="50.06498" lon="5.10312">
        <ele>214</ele>
        <time>2015-03-15T10:25:36Z</time>
      </trkpt>
      <trkpt lat="50.06491" lon="5.10312">
        <ele>214</ele>
        <time>2015-03-15T10:25:42Z</time>
      </trkpt>
      <trkpt lat="50.06486" lon="5.10311">
        <ele>214</ele>
        <time>2015-03-15T10:25:47Z</time>
      </trkpt>
      <trkpt lat="50.06479" lon="5.1031">
        <ele>215</ele>
        <time>2015-03-15T10:25:52Z</time>
      </trkpt>
      <trkpt lat="50.06469" lon="5.10311">
        <ele>215</ele>
        <time>2015-03-15T10:25:58Z</time>
      </trkpt>
      <trkpt lat="50.06461" lon="5.10311">
        <ele>216</ele>
        <time>2015-03-15T10:26:03Z</time>
      </trkpt>
      <trkpt lat="50.06455" lon="5.10311">
        <ele>216</ele>
        <time>2015-03-15T10:26:09Z</time>
      </trkpt>
      <trkpt lat="50.06449" lon="5.1031">
        <ele>217</ele>
        <time>2015-03-15T10:26:15Z</time>
      </trkpt>
      <trkpt lat="50.06444" lon="5.10309">
        <ele>217</ele>
        <time>2015-03-15T10:26:20Z</time>
      </trkpt>
      <trkpt lat="50.06439" lon="5.10309">
        <ele>218</ele>
        <time>2015-03-15T10:26:25Z</time>
      </trkpt>
      <trkpt lat="50.06433" lon="5.10307">
        <ele>218</ele>
        <time>2015-03-15T10:26:31Z</time>
      </trkpt>
      <trkpt lat="50.06427" lon="5.10306">
        <ele>219</ele>
        <time>2015-03-15T10:26:36Z</time>
      </trkpt>
      <trkpt lat="50.06417" lon="5.10304">
        <ele>220</ele>
        <time>2015-03-15T10:26:42Z</time>
      </trkpt>
      <trkpt lat="50.0641" lon="5.10302">
        <ele>220</ele>
        <time>2015-03-15T10:26:47Z</time>
      </trkpt>
      <trkpt lat="50.06403" lon="5.103">
        <ele>220</ele>
        <time>2015-03-15T10:26:53Z</time>
      </trkpt>
      <trkpt lat="50.06396" lon="5.10297">
        <ele>221</ele>
        <time>2015-03-15T10:26:59Z</time>
      </trkpt>
      <trkpt lat="50.06392" lon="5.10293">
        <ele>222</ele>
        <time>2015-03-15T10:27:04Z</time>
      </trkpt>
      <trkpt lat="50.06386" lon="5.1029">
        <ele>222</ele>
        <time>2015-03-15T10:27:09Z</time>
      </trkpt>
      <trkpt lat="50.0638" lon="5.10285">
        <ele>222</ele>
        <time>2015-03-15T10:27:15Z</time>
      </trkpt>
      <trkpt lat="50.06374" lon="5.10281">
        <ele>223</ele>
        <time>2015-03-15T10:27:20Z</time>
      </trkpt>
      <trkpt lat="50.06367" lon="5.10277">
        <ele>223</ele>
        <time>2015-03-15T10:27:25Z</time>
      </trkpt>
      <trkpt lat="50.06361" lon="5.10273">
        <ele>223</ele>
        <time>2015-03-15T10:27:31Z</time>
      </trkpt>
      <trkpt lat="50.06356" lon="5.10269">
        <ele>223</ele>
        <time>2015-03-15T10:27:37Z</time>
      </trkpt>
      <trkpt lat="50.0635" lon="5.10264">
        <ele>224</ele>
        <time>2015-03-15T10:27:43Z</time>
      </trkpt>
      <trkpt lat="50.06344" lon="5.1026">
        <ele>225</ele>
        <time>2015-03-15T10:27:48Z</time>
      </trkpt>
      <trkpt lat="50.06335" lon="5.10255">
        <ele>225</ele>
        <time>2015-03-15T10:27:54Z</time>
      </trkpt>
      <trkpt lat="50.06328" lon="5.1025">
        <ele>225</ele>
        <time>2015-03-15T10:28:00Z</time>
      </trkpt>
      <trkpt lat="50.06321" lon="5.10246">
        <ele>226</ele>
        <time>2015-03-15T10:28:06Z</time>
      </trkpt>
      <trkpt lat="50.06317" lon="5.10242">
        <ele>226</ele>
        <time>2015-03-15T10:28:12Z</time>
      </trkpt>
      <trkpt lat="50.06311" lon="5.10239">
        <ele>227</ele>
        <time>2015-03-15T10:28:18Z</time>
      </trkpt>
      <trkpt lat="50.06304" lon="5.10234">
        <ele>227</ele>
        <time>2015-03-15T10:28:24Z</time>
      </trkpt>
      <trkpt lat="50.06298" lon="5.10231">
        <ele>228</ele>
        <time>2015-03-15T10:28:29Z</time>
      </trkpt>
      <trkpt lat="50.06292" lon="5.10229">
        <ele>228</ele>
        <time>2015-03-15T10:28:34Z</time>
      </trkpt>
      <trkpt lat="50.06285" lon="5.10226">
        <ele>229</ele>
        <time>2015-03-15T10:28:40Z</time>
      </trkpt>
      <trkpt lat="50.06277" lon="5.10225">
        <ele>229</ele>
        <time>2015-03-15T10:28:45Z</time>
      </trkpt>
      <trkpt lat="50.0627" lon="5.10224">
        <ele>229</ele>
        <time>2015-03-15T10:28:51Z</time>
      </trkpt>
      <trkpt lat="50.06264" lon="5.10223">
        <ele>230</ele>
        <time>2015-03-15T10:28:57Z</time>
      </trkpt>
      <trkpt lat="50.06255" lon="5.10221">
        <ele>230</ele>
        <time>2015-03-15T10:29:03Z</time>
      </trkpt>
      <trkpt lat="50.06247" lon="5.10219">
        <ele>230</ele>
        <time>2015-03-15T10:29:09Z</time>
      </trkpt>
      <trkpt lat="50.06242" lon="5.10218">
        <ele>230</ele>
        <time>2015-03-15T10:29:14Z</time>
      </trkpt>
      <trkpt lat="50.06237" lon="5.10215">
        <ele>230</ele>
        <time>2015-03-15T10:29:20Z</time>
      </trkpt>
      <trkpt lat="50.06231" lon="5.10215">
        <ele>231</ele>
        <time>2015-03-15T10:29:26Z</time>
      </trkpt>
      <trkpt lat="50.06227" lon="5.10213">
        <ele>231</ele>
        <time>2015-03-15T10:29:31Z</time>
      </trkpt>
      <trkpt lat="50.06224" lon="5.1021">
        <ele>232</ele>
        <time>2015-03-15T10:29:37Z</time>
      </trkpt>
      <trkpt lat="50.0622" lon="5.10209">
        <ele>232</ele>
        <time>2015-03-15T10:29:43Z</time>
      </trkpt>
      <trkpt lat="50.06217" lon="5.10208">
        <ele>232</ele>
        <time>2015-03-15T10:29:48Z</time>
      </trkpt>
      <trkpt lat="50.06213" lon="5.10204">
        <ele>233</ele>
        <time>2015-03-15T10:29:54Z</time>
      </trkpt>
      <trkpt lat="50.06209" lon="5.10202">
        <ele>233</ele>
        <time>2015-03-15T10:30:00Z</time>
      </trkpt>
      <trkpt lat="50.06204" lon="5.10202">
        <ele>233</ele>
        <time>2015-03-15T10:30:06Z</time>
      </trkpt>
      <trkpt lat="50.062" lon="5.102">
        <ele>233</ele>
        <time>2015-03-15T10:30:12Z</time>
      </trkpt>
      <trkpt lat="50.06195" lon="5.10198">
        <ele>234</ele>
        <time>2015-03-15T10:30:17Z</time>
      </trkpt>
      <trkpt lat="50.06186" lon="5.10198">
        <ele>234</ele>
        <time>2015-03-15T10:30:23Z</time>
      </trkpt>
      <trkpt lat="50.0618" lon="5.10198">
        <ele>234</ele>
        <time>2015-03-15T10:30:28Z</time>
      </trkpt>
      <trkpt lat="50.06174" lon="5.10199">
        <ele>234</ele>
        <time>2015-03-15T10:30:34Z</time>
      </trkpt>
      <trkpt lat="50.06169" lon="5.10201">
        <ele>235</ele>
        <time>2015-03-15T10:30:39Z</time>
      </trkpt>
      <trkpt lat="50.06166" lon="5.10204">
        <ele>235</ele>
        <time>2015-03-15T10:30:44Z</time>
      </trkpt>
      <trkpt lat="50.06161" lon="5.10209">
        <ele>236</ele>
        <time>2015-03-15T10:30:49Z</time>
      </trkpt>
      <trkpt lat="50.06157" lon="5.10214">
        <ele>237</ele>
        <time>2015-03-15T10:30:55Z</time>
      </trkpt>
      <trkpt lat="50.06151" lon="5.1022">
        <ele>238</ele>
        <time>2015-03-15T10:31:01Z</time>
      </trkpt>
      <trkpt lat="50.06147" lon="5.10225">
        <ele>239</ele>
        <time>2015-03-15T10:31:07Z</time>
      </trkpt>
      <trkpt lat="50.06144" lon="5.10229">
        <ele>239</ele>
        <time>2015-03-15T10:31:12Z</time>
      </trkpt>
      <trkpt lat="50.06142" lon="5.10233">
        <ele>239</ele>
        <time>2015-03-15T10:31:17Z</time>
      </trkpt>
      <trkpt lat="50.06137" lon="5.10239">
        <ele>240</ele>
        <time>2015-03-15T10:31:23Z</time>
      </trkpt>
      <trkpt lat="50.06136" lon="5.10245">
        <ele>241</ele>
        <time>2015-03-15T10:31:28Z</time>
      </trkpt>
      <trkpt lat="50.06135" lon="5.10252">
        <ele>242</ele>
        <time>2015-03-15T10:31:34Z</time>
      </trkpt>
      <trkpt lat="50.06135" lon="5.10258">
        <ele>242</ele>
        <time>2015-03-15T10:31:39Z</time>
      </trkpt>
      <trkpt lat="50.06135" lon="5.10264">
        <ele>243</ele>
        <time>2015-03-15T10:31:44Z</time>
      </trkpt>
      <trkpt lat="50.06134" lon="5.10273">
        <ele>244</ele>
        <time>2015-03-15T10:31:50Z</time>
      </trkpt>
      <trkpt lat="50.06131" lon="5.10279">
        <ele>245</ele>
        <time>2015-03-15T10:31:56Z</time>
      </trkpt>
      <trkpt lat="50.06129" lon="5.10285">
        <ele>245</ele>
        <time>2015-03-15T10:32:01Z</time>
      </trkpt>
      <trkpt lat="50.06127" lon="5.10294">
        <ele>245</ele>
        <time>2015-03-15T10:32:07Z</time>
      </trkpt>
      <trkpt lat="50.06124" lon="5.10304">
        <ele>246</ele>
        <time>2015-03-15T10:32:13Z</time>
      </trkpt>
      <trkpt lat="50.06121" lon="5.10314">
        <ele>247</ele>
        <time>2015-03-15T10:32:19Z</time>
      </trkpt>
      <trkpt lat="50.06119" lon="5.10321">
        <ele>248</ele>
        <time>2015-03-15T10:32:24Z</time>
      </trkpt>
      <trkpt lat="50.06118" lon="5.10331">
        <ele>249</ele>
        <time>2015-03-15T10:32:30Z</time>
      </trkpt>
      <trkpt lat="50.06117" lon="5.1034">
        <ele>249</ele>
        <time>2015-03-15T10:32:35Z</time>
      </trkpt>
      <trkpt lat="50.06117" lon="5.10347">
        <ele>249</ele>
        <time>2015-03-15T10:32:40Z</time>
      </trkpt>
      <trkpt lat="50.06116" lon="5.10353">
        <ele>249</ele>
        <time>2015-03-15T10:32:45Z</time>
      </trkpt>
      <trkpt lat="50.06117" lon="5.10357">
        <ele>249</ele>
        <time>2015-03-15T10:32:50Z</time>
      </trkpt>
      <trkpt lat="50.06113" lon="5.10359">
        <ele>249</ele>
        <time>2015-03-15T10:32:55Z</time>
      </trkpt>
      <trkpt lat="50.0611" lon="5.10359">
        <ele>249</ele>
        <time>2015-03-15T10:33:01Z</time>
      </trkpt>
      <trkpt lat="50.06108" lon="5.10357">
        <ele>250</ele>
        <time>2015-03-15T10:33:07Z</time>
      </trkpt>
      <trkpt lat="50.06104" lon="5.10353">
        <ele>250</ele>
        <time>2015-03-15T10:33:12Z</time>
      </trkpt>
      <trkpt lat="50.06099" lon="5.10351">
        <ele>250</ele>
        <time>2015-03-15T10:33:18Z</time>
      </trkpt>
      <trkpt lat="50.06092" lon="5.1035">
        <ele>251</ele>
        <time>2015-03-15T10:33:23Z</time>
      </trkpt>
      <trkpt lat="50.06086" lon="5.1035">
        <ele>251</ele>
        <time>2015-03-15T10:33:29Z</time>
      </trkpt>
      <trkpt lat="50.06078" lon="5.10349">
        <ele>251</ele>
        <time>2015-03-15T10:33:35Z</time>
      </trkpt>
      <trkpt lat="50.0607" lon="5.10348">
        <ele>251</ele>
        <time>2015-03-15T10:33:41Z</time>
      </trkpt>
      <trkpt lat="50.06063" lon="5.10347">
        <ele>252</ele>
        <time>2015-03-15T10:33:46Z</time>
      </trkpt>
      <trkpt lat="50.06057" lon="5.10346">
        <ele>252</ele>
        <time>2015-03-15T10:33:52Z</time>
      </trkpt>
      <trkpt lat="50.06049" lon="5.10344">
        <ele>253</ele>
        <time>2015-03-15T10:33:58Z</time>
      </trkpt>
      <trkpt lat="50.06043" lon="5.1034">
        <ele>253</ele>
        <time>2015-03-15T10:34:04Z</time>
      </trkpt>
      <trkpt lat="50.06038" lon="5.10337">
        <ele>253</ele>
        <time>2015-03-15T10:34:09Z</time>
      </trkpt>
      <trkpt lat="50.06031" lon="5.10332">
        <ele>254</ele>
        <time>2015-03-15T10:34:14Z</time>
      </trkpt>
      <trkpt lat="50.06025" lon="5.10327">
        <ele>254</ele>
        <time>2015-03-15T10:34:20Z</time>
      </trkpt>
      <trkpt lat="50.0602" lon="5.10323">
        <ele>255</ele>
        <time>2015-03-15T10:34:25Z</time>
      </trkpt>
      <trkpt lat="50.06017" lon="5.10319">
        <ele>255</ele>
        <time>2015-03-15T10:34:31Z</time>
      </trkpt>
      <trkpt lat="50.06013" lon="5.10318">
        <ele>255</ele>
        <time>2015-03-15T10:34:36Z</time>
      </trkpt>
      <trkpt lat="50.0601" lon="5.10317">
        <ele>255</ele>
        <time>2015-03-15T10:34:42Z</time>
      </trkpt>
      <trkpt lat="50.06003" lon="5.10316">
        <ele>256</ele>
        <time>2015-03-15T10:34:48Z</time>
      </trkpt>
      <trkpt lat="50.05998" lon="5.10311">
        <ele>257</ele>
        <time>2015-03-15T10:34:54Z</time>
      </trkpt>
      <trkpt lat="50.05994" lon="5.10304">
        <ele>257</ele>
        <time>2015-03-15T10:35:00Z</time>
      </trkpt>
      <trkpt lat="50.05992" lon="5.10296">
        <ele>257</ele>
        <time>2015-03-15T10:35:05Z</time>
      </trkpt>
      <trkpt lat="50.0599" lon="5.10288">
        <ele>257</ele>
        <time>2015-03-15T10:35:11Z</time>
      </trkpt>
      <trkpt lat="50.05989" lon="5.10284">
        <ele>257</ele>
        <time>2015-03-15T10:35:16Z</time>
      </trkpt>
      <trkpt lat="50.05988" lon="5.1028">
        <ele>257</ele>
        <time>2015-03-15T10:35:21Z</time>
      </trkpt>
      <trkpt lat="50.05986" lon="5.10274">
        <ele>257</ele>
        <time>2015-03-15T10:35:26Z</time>
      </trkpt>
      <trkpt lat="50.05982" lon="5.10267">
        <ele>258</ele>
        <time>2015-03-15T10:35:32Z</time>
      </trkpt>
      <trkpt lat="50.05979" lon="5.10261">
        <ele>258</ele>
        <time>2015-03-15T10:35:37Z</time>
      </trkpt>
      <trkpt lat="50.05976" lon="5.10254">
        <ele>258</ele>
        <time>2015-03-15T10:35:42Z</time>
      </trkpt>
      <trkpt lat="50.05972" lon="5.10246">
        <ele>259</ele>
        <time>2015-03-15T10:35:48Z</time>
      </trkpt>
      <trkpt lat="50.05966" lon="5.1024">
        <ele>259</ele>
        <time>2015-03-15T10:35:53Z</time>
      </trkpt>
      <trkpt lat="50.05963" lon="5.10233">
        <ele>259</ele>
        <time>2015-03-15T10:35:59Z</time>
      </trkpt>
      <trkpt lat="50.0596" lon="5.10225">
        <ele>260</ele>
        <time>2015-03-15T10:36:04Z</time>
      </trkpt>
      <trkpt lat="50.05954" lon="5.10216">
        <ele>261</ele>
        <time>2015-03-15T10:36:10Z</time>
      </trkpt>
      <trkpt lat="50.05949" lon="5.10208">
        <ele>261</ele>
        <time>2015-03-15T10:36:16Z</time>
      </trkpt>
      <trkpt lat="50.05944" lon="5.10203">
        <ele>262</ele>
        <time>2015-03-15T10:36:21Z</time>
      </trkpt>
      <trkpt lat="50.0594" lon="5.10195">
        <ele>262</ele>
        <time>2015-03-15T10:36:26Z</time>
      </trkpt>
      <trkpt lat="50.05935" lon="5.10185">
        <ele>263</ele>
        <time>2015-03-15T10:36:32Z</time>
      </trkpt>
      <trkpt lat="50.05929" lon="5.10176">
        <ele>263</ele>
        <time>2015-03-15T10:36:38Z</time>
      </trkpt>
      <trkpt lat="50.05926" lon="5.10168">
        <ele>263</ele>
        <time>2015-03-15T10:36:43Z</time>
      </trkpt>
      <trkpt lat="50.0592" lon="5.1016">
        <ele>263</ele>
        <time>2015-03-15T10:36:49Z</time>
      </trkpt>
      <trkpt lat="50.05917" lon="5.10151">
        <ele>264</ele>
        <time>2015-03-15T10:36:54Z</time>
      </trkpt>
      <trkpt lat="50.05912" lon="5.10141">
        <ele>265</ele>
        <time>2015-03-15T10:36:59Z</time>
      </trkpt>
      <trkpt lat="50.05907" lon="5.10133">
        <ele>265</ele>
        <time>2015-03-15T10:37:05Z</time>
      </trkpt>
      <trkpt lat="50.05902" lon="5.10124">
        <ele>265</ele>
        <time>2015-03-15T10:37:11Z</time>
      </trkpt>
      <trkpt lat="50.05897" lon="5.10114">
        <ele>266</ele>
        <time>2015-03-15T10:37:17Z</time>
      </trkpt>
      <trkpt lat="50.05892" lon="5.10105">
        <ele>266</ele>
        <time>2015-03-15T10:37:23Z</time>
      </trkpt>
      <trkpt lat="50.05887" lon="5.10099">
        <ele>267</ele>
        <time>2015-03-15T10:37:28Z</time>
      </trkpt>
      <trkpt lat="50.05882" lon="5.10089">
        <ele>268</ele>
        <time>2015-03-15T10:37:33Z</time>
      </trkpt>
      <trkpt lat="50.05877" lon="5.10081">
        <ele>268</ele>
        <time>2015-03-15T10:37:39Z</time>
      </trkpt>
      <trkpt lat="50.05872" lon="5.10074">
        <ele>268</ele>
        <time>2015-03-15T10:37:45Z</time>
      </trkpt>
      <trkpt lat="50.05869" lon="5.10065">
        <ele>268</ele>
        <time>2015-03-15T10:37:50Z</time>
      </trkpt>
      <trkpt lat="50.05864" lon="5.10055">
        <ele>269</ele>
        <time>2015-03-15T10:37:56Z</time>
      </trkpt>
      <trkpt lat="50.05859" lon="5.10045">
        <ele>269</ele>
        <time>2015-03-15T10:38:02Z</time>
      </trkpt>
      <trkpt lat="50.05853" lon="5.10035">
        <ele>269</ele>
        <time>2015-03-15T10:38:07Z</time>
      </trkpt>
      <trkpt lat="50.05849" lon="5.10027">
        <ele>270</ele>
        <time>2015-03-15T10:38:13Z</time>
      </trkpt>
      <trkpt lat="50.05843" lon="5.10017">
        <ele>270</ele>
        <time>2015-03-15T10:38:19Z</time>
      </trkpt>
      <trkpt lat="50.05837" lon="5.10007">
        <ele>270</ele>
        <time>2015-03-15T10:38:25Z</time>
      </trkpt>
      <trkpt lat="50.05832" lon="5.09998">
        <ele>270</ele>
        <time>2015-03-15T10:38:31Z</time>
      </trkpt>
      <trkpt lat="50.05826" lon="5.09987">
        <ele>271</ele>
        <time>2015-03-15T10:38:36Z</time>
      </trkpt>
      <trkpt lat="50.05822" lon="5.0998">
        <ele>271</ele>
        <time>2015-03-15T10:38:41Z</time>
      </trkpt>
      <trkpt lat="50.05821" lon="5.09977">
        <ele>271</ele>
        <time>2015-03-15T10:38:48Z</time>
      </trkpt>
      <trkpt lat="50.0582" lon="5.09974">
        <ele>271</ele>
        <time>2015-03-15T10:38:53Z</time>
      </trkpt>
      <trkpt lat="50.05817" lon="5.09969">
        <ele>271</ele>
        <time>2015-03-15T10:38:59Z</time>
      </trkpt>
      <trkpt lat="50.05812" lon="5.09962">
        <ele>271</ele>
        <time>2015-03-15T10:39:05Z</time>
      </trkpt>
      <trkpt lat="50.05807" lon="5.09954">
        <ele>271</ele>
        <time>2015-03-15T10:39:10Z</time>
      </trkpt>
      <trkpt lat="50.05803" lon="5.09947">
        <ele>272</ele>
        <time>2015-03-15T10:39:16Z</time>
      </trkpt>
      <trkpt lat="50.05799" lon="5.09939">
        <ele>272</ele>
        <time>2015-03-15T10:39:21Z</time>
      </trkpt>
      <trkpt lat="50.05795" lon="5.09931">
        <ele>272</ele>
        <time>2015-03-15T10:39:26Z</time>
      </trkpt>
      <trkpt lat="50.0579" lon="5.09924">
        <ele>273</ele>
        <time>2015-03-15T10:39:32Z</time>
      </trkpt>
      <trkpt lat="50.05788" lon="5.09923">
        <ele>273</ele>
        <time>2015-03-15T10:39:38Z</time>
      </trkpt>
      <trkpt lat="50.05785" lon="5.09918">
        <ele>273</ele>
        <time>2015-03-15T10:39:44Z</time>
      </trkpt>
      <trkpt lat="50.05783" lon="5.09911">
        <ele>273</ele>
        <time>2015-03-15T10:39:49Z</time>
      </trkpt>
      <trkpt lat="50.0578" lon="5.09904">
        <ele>273</ele>
        <time>2015-03-15T10:39:54Z</time>
      </trkpt>
      <trkpt lat="50.05777" lon="5.09898">
        <ele>274</ele>
        <time>2015-03-15T10:40:00Z</time>
      </trkpt>
      <trkpt lat="50.05774" lon="5.0989">
        <ele>274</ele>
        <time>2015-03-15T10:40:06Z</time>
      </trkpt>
      <trkpt lat="50.05769" lon="5.09883">
        <ele>274</ele>
        <time>2015-03-15T10:40:11Z</time>
      </trkpt>
      <trkpt lat="50.05766" lon="5.09876">
        <ele>274</ele>
        <time>2015-03-15T10:40:16Z</time>
      </trkpt>
      <trkpt lat="50.05762" lon="5.09869">
        <ele>274</ele>
        <time>2015-03-15T10:40:21Z</time>
      </trkpt>
      <trkpt lat="50.05758" lon="5.09864">
        <ele>275</ele>
        <time>2015-03-15T10:40:27Z</time>
      </trkpt>
      <trkpt lat="50.05753" lon="5.09857">
        <ele>275</ele>
        <time>2015-03-15T10:40:32Z</time>
      </trkpt>
      <trkpt lat="50.05747" lon="5.09849">
        <ele>275</ele>
        <time>2015-03-15T10:40:38Z</time>
      </trkpt>
      <trkpt lat="50.05743" lon="5.0984">
        <ele>275</ele>
        <time>2015-03-15T10:40:43Z</time>
      </trkpt>
      <trkpt lat="50.05738" lon="5.09832">
        <ele>276</ele>
        <time>2015-03-15T10:40:48Z</time>
      </trkpt>
      <trkpt lat="50.05733" lon="5.09823">
        <ele>276</ele>
        <time>2015-03-15T10:40:54Z</time>
      </trkpt>
      <trkpt lat="50.05727" lon="5.09813">
        <ele>276</ele>
        <time>2015-03-15T10:40:59Z</time>
      </trkpt>
      <trkpt lat="50.05721" lon="5.09803">
        <ele>276</ele>
        <time>2015-03-15T10:41:05Z</time>
      </trkpt>
      <trkpt lat="50.05717" lon="5.09797">
        <ele>276</ele>
        <time>2015-03-15T10:41:10Z</time>
      </trkpt>
      <trkpt lat="50.05715" lon="5.09793">
        <ele>277</ele>
        <time>2015-03-15T10:41:16Z</time>
      </trkpt>
      <trkpt lat="50.05711" lon="5.09788">
        <ele>276</ele>
        <time>2015-03-15T10:41:22Z</time>
      </trkpt>
      <trkpt lat="50.05709" lon="5.09787">
        <ele>276</ele>
        <time>2015-03-15T10:41:27Z</time>
      </trkpt>
      <trkpt lat="50.05708" lon="5.09787">
        <ele>276</ele>
        <time>2015-03-15T10:41:32Z</time>
      </trkpt>
      <trkpt lat="50.05705" lon="5.09784">
        <ele>276</ele>
        <time>2015-03-15T10:41:38Z</time>
      </trkpt>
      <trkpt lat="50.05701" lon="5.09777">
        <ele>276</ele>
        <time>2015-03-15T10:41:43Z</time>
      </trkpt>
      <trkpt lat="50.05699" lon="5.09773">
        <ele>276</ele>
        <time>2015-03-15T10:41:48Z</time>
      </trkpt>
      <trkpt lat="50.05696" lon="5.09769">
        <ele>277</ele>
        <time>2015-03-15T10:41:53Z</time>
      </trkpt>
      <trkpt lat="50.05695" lon="5.09761">
        <ele>277</ele>
        <time>2015-03-15T10:42:00Z</time>
      </trkpt>
      <trkpt lat="50.05692" lon="5.09751">
        <ele>277</ele>
        <time>2015-03-15T10:42:06Z</time>
      </trkpt>
      <trkpt lat="50.05687" lon="5.09741">
        <ele>277</ele>
        <time>2015-03-15T10:42:11Z</time>
      </trkpt>
      <trkpt lat="50.05682" lon="5.09734">
        <ele>277</ele>
        <time>2015-03-15T10:42:16Z</time>
      </trkpt>
      <trkpt lat="50.0568" lon="5.09733">
        <ele>277</ele>
        <time>2015-03-15T10:42:21Z</time>
      </trkpt>
      <trkpt lat="50.05677" lon="5.09731">
        <ele>277</ele>
        <time>2015-03-15T10:42:28Z</time>
      </trkpt>
      <trkpt lat="50.05674" lon="5.09731">
        <ele>277</ele>
        <time>2015-03-15T10:42:33Z</time>
      </trkpt>
      <trkpt lat="50.05671" lon="5.09731">
        <ele>277</ele>
        <time>2015-03-15T10:42:38Z</time>
      </trkpt>
      <trkpt lat="50.0567" lon="5.09731">
        <ele>277</ele>
        <time>2015-03-15T10:42:44Z</time>
      </trkpt>
      <trkpt lat="50.05669" lon="5.09731">
        <ele>277</ele>
        <time>2015-03-15T10:42:51Z</time>
      </trkpt>
      <trkpt lat="50.05669" lon="5.09731">
        <ele>277</ele>
        <time>2015-03-15T10:42:56Z</time>
      </trkpt>
      <trkpt lat="50.05669" lon="5.09729">
        <ele>277</ele>
        <time>2015-03-15T10:43:02Z</time>
      </trkpt>
      <trkpt lat="50.05672" lon="5.09727">
        <ele>277</ele>
        <time>2015-03-15T10:43:07Z</time>
      </trkpt>
      <trkpt lat="50.05673" lon="5.09721">
        <ele>276</ele>
        <time>2015-03-15T10:43:12Z</time>
      </trkpt>
      <trkpt lat="50.05671" lon="5.09713">
        <ele>277</ele>
        <time>2015-03-15T10:43:18Z</time>
      </trkpt>
      <trkpt lat="50.05668" lon="5.09702">
        <ele>277</ele>
        <time>2015-03-15T10:43:24Z</time>
      </trkpt>
      <trkpt lat="50.05664" lon="5.09693">
        <ele>277</ele>
        <time>2015-03-15T10:43:30Z</time>
      </trkpt>
      <trkpt lat="50.05659" lon="5.09686">
        <ele>277</ele>
        <time>2015-03-15T10:43:35Z</time>
      </trkpt>
      <trkpt lat="50.05653" lon="5.0968">
        <ele>277</ele>
        <time>2015-03-15T10:43:42Z</time>
      </trkpt>
      <trkpt lat="50.05647" lon="5.09673">
        <ele>277</ele>
        <time>2015-03-15T10:43:47Z</time>
      </trkpt>
      <trkpt lat="50.0564" lon="5.09667">
        <ele>277</ele>
        <time>2015-03-15T10:43:53Z</time>
      </trkpt>
      <trkpt lat="50.05633" lon="5.09659">
        <ele>277</ele>
        <time>2015-03-15T10:43:58Z</time>
      </trkpt>
      <trkpt lat="50.05627" lon="5.09654">
        <ele>277</ele>
        <time>2015-03-15T10:44:04Z</time>
      </trkpt>
      <trkpt lat="50.05621" lon="5.09646">
        <ele>277</ele>
        <time>2015-03-15T10:44:09Z</time>
      </trkpt>
      <trkpt lat="50.05613" lon="5.0964">
        <ele>277</ele>
        <time>2015-03-15T10:44:14Z</time>
      </trkpt>
      <trkpt lat="50.05608" lon="5.09633">
        <ele>277</ele>
        <time>2015-03-15T10:44:19Z</time>
      </trkpt>
      <trkpt lat="50.05603" lon="5.09628">
        <ele>278</ele>
        <time>2015-03-15T10:44:25Z</time>
      </trkpt>
      <trkpt lat="50.05597" lon="5.0962">
        <ele>277</ele>
        <time>2015-03-15T10:44:31Z</time>
      </trkpt>
      <trkpt lat="50.0559" lon="5.09613">
        <ele>277</ele>
        <time>2015-03-15T10:44:36Z</time>
      </trkpt>
      <trkpt lat="50.05585" lon="5.09607">
        <ele>277</ele>
        <time>2015-03-15T10:44:42Z</time>
      </trkpt>
      <trkpt lat="50.05581" lon="5.096">
        <ele>277</ele>
        <time>2015-03-15T10:44:47Z</time>
      </trkpt>
      <trkpt lat="50.05574" lon="5.09595">
        <ele>277</ele>
        <time>2015-03-15T10:44:52Z</time>
      </trkpt>
      <trkpt lat="50.05568" lon="5.09589">
        <ele>277</ele>
        <time>2015-03-15T10:44:58Z</time>
      </trkpt>
      <trkpt lat="50.05561" lon="5.09583">
        <ele>278</ele>
        <time>2015-03-15T10:45:03Z</time>
      </trkpt>
      <trkpt lat="50.05556" lon="5.09578">
        <ele>278</ele>
        <time>2015-03-15T10:45:09Z</time>
      </trkpt>
      <trkpt lat="50.0555" lon="5.09574">
        <ele>278</ele>
        <time>2015-03-15T10:45:14Z</time>
      </trkpt>
      <trkpt lat="50.05544" lon="5.09569">
        <ele>278</ele>
        <time>2015-03-15T10:45:19Z</time>
      </trkpt>
      <trkpt lat="50.05539" lon="5.09565">
        <ele>278</ele>
        <time>2015-03-15T10:45:25Z</time>
      </trkpt>
      <trkpt lat="50.05533" lon="5.09561">
        <ele>278</ele>
        <time>2015-03-15T10:45:31Z</time>
      </trkpt>
      <trkpt lat="50.05529" lon="5.09558">
        <ele>279</ele>
        <time>2015-03-15T10:45:36Z</time>
      </trkpt>
      <trkpt lat="50.05527" lon="5.09557">
        <ele>279</ele>
        <time>2015-03-15T10:45:41Z</time>
      </trkpt>
      <trkpt lat="50.05523" lon="5.09552">
        <ele>278</ele>
        <time>2015-03-15T10:45:48Z</time>
      </trkpt>
      <trkpt lat="50.05519" lon="5.0955">
        <ele>279</ele>
        <time>2015-03-15T10:45:53Z</time>
      </trkpt>
      <trkpt lat="50.05513" lon="5.09542">
        <ele>278</ele>
        <time>2015-03-15T10:45:59Z</time>
      </trkpt>
      <trkpt lat="50.05507" lon="5.09536">
        <ele>279</ele>
        <time>2015-03-15T10:46:05Z</time>
      </trkpt>
      <trkpt lat="50.055" lon="5.0953">
        <ele>279</ele>
        <time>2015-03-15T10:46:11Z</time>
      </trkpt>
      <trkpt lat="50.05494" lon="5.09524">
        <ele>279</ele>
        <time>2015-03-15T10:46:16Z</time>
      </trkpt>
      <trkpt lat="50.05489" lon="5.0952">
        <ele>279</ele>
        <time>2015-03-15T10:46:21Z</time>
      </trkpt>
      <trkpt lat="50.05484" lon="5.09516">
        <ele>279</ele>
        <time>2015-03-15T10:46:27Z</time>
      </trkpt>
      <trkpt lat="50.05479" lon="5.09512">
        <ele>279</ele>
        <time>2015-03-15T10:46:32Z</time>
      </trkpt>
      <trkpt lat="50.05474" lon="5.09507">
        <ele>279</ele>
        <time>2015-03-15T10:46:37Z</time>
      </trkpt>
      <trkpt lat="50.05468" lon="5.09501">
        <ele>279</ele>
        <time>2015-03-15T10:46:44Z</time>
      </trkpt>
      <trkpt lat="50.05462" lon="5.09496">
        <ele>279</ele>
        <time>2015-03-15T10:46:50Z</time>
      </trkpt>
      <trkpt lat="50.05457" lon="5.09491">
        <ele>279</ele>
        <time>2015-03-15T10:46:55Z</time>
      </trkpt>
      <trkpt lat="50.05451" lon="5.09486">
        <ele>279</ele>
        <time>2015-03-15T10:47:00Z</time>
      </trkpt>
      <trkpt lat="50.05445" lon="5.09481">
        <ele>279</ele>
        <time>2015-03-15T10:47:06Z</time>
      </trkpt>
      <trkpt lat="50.05439" lon="5.09478">
        <ele>279</ele>
        <time>2015-03-15T10:47:11Z</time>
      </trkpt>
      <trkpt lat="50.05433" lon="5.09473">
        <ele>279</ele>
        <time>2015-03-15T10:47:16Z</time>
      </trkpt>
      <trkpt lat="50.05427" lon="5.09468">
        <ele>279</ele>
        <time>2015-03-15T10:47:21Z</time>
      </trkpt>
      <trkpt lat="50.05421" lon="5.09464">
        <ele>279</ele>
        <time>2015-03-15T10:47:28Z</time>
      </trkpt>
      <trkpt lat="50.05415" lon="5.09458">
        <ele>279</ele>
        <time>2015-03-15T10:47:34Z</time>
      </trkpt>
      <trkpt lat="50.0541" lon="5.09455">
        <ele>279</ele>
        <time>2015-03-15T10:47:39Z</time>
      </trkpt>
      <trkpt lat="50.05405" lon="5.0945">
        <ele>280</ele>
        <time>2015-03-15T10:47:45Z</time>
      </trkpt>
      <trkpt lat="50.05401" lon="5.09449">
        <ele>279</ele>
        <time>2015-03-15T10:47:51Z</time>
      </trkpt>
      <trkpt lat="50.05401" lon="5.09447">
        <ele>279</ele>
        <time>2015-03-15T10:47:56Z</time>
      </trkpt>
      <trkpt lat="50.05401" lon="5.09445">
        <ele>279</ele>
        <time>2015-03-15T10:48:02Z</time>
      </trkpt>
      <trkpt lat="50.05401" lon="5.09443">
        <ele>279</ele>
        <time>2015-03-15T10:48:07Z</time>
      </trkpt>
      <trkpt lat="50.05397" lon="5.09439">
        <ele>279</ele>
        <time>2015-03-15T10:48:12Z</time>
      </trkpt>
      <trkpt lat="50.05392" lon="5.09435">
        <ele>279</ele>
        <time>2015-03-15T10:48:17Z</time>
      </trkpt>
      <trkpt lat="50.05388" lon="5.09433">
        <ele>279</ele>
        <time>2015-03-15T10:48:24Z</time>
      </trkpt>
      <trkpt lat="50.05382" lon="5.09427">
        <ele>279</ele>
        <time>2015-03-15T10:48:30Z</time>
      </trkpt>
      <trkpt lat="50.05378" lon="5.09422">
        <ele>279</ele>
        <time>2015-03-15T10:48:35Z</time>
      </trkpt>
      <trkpt lat="50.05375" lon="5.09416">
        <ele>279</ele>
        <time>2015-03-15T10:48:40Z</time>
      </trkpt>
      <trkpt lat="50.05371" lon="5.09413">
        <ele>279</ele>
        <time>2015-03-15T10:48:46Z</time>
      </trkpt>
      <trkpt lat="50.05369" lon="5.09405">
        <ele>279</ele>
        <time>2015-03-15T10:48:51Z</time>
      </trkpt>
      <trkpt lat="50.05367" lon="5.09398">
        <ele>279</ele>
        <time>2015-03-15T10:48:57Z</time>
      </trkpt>
      <trkpt lat="50.05366" lon="5.09389">
        <ele>279</ele>
        <time>2015-03-15T10:49:02Z</time>
      </trkpt>
      <trkpt lat="50.05365" lon="5.0938">
        <ele>279</ele>
        <time>2015-03-15T10:49:07Z</time>
      </trkpt>
      <trkpt lat="50.05364" lon="5.09369">
        <ele>279</ele>
        <time>2015-03-15T10:49:14Z</time>
      </trkpt>
      <trkpt lat="50.05365" lon="5.0936">
        <ele>278</ele>
        <time>2015-03-15T10:49:20Z</time>
      </trkpt>
      <trkpt lat="50.05365" lon="5.0935">
        <ele>278</ele>
        <time>2015-03-15T10:49:26Z</time>
      </trkpt>
      <trkpt lat="50.05364" lon="5.0934">
        <ele>278</ele>
        <time>2015-03-15T10:49:31Z</time>
      </trkpt>
      <trkpt lat="50.05363" lon="5.09332">
        <ele>278</ele>
        <time>2015-03-15T10:49:36Z</time>
      </trkpt>
      <trkpt lat="50.05363" lon="5.09323">
        <ele>278</ele>
        <time>2015-03-15T10:49:42Z</time>
      </trkpt>
      <trkpt lat="50.05363" lon="5.09312">
        <ele>278</ele>
        <time>2015-03-15T10:49:47Z</time>
      </trkpt>
      <trkpt lat="50.05362" lon="5.093">
        <ele>278</ele>
        <time>2015-03-15T10:49:53Z</time>
      </trkpt>
      <trkpt lat="50.05362" lon="5.09291">
        <ele>278</ele>
        <time>2015-03-15T10:49:58Z</time>
      </trkpt>
      <trkpt lat="50.05362" lon="5.09281">
        <ele>277</ele>
        <time>2015-03-15T10:50:04Z</time>
      </trkpt>
      <trkpt lat="50.05362" lon="5.09271">
        <ele>277</ele>
        <time>2015-03-15T10:50:09Z</time>
      </trkpt>
      <trkpt lat="50.05363" lon="5.09262">
        <ele>277</ele>
        <time>2015-03-15T10:50:14Z</time>
      </trkpt>
      <trkpt lat="50.05363" lon="5.09254">
        <ele>276</ele>
        <time>2015-03-15T10:50:19Z</time>
      </trkpt>
      <trkpt lat="50.05362" lon="5.09243">
        <ele>276</ele>
        <time>2015-03-15T10:50:24Z</time>
      </trkpt>
      <trkpt lat="50.05362" lon="5.09234">
        <ele>276</ele>
        <time>2015-03-15T10:50:29Z</time>
      </trkpt>
      <trkpt lat="50.05362" lon="5.09221">
        <ele>275</ele>
        <time>2015-03-15T10:50:36Z</time>
      </trkpt>
      <trkpt lat="50.05362" lon="5.09209">
        <ele>275</ele>
        <time>2015-03-15T10:50:42Z</time>
      </trkpt>
      <trkpt lat="50.0536" lon="5.09199">
        <ele>275</ele>
        <time>2015-03-15T10:50:47Z</time>
      </trkpt>
      <trkpt lat="50.05354" lon="5.09193">
        <ele>274</ele>
        <time>2015-03-15T10:50:52Z</time>
      </trkpt>
      <trkpt lat="50.05348" lon="5.0919">
        <ele>274</ele>
        <time>2015-03-15T10:50:57Z</time>
      </trkpt>
      <trkpt lat="50.05343" lon="5.09188">
        <ele>274</ele>
        <time>2015-03-15T10:51:03Z</time>
      </trkpt>
      <trkpt lat="50.05337" lon="5.09186">
        <ele>275</ele>
        <time>2015-03-15T10:51:09Z</time>
      </trkpt>
      <trkpt lat="50.05331" lon="5.09183">
        <ele>275</ele>
        <time>2015-03-15T10:51:14Z</time>
      </trkpt>
      <trkpt lat="50.05324" lon="5.09179">
        <ele>274</ele>
        <time>2015-03-15T10:51:19Z</time>
      </trkpt>
      <trkpt lat="50.05319" lon="5.09176">
        <ele>274</ele>
        <time>2015-03-15T10:51:24Z</time>
      </trkpt>
      <trkpt lat="50.05314" lon="5.09171">
        <ele>274</ele>
        <time>2015-03-15T10:51:31Z</time>
      </trkpt>
      <trkpt lat="50.05309" lon="5.09168">
        <ele>274</ele>
        <time>2015-03-15T10:51:36Z</time>
      </trkpt>
      <trkpt lat="50.05302" lon="5.09165">
        <ele>274</ele>
        <time>2015-03-15T10:51:41Z</time>
      </trkpt>
      <trkpt lat="50.05297" lon="5.09167">
        <ele>274</ele>
        <time>2015-03-15T10:51:47Z</time>
      </trkpt>
      <trkpt lat="50.05296" lon="5.09168">
        <ele>274</ele>
        <time>2015-03-15T10:51:52Z</time>
      </trkpt>
      <trkpt lat="50.05294" lon="5.09168">
        <ele>274</ele>
        <time>2015-03-15T10:51:59Z</time>
      </trkpt>
      <trkpt lat="50.05293" lon="5.09165">
        <ele>274</ele>
        <time>2015-03-15T10:52:04Z</time>
      </trkpt>
      <trkpt lat="50.05288" lon="5.09164">
        <ele>274</ele>
        <time>2015-03-15T10:52:09Z</time>
      </trkpt>
      <trkpt lat="50.05284" lon="5.09161">
        <ele>274</ele>
        <time>2015-03-15T10:52:14Z</time>
      </trkpt>
      <trkpt lat="50.0528" lon="5.09158">
        <ele>273</ele>
        <time>2015-03-15T10:52:20Z</time>
      </trkpt>
      <trkpt lat="50.05273" lon="5.09156">
        <ele>273</ele>
        <time>2015-03-15T10:52:26Z</time>
      </trkpt>
      <trkpt lat="50.05267" lon="5.09157">
        <ele>273</ele>
        <time>2015-03-15T10:52:31Z</time>
      </trkpt>
      <trkpt lat="50.05263" lon="5.09158">
        <ele>273</ele>
        <time>2015-03-15T10:52:36Z</time>
      </trkpt>
      <trkpt lat="50.05261" lon="5.09158">
        <ele>273</ele>
        <time>2015-03-15T10:52:41Z</time>
      </trkpt>
      <trkpt lat="50.05259" lon="5.09155">
        <ele>273</ele>
        <time>2015-03-15T10:52:47Z</time>
      </trkpt>
      <trkpt lat="50.05254" lon="5.09152">
        <ele>273</ele>
        <time>2015-03-15T10:52:53Z</time>
      </trkpt>
      <trkpt lat="50.0525" lon="5.09152">
        <ele>272</ele>
        <time>2015-03-15T10:52:58Z</time>
      </trkpt>
      <trkpt lat="50.05245" lon="5.0915">
        <ele>272</ele>
        <time>2015-03-15T10:53:03Z</time>
      </trkpt>
      <trkpt lat="50.05242" lon="5.09149">
        <ele>271</ele>
        <time>2015-03-15T10:53:08Z</time>
      </trkpt>
      <trkpt lat="50.05237" lon="5.09147">
        <ele>271</ele>
        <time>2015-03-15T10:53:14Z</time>
      </trkpt>
      <trkpt lat="50.05233" lon="5.09146">
        <ele>271</ele>
        <time>2015-03-15T10:53:19Z</time>
      </trkpt>
      <trkpt lat="50.05229" lon="5.09144">
        <ele>270</ele>
        <time>2015-03-15T10:53:24Z</time>
      </trkpt>
      <trkpt lat="50.05225" lon="5.09143">
        <ele>270</ele>
        <time>2015-03-15T10:53:31Z</time>
      </trkpt>
      <trkpt lat="50.05221" lon="5.09142">
        <ele>270</ele>
        <time>2015-03-15T10:53:36Z</time>
      </trkpt>
      <trkpt lat="50.05214" lon="5.0914">
        <ele>269</ele>
        <time>2015-03-15T10:53:42Z</time>
      </trkpt>
      <trkpt lat="50.05209" lon="5.09139">
        <ele>269</ele>
        <time>2015-03-15T10:53:48Z</time>
      </trkpt>
      <trkpt lat="50.05205" lon="5.09139">
        <ele>269</ele>
        <time>2015-03-15T10:53:53Z</time>
      </trkpt>
      <trkpt lat="50.05202" lon="5.09138">
        <ele>269</ele>
        <time>2015-03-15T10:53:59Z</time>
      </trkpt>
      <trkpt lat="50.05197" lon="5.09136">
        <ele>268</ele>
        <time>2015-03-15T10:54:04Z</time>
      </trkpt>
      <trkpt lat="50.05191" lon="5.09135">
        <ele>268</ele>
        <time>2015-03-15T10:54:10Z</time>
      </trkpt>
      <trkpt lat="50.05186" lon="5.09133">
        <ele>267</ele>
        <time>2015-03-15T10:54:15Z</time>
      </trkpt>
      <trkpt lat="50.0518" lon="5.09134">
        <ele>266</ele>
        <time>2015-03-15T10:54:21Z</time>
      </trkpt>
      <trkpt lat="50.05173" lon="5.09133">
        <ele>266</ele>
        <time>2015-03-15T10:54:26Z</time>
      </trkpt>
      <trkpt lat="50.05168" lon="5.0913">
        <ele>266</ele>
        <time>2015-03-15T10:54:31Z</time>
      </trkpt>
      <trkpt lat="50.05165" lon="5.09128">
        <ele>265</ele>
        <time>2015-03-15T10:54:37Z</time>
      </trkpt>
      <trkpt lat="50.05161" lon="5.09125">
        <ele>265</ele>
        <time>2015-03-15T10:54:43Z</time>
      </trkpt>
      <trkpt lat="50.05158" lon="5.09122">
        <ele>265</ele>
        <time>2015-03-15T10:54:49Z</time>
      </trkpt>
      <trkpt lat="50.05158" lon="5.09121">
        <ele>265</ele>
        <time>2015-03-15T10:54:54Z</time>
      </trkpt>
      <trkpt lat="50.05158" lon="5.09123">
        <ele>265</ele>
        <time>2015-03-15T10:55:00Z</time>
      </trkpt>
      <trkpt lat="50.05159" lon="5.09128">
        <ele>265</ele>
        <time>2015-03-15T10:55:05Z</time>
      </trkpt>
      <trkpt lat="50.05163" lon="5.09129">
        <ele>265</ele>
        <time>2015-03-15T10:55:11Z</time>
      </trkpt>
      <trkpt lat="50.05167" lon="5.09128">
        <ele>266</ele>
        <time>2015-03-15T10:55:16Z</time>
      </trkpt>
      <trkpt lat="50.05164" lon="5.09128">
        <ele>266</ele>
        <time>2015-03-15T10:55:21Z</time>
      </trkpt>
      <trkpt lat="50.0516" lon="5.09127">
        <ele>265</ele>
        <time>2015-03-15T10:55:27Z</time>
      </trkpt>
      <trkpt lat="50.05157" lon="5.09127">
        <ele>266</ele>
        <time>2015-03-15T10:55:32Z</time>
      </trkpt>
      <trkpt lat="50.05152" lon="5.09127">
        <ele>265</ele>
        <time>2015-03-15T10:55:39Z</time>
      </trkpt>
      <trkpt lat="50.05148" lon="5.09125">
        <ele>264</ele>
        <time>2015-03-15T10:55:45Z</time>
      </trkpt>
      <trkpt lat="50.0514" lon="5.09119">
        <ele>264</ele>
        <time>2015-03-15T10:55:50Z</time>
      </trkpt>
      <trkpt lat="50.05138" lon="5.09117">
        <ele>264</ele>
        <time>2015-03-15T10:55:55Z</time>
      </trkpt>
      <trkpt lat="50.05133" lon="5.09117">
        <ele>263</ele>
        <time>2015-03-15T10:56:02Z</time>
      </trkpt>
      <trkpt lat="50.05125" lon="5.09117">
        <ele>262</ele>
        <time>2015-03-15T10:56:07Z</time>
      </trkpt>
      <trkpt lat="50.0512" lon="5.09116">
        <ele>262</ele>
        <time>2015-03-15T10:56:13Z</time>
      </trkpt>
      <trkpt lat="50.05115" lon="5.09115">
        <ele>262</ele>
        <time>2015-03-15T10:56:18Z</time>
      </trkpt>
      <trkpt lat="50.05109" lon="5.09114">
        <ele>261</ele>
        <time>2015-03-15T10:56:24Z</time>
      </trkpt>
      <trkpt lat="50.05104" lon="5.09112">
        <ele>261</ele>
        <time>2015-03-15T10:56:29Z</time>
      </trkpt>
      <trkpt lat="50.05096" lon="5.09111">
        <ele>260</ele>
        <time>2015-03-15T10:56:34Z</time>
      </trkpt>
      <trkpt lat="50.05091" lon="5.09108">
        <ele>260</ele>
        <time>2015-03-15T10:56:39Z</time>
      </trkpt>
      <trkpt lat="50.05085" lon="5.09107">
        <ele>260</ele>
        <time>2015-03-15T10:56:45Z</time>
      </trkpt>
      <trkpt lat="50.05078" lon="5.09104">
        <ele>260</ele>
        <time>2015-03-15T10:56:50Z</time>
      </trkpt>
      <trkpt lat="50.05071" lon="5.09103">
        <ele>259</ele>
        <time>2015-03-15T10:56:55Z</time>
      </trkpt>
      <trkpt lat="50.05065" lon="5.09103">
        <ele>259</ele>
        <time>2015-03-15T10:57:01Z</time>
      </trkpt>
      <trkpt lat="50.05061" lon="5.09104">
        <ele>259</ele>
        <time>2015-03-15T10:57:06Z</time>
      </trkpt>
      <trkpt lat="50.05058" lon="5.09104">
        <ele>258</ele>
        <time>2015-03-15T10:57:11Z</time>
      </trkpt>
      <trkpt lat="50.05052" lon="5.09103">
        <ele>258</ele>
        <time>2015-03-15T10:57:17Z</time>
      </trkpt>
      <trkpt lat="50.05047" lon="5.091">
        <ele>258</ele>
        <time>2015-03-15T10:57:22Z</time>
      </trkpt>
      <trkpt lat="50.05042" lon="5.091">
        <ele>257</ele>
        <time>2015-03-15T10:57:27Z</time>
      </trkpt>
      <trkpt lat="50.05037" lon="5.09099">
        <ele>257</ele>
        <time>2015-03-15T10:57:33Z</time>
      </trkpt>
      <trkpt lat="50.05032" lon="5.09098">
        <ele>256</ele>
        <time>2015-03-15T10:57:38Z</time>
      </trkpt>
      <trkpt lat="50.05027" lon="5.09098">
        <ele>256</ele>
        <time>2015-03-15T10:57:44Z</time>
      </trkpt>
      <trkpt lat="50.05019" lon="5.09097">
        <ele>256</ele>
        <time>2015-03-15T10:57:50Z</time>
      </trkpt>
      <trkpt lat="50.05012" lon="5.09096">
        <ele>256</ele>
        <time>2015-03-15T10:57:55Z</time>
      </trkpt>
      <trkpt lat="50.05007" lon="5.09096">
        <ele>255</ele>
        <time>2015-03-15T10:58:01Z</time>
      </trkpt>
      <trkpt lat="50.05005" lon="5.09092">
        <ele>255</ele>
        <time>2015-03-15T10:58:07Z</time>
      </trkpt>
      <trkpt lat="50.05001" lon="5.0909">
        <ele>256</ele>
        <time>2015-03-15T10:58:14Z</time>
      </trkpt>
      <trkpt lat="50.04996" lon="5.09091">
        <ele>255</ele>
        <time>2015-03-15T10:58:19Z</time>
      </trkpt>
      <trkpt lat="50.04991" lon="5.09091">
        <ele>255</ele>
        <time>2015-03-15T10:58:24Z</time>
      </trkpt>
      <trkpt lat="50.04984" lon="5.0909">
        <ele>254</ele>
        <time>2015-03-15T10:58:30Z</time>
      </trkpt>
      <trkpt lat="50.04978" lon="5.09089">
        <ele>254</ele>
        <time>2015-03-15T10:58:35Z</time>
      </trkpt>
      <trkpt lat="50.04974" lon="5.09088">
        <ele>255</ele>
        <time>2015-03-15T10:58:41Z</time>
      </trkpt>
      <trkpt lat="50.04971" lon="5.09087">
        <ele>254</ele>
        <time>2015-03-15T10:58:46Z</time>
      </trkpt>
      <trkpt lat="50.0497" lon="5.09085">
        <ele>254</ele>
        <time>2015-03-15T10:58:51Z</time>
      </trkpt>
      <trkpt lat="50.04969" lon="5.09081">
        <ele>255</ele>
        <time>2015-03-15T10:58:57Z</time>
      </trkpt>
      <trkpt lat="50.04964" lon="5.09078">
        <ele>254</ele>
        <time>2015-03-15T10:59:02Z</time>
      </trkpt>
      <trkpt lat="50.0496" lon="5.09078">
        <ele>254</ele>
        <time>2015-03-15T10:59:07Z</time>
      </trkpt>
      <trkpt lat="50.04957" lon="5.09077">
        <ele>254</ele>
        <time>2015-03-15T10:59:13Z</time>
      </trkpt>
      <trkpt lat="50.04952" lon="5.09079">
        <ele>254</ele>
        <time>2015-03-15T10:59:18Z</time>
      </trkpt>
      <trkpt lat="50.04946" lon="5.09079">
        <ele>254</ele>
        <time>2015-03-15T10:59:25Z</time>
      </trkpt>
      <trkpt lat="50.04945" lon="5.09079">
        <ele>254</ele>
        <time>2015-03-15T10:59:30Z</time>
      </trkpt>
      <trkpt lat="50.04944" lon="5.0908">
        <ele>254</ele>
        <time>2015-03-15T10:59:36Z</time>
      </trkpt>
      <trkpt lat="50.04943" lon="5.0908">
        <ele>253</ele>
        <time>2015-03-15T10:59:41Z</time>
      </trkpt>
      <trkpt lat="50.04953" lon="5.09044">
        <ele>252</ele>
        <time>2015-03-15T10:59:46Z</time>
      </trkpt>
      <trkpt lat="50.04951" lon="5.09041">
        <ele>252</ele>
        <time>2015-03-15T10:59:52Z</time>
      </trkpt>
      <trkpt lat="50.04953" lon="5.09045">
        <ele>251</ele>
        <time>2015-03-15T10:59:57Z</time>
      </trkpt>
      <trkpt lat="50.04951" lon="5.09042">
        <ele>251</ele>
        <time>2015-03-15T11:00:03Z</time>
      </trkpt>
      <trkpt lat="50.04953" lon="5.09035">
        <ele>252</ele>
        <time>2015-03-15T11:00:08Z</time>
      </trkpt>
      <trkpt lat="50.04955" lon="5.09027">
        <ele>251</ele>
        <time>2015-03-15T11:00:13Z</time>
      </trkpt>
      <trkpt lat="50.04955" lon="5.09018">
        <ele>251</ele>
        <time>2015-03-15T11:00:18Z</time>
      </trkpt>
      <trkpt lat="50.04956" lon="5.09009">
        <ele>251</ele>
        <time>2015-03-15T11:00:23Z</time>
      </trkpt>
      <trkpt lat="50.04958" lon="5.08998">
        <ele>250</ele>
        <time>2015-03-15T11:00:29Z</time>
      </trkpt>
      <trkpt lat="50.04961" lon="5.08992">
        <ele>249</ele>
        <time>2015-03-15T11:00:35Z</time>
      </trkpt>
      <trkpt lat="50.04965" lon="5.08989">
        <ele>249</ele>
        <time>2015-03-15T11:00:41Z</time>
      </trkpt>
      <trkpt lat="50.04969" lon="5.08984">
        <ele>249</ele>
        <time>2015-03-15T11:00:47Z</time>
      </trkpt>
      <trkpt lat="50.04972" lon="5.08978">
        <ele>249</ele>
        <time>2015-03-15T11:00:52Z</time>
      </trkpt>
      <trkpt lat="50.04977" lon="5.08968">
        <ele>248</ele>
        <time>2015-03-15T11:00:58Z</time>
      </trkpt>
      <trkpt lat="50.04982" lon="5.08958">
        <ele>247</ele>
        <time>2015-03-15T11:01:04Z</time>
      </trkpt>
      <trkpt lat="50.04985" lon="5.0895">
        <ele>247</ele>
        <time>2015-03-15T11:01:09Z</time>
      </trkpt>
      <trkpt lat="50.04987" lon="5.08942">
        <ele>246</ele>
        <time>2015-03-15T11:01:14Z</time>
      </trkpt>
      <trkpt lat="50.04989" lon="5.08931">
        <ele>246</ele>
        <time>2015-03-15T11:01:20Z</time>
      </trkpt>
      <trkpt lat="50.04991" lon="5.08926">
        <ele>246</ele>
        <time>2015-03-15T11:01:26Z</time>
      </trkpt>
      <trkpt lat="50.04995" lon="5.08923">
        <ele>246</ele>
        <time>2015-03-15T11:01:32Z</time>
      </trkpt>
      <trkpt lat="50.04998" lon="5.08918">
        <ele>246</ele>
        <time>2015-03-15T11:01:37Z</time>
      </trkpt>
      <trkpt lat="50.04999" lon="5.08913">
        <ele>245</ele>
        <time>2015-03-15T11:01:43Z</time>
      </trkpt>
      <trkpt lat="50.05002" lon="5.08908">
        <ele>245</ele>
        <time>2015-03-15T11:01:49Z</time>
      </trkpt>
      <trkpt lat="50.05006" lon="5.08903">
        <ele>245</ele>
        <time>2015-03-15T11:01:54Z</time>
      </trkpt>
      <trkpt lat="50.05007" lon="5.08897">
        <ele>245</ele>
        <time>2015-03-15T11:02:00Z</time>
      </trkpt>
      <trkpt lat="50.05007" lon="5.08888">
        <ele>245</ele>
        <time>2015-03-15T11:02:06Z</time>
      </trkpt>
      <trkpt lat="50.05006" lon="5.08881">
        <ele>244</ele>
        <time>2015-03-15T11:02:11Z</time>
      </trkpt>
      <trkpt lat="50.05004" lon="5.08872">
        <ele>244</ele>
        <time>2015-03-15T11:02:17Z</time>
      </trkpt>
      <trkpt lat="50.05003" lon="5.08863">
        <ele>243</ele>
        <time>2015-03-15T11:02:22Z</time>
      </trkpt>
      <trkpt lat="50.05005" lon="5.08856">
        <ele>243</ele>
        <time>2015-03-15T11:02:27Z</time>
      </trkpt>
      <trkpt lat="50.05006" lon="5.08847">
        <ele>242</ele>
        <time>2015-03-15T11:02:33Z</time>
      </trkpt>
      <trkpt lat="50.05006" lon="5.08838">
        <ele>242</ele>
        <time>2015-03-15T11:02:38Z</time>
      </trkpt>
      <trkpt lat="50.05008" lon="5.0883">
        <ele>242</ele>
        <time>2015-03-15T11:02:44Z</time>
      </trkpt>
      <trkpt lat="50.0501" lon="5.08821">
        <ele>241</ele>
        <time>2015-03-15T11:02:50Z</time>
      </trkpt>
      <trkpt lat="50.05014" lon="5.08814">
        <ele>241</ele>
        <time>2015-03-15T11:02:55Z</time>
      </trkpt>
      <trkpt lat="50.05018" lon="5.08807">
        <ele>241</ele>
        <time>2015-03-15T11:03:01Z</time>
      </trkpt>
      <trkpt lat="50.05021" lon="5.08798">
        <ele>240</ele>
        <time>2015-03-15T11:03:07Z</time>
      </trkpt>
      <trkpt lat="50.05024" lon="5.08789">
        <ele>240</ele>
        <time>2015-03-15T11:03:13Z</time>
      </trkpt>
      <trkpt lat="50.05028" lon="5.0878">
        <ele>239</ele>
        <time>2015-03-15T11:03:19Z</time>
      </trkpt>
      <trkpt lat="50.05031" lon="5.08776">
        <ele>238</ele>
        <time>2015-03-15T11:03:24Z</time>
      </trkpt>
      <trkpt lat="50.05035" lon="5.08772">
        <ele>238</ele>
        <time>2015-03-15T11:03:29Z</time>
      </trkpt>
      <trkpt lat="50.05039" lon="5.08766">
        <ele>238</ele>
        <time>2015-03-15T11:03:34Z</time>
      </trkpt>
      <trkpt lat="50.05041" lon="5.0876">
        <ele>237</ele>
        <time>2015-03-15T11:03:40Z</time>
      </trkpt>
      <trkpt lat="50.05044" lon="5.08756">
        <ele>237</ele>
        <time>2015-03-15T11:03:46Z</time>
      </trkpt>
      <trkpt lat="50.05046" lon="5.0875">
        <ele>237</ele>
        <time>2015-03-15T11:03:52Z</time>
      </trkpt>
      <trkpt lat="50.05048" lon="5.08745">
        <ele>236</ele>
        <time>2015-03-15T11:03:58Z</time>
      </trkpt>
      <trkpt lat="50.05048" lon="5.08738">
        <ele>236</ele>
        <time>2015-03-15T11:04:03Z</time>
      </trkpt>
      <trkpt lat="50.05046" lon="5.08735">
        <ele>235</ele>
        <time>2015-03-15T11:04:08Z</time>
      </trkpt>
      <trkpt lat="50.05043" lon="5.08729">
        <ele>235</ele>
        <time>2015-03-15T11:04:14Z</time>
      </trkpt>
      <trkpt lat="50.05041" lon="5.08724">
        <ele>234</ele>
        <time>2015-03-15T11:04:19Z</time>
      </trkpt>
      <trkpt lat="50.05039" lon="5.08716">
        <ele>233</ele>
        <time>2015-03-15T11:04:25Z</time>
      </trkpt>
      <trkpt lat="50.05038" lon="5.08711">
        <ele>233</ele>
        <time>2015-03-15T11:04:30Z</time>
      </trkpt>
      <trkpt lat="50.0504" lon="5.08705">
        <ele>232</ele>
        <time>2015-03-15T11:04:36Z</time>
      </trkpt>
      <trkpt lat="50.05041" lon="5.08698">
        <ele>231</ele>
        <time>2015-03-15T11:04:42Z</time>
      </trkpt>
      <trkpt lat="50.05042" lon="5.08688">
        <ele>230</ele>
        <time>2015-03-15T11:04:48Z</time>
      </trkpt>
      <trkpt lat="50.0504" lon="5.08678">
        <ele>230</ele>
        <time>2015-03-15T11:04:53Z</time>
      </trkpt>
      <trkpt lat="50.0504" lon="5.08664">
        <ele>230</ele>
        <time>2015-03-15T11:04:59Z</time>
      </trkpt>
      <trkpt lat="50.05044" lon="5.08658">
        <ele>229</ele>
        <time>2015-03-15T11:05:05Z</time>
      </trkpt>
      <trkpt lat="50.05048" lon="5.0865">
        <ele>228</ele>
        <time>2015-03-15T11:05:11Z</time>
      </trkpt>
      <trkpt lat="50.05052" lon="5.08643">
        <ele>227</ele>
        <time>2015-03-15T11:05:17Z</time>
      </trkpt>
      <trkpt lat="50.05057" lon="5.08637">
        <ele>227</ele>
        <time>2015-03-15T11:05:23Z</time>
      </trkpt>
      <trkpt lat="50.05059" lon="5.08632">
        <ele>227</ele>
        <time>2015-03-15T11:05:29Z</time>
      </trkpt>
      <trkpt lat="50.05055" lon="5.08634">
        <ele>227</ele>
        <time>2015-03-15T11:05:35Z</time>
      </trkpt>
      <trkpt lat="50.0505" lon="5.08638">
        <ele>228</ele>
        <time>2015-03-15T11:05:40Z</time>
      </trkpt>
      <trkpt lat="50.05045" lon="5.08644">
        <ele>228</ele>
        <time>2015-03-15T11:05:46Z</time>
      </trkpt>
      <trkpt lat="50.05039" lon="5.0865">
        <ele>229</ele>
        <time>2015-03-15T11:05:51Z</time>
      </trkpt>
      <trkpt lat="50.05037" lon="5.08655">
        <ele>230</ele>
        <time>2015-03-15T11:05:56Z</time>
      </trkpt>
      <trkpt lat="50.05036" lon="5.08659">
        <ele>230</ele>
        <time>2015-03-15T11:06:01Z</time>
      </trkpt>
      <trkpt lat="50.05034" lon="5.08663">
        <ele>230</ele>
        <time>2015-03-15T11:06:07Z</time>
      </trkpt>
      <trkpt lat="50.05033" lon="5.08666">
        <ele>230</ele>
        <time>2015-03-15T11:06:13Z</time>
      </trkpt>
      <trkpt lat="50.05032" lon="5.0867">
        <ele>230</ele>
        <time>2015-03-15T11:06:19Z</time>
      </trkpt>
      <trkpt lat="50.05031" lon="5.08671">
        <ele>230</ele>
        <time>2015-03-15T11:06:25Z</time>
      </trkpt>
      <trkpt lat="50.0503" lon="5.08671">
        <ele>229</ele>
        <time>2015-03-15T11:06:30Z</time>
      </trkpt>
      <trkpt lat="50.05031" lon="5.0867">
        <ele>230</ele>
        <time>2015-03-15T11:06:35Z</time>
      </trkpt>
      <trkpt lat="50.05033" lon="5.0867">
        <ele>230</ele>
        <time>2015-03-15T11:06:41Z</time>
      </trkpt>
      <trkpt lat="50.05034" lon="5.0867">
        <ele>230</ele>
        <time>2015-03-15T11:06:47Z</time>
      </trkpt>
      <trkpt lat="50.05036" lon="5.0867">
        <ele>230</ele>
        <time>2015-03-15T11:06:52Z</time>
      </trkpt>
      <trkpt lat="50.05038" lon="5.0867">
        <ele>229</ele>
        <time>2015-03-15T11:06:58Z</time>
      </trkpt>
      <trkpt lat="50.05039" lon="5.08669">
        <ele>230</ele>
        <time>2015-03-15T11:07:04Z</time>
      </trkpt>
      <trkpt lat="50.0504" lon="5.0867">
        <ele>230</ele>
        <time>2015-03-15T11:07:09Z</time>
      </trkpt>
      <trkpt lat="50.05042" lon="5.0867">
        <ele>230</ele>
        <time>2015-03-15T11:07:14Z</time>
      </trkpt>
      <trkpt lat="50.05042" lon="5.08671">
        <ele>230</ele>
        <time>2015-03-15T11:07:22Z</time>
      </trkpt>
      <trkpt lat="50.05043" lon="5.08672">
        <ele>229</ele>
        <time>2015-03-15T11:07:27Z</time>
      </trkpt>
      <trkpt lat="50.05043" lon="5.08673">
        <ele>230</ele>
        <time>2015-03-15T11:07:34Z</time>
      </trkpt>
      <trkpt lat="50.05043" lon="5.08673">
        <ele>230</ele>
        <time>2015-03-15T11:07:40Z</time>
      </trkpt>
      <trkpt lat="50.05044" lon="5.08672">
        <ele>230</ele>
        <time>2015-03-15T11:07:46Z</time>
      </trkpt>
      <trkpt lat="50.05046" lon="5.0867">
        <ele>230</ele>
        <time>2015-03-15T11:07:51Z</time>
      </trkpt>
      <trkpt lat="50.05049" lon="5.08666">
        <ele>229</ele>
        <time>2015-03-15T11:07:57Z</time>
      </trkpt>
      <trkpt lat="50.05055" lon="5.08656">
        <ele>228</ele>
        <time>2015-03-15T11:08:03Z</time>
      </trkpt>
      <trkpt lat="50.05061" lon="5.08651">
        <ele>227</ele>
        <time>2015-03-15T11:08:08Z</time>
      </trkpt>
      <trkpt lat="50.05067" lon="5.08645">
        <ele>227</ele>
        <time>2015-03-15T11:08:13Z</time>
      </trkpt>
      <trkpt lat="50.05072" lon="5.08638">
        <ele>226</ele>
        <time>2015-03-15T11:08:18Z</time>
      </trkpt>
      <trkpt lat="50.05077" lon="5.08631">
        <ele>225</ele>
        <time>2015-03-15T11:08:23Z</time>
      </trkpt>
      <trkpt lat="50.0508" lon="5.08623">
        <ele>225</ele>
        <time>2015-03-15T11:08:29Z</time>
      </trkpt>
      <trkpt lat="50.05086" lon="5.08616">
        <ele>224</ele>
        <time>2015-03-15T11:08:35Z</time>
      </trkpt>
      <trkpt lat="50.0509" lon="5.0861">
        <ele>224</ele>
        <time>2015-03-15T11:08:40Z</time>
      </trkpt>
      <trkpt lat="50.05094" lon="5.08603">
        <ele>223</ele>
        <time>2015-03-15T11:08:45Z</time>
      </trkpt>
      <trkpt lat="50.05102" lon="5.08597">
        <ele>222</ele>
        <time>2015-03-15T11:08:50Z</time>
      </trkpt>
      <trkpt lat="50.05109" lon="5.08592">
        <ele>222</ele>
        <time>2015-03-15T11:08:56Z</time>
      </trkpt>
      <trkpt lat="50.05114" lon="5.08587">
        <ele>222</ele>
        <time>2015-03-15T11:09:02Z</time>
      </trkpt>
      <trkpt lat="50.05119" lon="5.08581">
        <ele>221</ele>
        <time>2015-03-15T11:09:07Z</time>
      </trkpt>
      <trkpt lat="50.05126" lon="5.08576">
        <ele>220</ele>
        <time>2015-03-15T11:09:13Z</time>
      </trkpt>
      <trkpt lat="50.05133" lon="5.0857">
        <ele>220</ele>
        <time>2015-03-15T11:09:19Z</time>
      </trkpt>
      <trkpt lat="50.0514" lon="5.08565">
        <ele>219</ele>
        <time>2015-03-15T11:09:25Z</time>
      </trkpt>
      <trkpt lat="50.05145" lon="5.08561">
        <ele>219</ele>
        <time>2015-03-15T11:09:30Z</time>
      </trkpt>
      <trkpt lat="50.05151" lon="5.08556">
        <ele>218</ele>
        <time>2015-03-15T11:09:36Z</time>
      </trkpt>
      <trkpt lat="50.05157" lon="5.08553">
        <ele>218</ele>
        <time>2015-03-15T11:09:41Z</time>
      </trkpt>
      <trkpt lat="50.05166" lon="5.0855">
        <ele>217</ele>
        <time>2015-03-15T11:09:47Z</time>
      </trkpt>
      <trkpt lat="50.05171" lon="5.08547">
        <ele>217</ele>
        <time>2015-03-15T11:09:52Z</time>
      </trkpt>
      <trkpt lat="50.05178" lon="5.08546">
        <ele>217</ele>
        <time>2015-03-15T11:09:58Z</time>
      </trkpt>
      <trkpt lat="50.05189" lon="5.08544">
        <ele>217</ele>
        <time>2015-03-15T11:10:04Z</time>
      </trkpt>
      <trkpt lat="50.05197" lon="5.08543">
        <ele>216</ele>
        <time>2015-03-15T11:10:09Z</time>
      </trkpt>
      <trkpt lat="50.05204" lon="5.08544">
        <ele>216</ele>
        <time>2015-03-15T11:10:14Z</time>
      </trkpt>
      <trkpt lat="50.05214" lon="5.08545">
        <ele>216</ele>
        <time>2015-03-15T11:10:20Z</time>
      </trkpt>
      <trkpt lat="50.05222" lon="5.08552">
        <ele>218</ele>
        <time>2015-03-15T11:10:26Z</time>
      </trkpt>
      <trkpt lat="50.05228" lon="5.08558">
        <ele>219</ele>
        <time>2015-03-15T11:10:31Z</time>
      </trkpt>
      <trkpt lat="50.05236" lon="5.08564">
        <ele>219</ele>
        <time>2015-03-15T11:10:36Z</time>
      </trkpt>
      <trkpt lat="50.05244" lon="5.08567">
        <ele>219</ele>
        <time>2015-03-15T11:10:42Z</time>
      </trkpt>
      <trkpt lat="50.05249" lon="5.08569">
        <ele>219</ele>
        <time>2015-03-15T11:10:47Z</time>
      </trkpt>
      <trkpt lat="50.05256" lon="5.08571">
        <ele>219</ele>
        <time>2015-03-15T11:10:53Z</time>
      </trkpt>
      <trkpt lat="50.05265" lon="5.08571">
        <ele>218</ele>
        <time>2015-03-15T11:10:59Z</time>
      </trkpt>
      <trkpt lat="50.0527" lon="5.08571">
        <ele>218</ele>
        <time>2015-03-15T11:11:04Z</time>
      </trkpt>
      <trkpt lat="50.05276" lon="5.0857">
        <ele>218</ele>
        <time>2015-03-15T11:11:09Z</time>
      </trkpt>
      <trkpt lat="50.05283" lon="5.08568">
        <ele>216</ele>
        <time>2015-03-15T11:11:15Z</time>
      </trkpt>
      <trkpt lat="50.05289" lon="5.08565">
        <ele>215</ele>
        <time>2015-03-15T11:11:20Z</time>
      </trkpt>
      <trkpt lat="50.05298" lon="5.08558">
        <ele>214</ele>
        <time>2015-03-15T11:11:26Z</time>
      </trkpt>
      <trkpt lat="50.05305" lon="5.08549">
        <ele>214</ele>
        <time>2015-03-15T11:11:31Z</time>
      </trkpt>
      <trkpt lat="50.05313" lon="5.08545">
        <ele>213</ele>
        <time>2015-03-15T11:11:36Z</time>
      </trkpt>
      <trkpt lat="50.05321" lon="5.08541">
        <ele>212</ele>
        <time>2015-03-15T11:11:41Z</time>
      </trkpt>
      <trkpt lat="50.0533" lon="5.08535">
        <ele>211</ele>
        <time>2015-03-15T11:11:47Z</time>
      </trkpt>
      <trkpt lat="50.05338" lon="5.08528">
        <ele>210</ele>
        <time>2015-03-15T11:11:52Z</time>
      </trkpt>
      <trkpt lat="50.05344" lon="5.0852">
        <ele>209</ele>
        <time>2015-03-15T11:11:58Z</time>
      </trkpt>
      <trkpt lat="50.05346" lon="5.08515">
        <ele>208</ele>
        <time>2015-03-15T11:12:03Z</time>
      </trkpt>
      <trkpt lat="50.05353" lon="5.0852">
        <ele>208</ele>
        <time>2015-03-15T11:12:09Z</time>
      </trkpt>
      <trkpt lat="50.05357" lon="5.08524">
        <ele>209</ele>
        <time>2015-03-15T11:12:14Z</time>
      </trkpt>
      <trkpt lat="50.05361" lon="5.08531">
        <ele>210</ele>
        <time>2015-03-15T11:12:19Z</time>
      </trkpt>
      <trkpt lat="50.05367" lon="5.08539">
        <ele>211</ele>
        <time>2015-03-15T11:12:25Z</time>
      </trkpt>
      <trkpt lat="50.05371" lon="5.08547">
        <ele>212</ele>
        <time>2015-03-15T11:12:31Z</time>
      </trkpt>
      <trkpt lat="50.05375" lon="5.08555">
        <ele>212</ele>
        <time>2015-03-15T11:12:36Z</time>
      </trkpt>
      <trkpt lat="50.05379" lon="5.08562">
        <ele>213</ele>
        <time>2015-03-15T11:12:41Z</time>
      </trkpt>
      <trkpt lat="50.05382" lon="5.08569">
        <ele>213</ele>
        <time>2015-03-15T11:12:46Z</time>
      </trkpt>
      <trkpt lat="50.05385" lon="5.08575">
        <ele>213</ele>
        <time>2015-03-15T11:12:51Z</time>
      </trkpt>
      <trkpt lat="50.05387" lon="5.08582">
        <ele>215</ele>
        <time>2015-03-15T11:12:56Z</time>
      </trkpt>
      <trkpt lat="50.05389" lon="5.08589">
        <ele>216</ele>
        <time>2015-03-15T11:13:01Z</time>
      </trkpt>
      <trkpt lat="50.05391" lon="5.08599">
        <ele>217</ele>
        <time>2015-03-15T11:13:07Z</time>
      </trkpt>
      <trkpt lat="50.05394" lon="5.08609">
        <ele>218</ele>
        <time>2015-03-15T11:13:13Z</time>
      </trkpt>
      <trkpt lat="50.05396" lon="5.08621">
        <ele>218</ele>
        <time>2015-03-15T11:13:19Z</time>
      </trkpt>
      <trkpt lat="50.05397" lon="5.0863">
        <ele>220</ele>
        <time>2015-03-15T11:13:24Z</time>
      </trkpt>
      <trkpt lat="50.05399" lon="5.08638">
        <ele>221</ele>
        <time>2015-03-15T11:13:29Z</time>
      </trkpt>
      <trkpt lat="50.05402" lon="5.08647">
        <ele>222</ele>
        <time>2015-03-15T11:13:35Z</time>
      </trkpt>
      <trkpt lat="50.05405" lon="5.08656">
        <ele>223</ele>
        <time>2015-03-15T11:13:40Z</time>
      </trkpt>
      <trkpt lat="50.05408" lon="5.08666">
        <ele>225</ele>
        <time>2015-03-15T11:13:46Z</time>
      </trkpt>
      <trkpt lat="50.05411" lon="5.08673">
        <ele>226</ele>
        <time>2015-03-15T11:13:51Z</time>
      </trkpt>
      <trkpt lat="50.05411" lon="5.08683">
        <ele>228</ele>
        <time>2015-03-15T11:13:57Z</time>
      </trkpt>
      <trkpt lat="50.05411" lon="5.08693">
        <ele>229</ele>
        <time>2015-03-15T11:14:03Z</time>
      </trkpt>
      <trkpt lat="50.05409" lon="5.08702">
        <ele>230</ele>
        <time>2015-03-15T11:14:09Z</time>
      </trkpt>
      <trkpt lat="50.05407" lon="5.08712">
        <ele>231</ele>
        <time>2015-03-15T11:14:15Z</time>
      </trkpt>
      <trkpt lat="50.05406" lon="5.08722">
        <ele>233</ele>
        <time>2015-03-15T11:14:21Z</time>
      </trkpt>
      <trkpt lat="50.05406" lon="5.0873">
        <ele>233</ele>
        <time>2015-03-15T11:14:26Z</time>
      </trkpt>
      <trkpt lat="50.05408" lon="5.0874">
        <ele>233</ele>
        <time>2015-03-15T11:14:32Z</time>
      </trkpt>
      <trkpt lat="50.05409" lon="5.0875">
        <ele>234</ele>
        <time>2015-03-15T11:14:38Z</time>
      </trkpt>
      <trkpt lat="50.0541" lon="5.08759">
        <ele>235</ele>
        <time>2015-03-15T11:14:43Z</time>
      </trkpt>
      <trkpt lat="50.05413" lon="5.08771">
        <ele>236</ele>
        <time>2015-03-15T11:14:49Z</time>
      </trkpt>
      <trkpt lat="50.05414" lon="5.0878">
        <ele>236</ele>
        <time>2015-03-15T11:14:54Z</time>
      </trkpt>
      <trkpt lat="50.05415" lon="5.08788">
        <ele>237</ele>
        <time>2015-03-15T11:14:59Z</time>
      </trkpt>
      <trkpt lat="50.05414" lon="5.08796">
        <ele>238</ele>
        <time>2015-03-15T11:15:05Z</time>
      </trkpt>
      <trkpt lat="50.05418" lon="5.08803">
        <ele>239</ele>
        <time>2015-03-15T11:15:11Z</time>
      </trkpt>
      <trkpt lat="50.05422" lon="5.08807">
        <ele>239</ele>
        <time>2015-03-15T11:15:16Z</time>
      </trkpt>
      <trkpt lat="50.05428" lon="5.0881">
        <ele>239</ele>
        <time>2015-03-15T11:15:21Z</time>
      </trkpt>
      <trkpt lat="50.05433" lon="5.08814">
        <ele>238</ele>
        <time>2015-03-15T11:15:27Z</time>
      </trkpt>
      <trkpt lat="50.05437" lon="5.08818">
        <ele>238</ele>
        <time>2015-03-15T11:15:32Z</time>
      </trkpt>
      <trkpt lat="50.05444" lon="5.08823">
        <ele>238</ele>
        <time>2015-03-15T11:15:38Z</time>
      </trkpt>
      <trkpt lat="50.0545" lon="5.08827">
        <ele>238</ele>
        <time>2015-03-15T11:15:43Z</time>
      </trkpt>
      <trkpt lat="50.05455" lon="5.08832">
        <ele>238</ele>
        <time>2015-03-15T11:15:48Z</time>
      </trkpt>
      <trkpt lat="50.05462" lon="5.08835">
        <ele>238</ele>
        <time>2015-03-15T11:15:54Z</time>
      </trkpt>
      <trkpt lat="50.05467" lon="5.08838">
        <ele>238</ele>
        <time>2015-03-15T11:15:59Z</time>
      </trkpt>
      <trkpt lat="50.05472" lon="5.08838">
        <ele>238</ele>
        <time>2015-03-15T11:16:05Z</time>
      </trkpt>
      <trkpt lat="50.05477" lon="5.08838">
        <ele>239</ele>
        <time>2015-03-15T11:16:10Z</time>
      </trkpt>
      <trkpt lat="50.05482" lon="5.08834">
        <ele>238</ele>
        <time>2015-03-15T11:16:16Z</time>
      </trkpt>
      <trkpt lat="50.05487" lon="5.08834">
        <ele>237</ele>
        <time>2015-03-15T11:16:21Z</time>
      </trkpt>
      <trkpt lat="50.05492" lon="5.08834">
        <ele>238</ele>
        <time>2015-03-15T11:16:27Z</time>
      </trkpt>
      <trkpt lat="50.05499" lon="5.08832">
        <ele>238</ele>
        <time>2015-03-15T11:16:33Z</time>
      </trkpt>
      <trkpt lat="50.05505" lon="5.0883">
        <ele>238</ele>
        <time>2015-03-15T11:16:38Z</time>
      </trkpt>
      <trkpt lat="50.05511" lon="5.08829">
        <ele>238</ele>
        <time>2015-03-15T11:16:43Z</time>
      </trkpt>
      <trkpt lat="50.05518" lon="5.08826">
        <ele>237</ele>
        <time>2015-03-15T11:16:49Z</time>
      </trkpt>
      <trkpt lat="50.05523" lon="5.08822">
        <ele>237</ele>
        <time>2015-03-15T11:16:54Z</time>
      </trkpt>
      <trkpt lat="50.0553" lon="5.08819">
        <ele>237</ele>
        <time>2015-03-15T11:16:59Z</time>
      </trkpt>
      <trkpt lat="50.05537" lon="5.08814">
        <ele>236</ele>
        <time>2015-03-15T11:17:04Z</time>
      </trkpt>
      <trkpt lat="50.05543" lon="5.0881">
        <ele>236</ele>
        <time>2015-03-15T11:17:10Z</time>
      </trkpt>
      <trkpt lat="50.05549" lon="5.08807">
        <ele>236</ele>
        <time>2015-03-15T11:17:16Z</time>
      </trkpt>
      <trkpt lat="50.05556" lon="5.08804">
        <ele>235</ele>
        <time>2015-03-15T11:17:22Z</time>
      </trkpt>
      <trkpt lat="50.05561" lon="5.088">
        <ele>235</ele>
        <time>2015-03-15T11:17:27Z</time>
      </trkpt>
      <trkpt lat="50.05568" lon="5.08796">
        <ele>235</ele>
        <time>2015-03-15T11:17:33Z</time>
      </trkpt>
      <trkpt lat="50.05575" lon="5.08793">
        <ele>234</ele>
        <time>2015-03-15T11:17:39Z</time>
      </trkpt>
      <trkpt lat="50.05582" lon="5.0879">
        <ele>233</ele>
        <time>2015-03-15T11:17:45Z</time>
      </trkpt>
      <trkpt lat="50.05588" lon="5.08789">
        <ele>233</ele>
        <time>2015-03-15T11:17:51Z</time>
      </trkpt>
      <trkpt lat="50.05593" lon="5.08789">
        <ele>233</ele>
        <time>2015-03-15T11:17:56Z</time>
      </trkpt>
      <trkpt lat="50.05601" lon="5.08789">
        <ele>233</ele>
        <time>2015-03-15T11:18:02Z</time>
      </trkpt>
      <trkpt lat="50.05608" lon="5.08788">
        <ele>232</ele>
        <time>2015-03-15T11:18:08Z</time>
      </trkpt>
      <trkpt lat="50.05615" lon="5.08786">
        <ele>232</ele>
        <time>2015-03-15T11:18:14Z</time>
      </trkpt>
      <trkpt lat="50.0562" lon="5.08783">
        <ele>231</ele>
        <time>2015-03-15T11:18:19Z</time>
      </trkpt>
      <trkpt lat="50.05625" lon="5.08782">
        <ele>230</ele>
        <time>2015-03-15T11:18:25Z</time>
      </trkpt>
      <trkpt lat="50.05632" lon="5.0878">
        <ele>230</ele>
        <time>2015-03-15T11:18:30Z</time>
      </trkpt>
      <trkpt lat="50.05637" lon="5.08775">
        <ele>230</ele>
        <time>2015-03-15T11:18:36Z</time>
      </trkpt>
      <trkpt lat="50.05642" lon="5.08772">
        <ele>230</ele>
        <time>2015-03-15T11:18:42Z</time>
      </trkpt>
      <trkpt lat="50.05642" lon="5.0877">
        <ele>229</ele>
        <time>2015-03-15T11:18:47Z</time>
      </trkpt>
      <trkpt lat="50.0564" lon="5.08766">
        <ele>229</ele>
        <time>2015-03-15T11:18:53Z</time>
      </trkpt>
      <trkpt lat="50.05636" lon="5.0876">
        <ele>229</ele>
        <time>2015-03-15T11:18:59Z</time>
      </trkpt>
      <trkpt lat="50.05634" lon="5.08759">
        <ele>229</ele>
        <time>2015-03-15T11:19:05Z</time>
      </trkpt>
      <trkpt lat="50.05634" lon="5.08765">
        <ele>230</ele>
        <time>2015-03-15T11:19:11Z</time>
      </trkpt>
      <trkpt lat="50.05635" lon="5.08772">
        <ele>231</ele>
        <time>2015-03-15T11:19:16Z</time>
      </trkpt>
      <trkpt lat="50.05636" lon="5.08782">
        <ele>232</ele>
        <time>2015-03-15T11:19:22Z</time>
      </trkpt>
      <trkpt lat="50.05637" lon="5.08792">
        <ele>232</ele>
        <time>2015-03-15T11:19:28Z</time>
      </trkpt>
      <trkpt lat="50.05637" lon="5.088">
        <ele>233</ele>
        <time>2015-03-15T11:19:33Z</time>
      </trkpt>
      <trkpt lat="50.05637" lon="5.08809">
        <ele>233</ele>
        <time>2015-03-15T11:19:38Z</time>
      </trkpt>
      <trkpt lat="50.05637" lon="5.08819">
        <ele>234</ele>
        <time>2015-03-15T11:19:44Z</time>
      </trkpt>
      <trkpt lat="50.05636" lon="5.08827">
        <ele>235</ele>
        <time>2015-03-15T11:19:49Z</time>
      </trkpt>
      <trkpt lat="50.05635" lon="5.08836">
        <ele>236</ele>
        <time>2015-03-15T11:19:54Z</time>
      </trkpt>
      <trkpt lat="50.05635" lon="5.08846">
        <ele>236</ele>
        <time>2015-03-15T11:20:00Z</time>
      </trkpt>
      <trkpt lat="50.05634" lon="5.08856">
        <ele>238</ele>
        <time>2015-03-15T11:20:06Z</time>
      </trkpt>
      <trkpt lat="50.05635" lon="5.08868">
        <ele>239</ele>
        <time>2015-03-15T11:20:12Z</time>
      </trkpt>
      <trkpt lat="50.05635" lon="5.08877">
        <ele>240</ele>
        <time>2015-03-15T11:20:18Z</time>
      </trkpt>
      <trkpt lat="50.05634" lon="5.08884">
        <ele>241</ele>
        <time>2015-03-15T11:20:23Z</time>
      </trkpt>
      <trkpt lat="50.05633" lon="5.08891">
        <ele>241</ele>
        <time>2015-03-15T11:20:28Z</time>
      </trkpt>
      <trkpt lat="50.05633" lon="5.08898">
        <ele>242</ele>
        <time>2015-03-15T11:20:34Z</time>
      </trkpt>
      <trkpt lat="50.05633" lon="5.08905">
        <ele>243</ele>
        <time>2015-03-15T11:20:39Z</time>
      </trkpt>
      <trkpt lat="50.05633" lon="5.08911">
        <ele>243</ele>
        <time>2015-03-15T11:20:44Z</time>
      </trkpt>
      <trkpt lat="50.05632" lon="5.08918">
        <ele>243</ele>
        <time>2015-03-15T11:20:50Z</time>
      </trkpt>
      <trkpt lat="50.0563" lon="5.08924">
        <ele>244</ele>
        <time>2015-03-15T11:20:55Z</time>
      </trkpt>
      <trkpt lat="50.05629" lon="5.08931">
        <ele>245</ele>
        <time>2015-03-15T11:21:00Z</time>
      </trkpt>
      <trkpt lat="50.05628" lon="5.08941">
        <ele>246</ele>
        <time>2015-03-15T11:21:05Z</time>
      </trkpt>
      <trkpt lat="50.05626" lon="5.08952">
        <ele>247</ele>
        <time>2015-03-15T11:21:11Z</time>
      </trkpt>
      <trkpt lat="50.05626" lon="5.08958">
        <ele>248</ele>
        <time>2015-03-15T11:21:16Z</time>
      </trkpt>
      <trkpt lat="50.05627" lon="5.08965">
        <ele>248</ele>
        <time>2015-03-15T11:21:21Z</time>
      </trkpt>
      <trkpt lat="50.05627" lon="5.08974">
        <ele>249</ele>
        <time>2015-03-15T11:21:26Z</time>
      </trkpt>
      <trkpt lat="50.05627" lon="5.08985">
        <ele>250</ele>
        <time>2015-03-15T11:21:32Z</time>
      </trkpt>
      <trkpt lat="50.05626" lon="5.08998">
        <ele>251</ele>
        <time>2015-03-15T11:21:38Z</time>
      </trkpt>
      <trkpt lat="50.05624" lon="5.09007">
        <ele>252</ele>
        <time>2015-03-15T11:21:43Z</time>
      </trkpt>
      <trkpt lat="50.05622" lon="5.09015">
        <ele>252</ele>
        <time>2015-03-15T11:21:49Z</time>
      </trkpt>
      <trkpt lat="50.05621" lon="5.09022">
        <ele>253</ele>
        <time>2015-03-15T11:21:54Z</time>
      </trkpt>
      <trkpt lat="50.05619" lon="5.09032">
        <ele>253</ele>
        <time>2015-03-15T11:21:59Z</time>
      </trkpt>
      <trkpt lat="50.05619" lon="5.09044">
        <ele>254</ele>
        <time>2015-03-15T11:22:05Z</time>
      </trkpt>
      <trkpt lat="50.05619" lon="5.09053">
        <ele>255</ele>
        <time>2015-03-15T11:22:10Z</time>
      </trkpt>
      <trkpt lat="50.05617" lon="5.09061">
        <ele>256</ele>
        <time>2015-03-15T11:22:15Z</time>
      </trkpt>
      <trkpt lat="50.05618" lon="5.09071">
        <ele>257</ele>
        <time>2015-03-15T11:22:21Z</time>
      </trkpt>
      <trkpt lat="50.05616" lon="5.09082">
        <ele>257</ele>
        <time>2015-03-15T11:22:26Z</time>
      </trkpt>
      <trkpt lat="50.05615" lon="5.09092">
        <ele>258</ele>
        <time>2015-03-15T11:22:32Z</time>
      </trkpt>
      <trkpt lat="50.05615" lon="5.091">
        <ele>259</ele>
        <time>2015-03-15T11:22:37Z</time>
      </trkpt>
      <trkpt lat="50.05614" lon="5.09109">
        <ele>260</ele>
        <time>2015-03-15T11:22:42Z</time>
      </trkpt>
      <trkpt lat="50.05613" lon="5.0912">
        <ele>261</ele>
        <time>2015-03-15T11:22:48Z</time>
      </trkpt>
      <trkpt lat="50.05613" lon="5.09132">
        <ele>262</ele>
        <time>2015-03-15T11:22:54Z</time>
      </trkpt>
      <trkpt lat="50.05612" lon="5.09143">
        <ele>263</ele>
        <time>2015-03-15T11:23:00Z</time>
      </trkpt>
      <trkpt lat="50.05611" lon="5.09152">
        <ele>263</ele>
        <time>2015-03-15T11:23:05Z</time>
      </trkpt>
      <trkpt lat="50.05609" lon="5.09163">
        <ele>264</ele>
        <time>2015-03-15T11:23:11Z</time>
      </trkpt>
      <trkpt lat="50.05607" lon="5.09175">
        <ele>265</ele>
        <time>2015-03-15T11:23:17Z</time>
      </trkpt>
      <trkpt lat="50.05605" lon="5.09185">
        <ele>266</ele>
        <time>2015-03-15T11:23:22Z</time>
      </trkpt>
      <trkpt lat="50.05604" lon="5.09198">
        <ele>266</ele>
        <time>2015-03-15T11:23:28Z</time>
      </trkpt>
      <trkpt lat="50.05605" lon="5.0921">
        <ele>267</ele>
        <time>2015-03-15T11:23:34Z</time>
      </trkpt>
      <trkpt lat="50.05608" lon="5.09214">
        <ele>266</ele>
        <time>2015-03-15T11:23:39Z</time>
      </trkpt>
      <trkpt lat="50.05613" lon="5.09218">
        <ele>266</ele>
        <time>2015-03-15T11:23:45Z</time>
      </trkpt>
      <trkpt lat="50.05619" lon="5.09221">
        <ele>265</ele>
        <time>2015-03-15T11:23:50Z</time>
      </trkpt>
      <trkpt lat="50.05627" lon="5.09224">
        <ele>264</ele>
        <time>2015-03-15T11:23:56Z</time>
      </trkpt>
      <trkpt lat="50.05633" lon="5.09226">
        <ele>264</ele>
        <time>2015-03-15T11:24:01Z</time>
      </trkpt>
      <trkpt lat="50.05642" lon="5.09227">
        <ele>264</ele>
        <time>2015-03-15T11:24:07Z</time>
      </trkpt>
      <trkpt lat="50.05649" lon="5.09228">
        <ele>264</ele>
        <time>2015-03-15T11:24:12Z</time>
      </trkpt>
      <trkpt lat="50.05658" lon="5.09228">
        <ele>263</ele>
        <time>2015-03-15T11:24:18Z</time>
      </trkpt>
      <trkpt lat="50.05667" lon="5.09229">
        <ele>263</ele>
        <time>2015-03-15T11:24:23Z</time>
      </trkpt>
      <trkpt lat="50.05677" lon="5.0923">
        <ele>263</ele>
        <time>2015-03-15T11:24:29Z</time>
      </trkpt>
      <trkpt lat="50.05685" lon="5.09231">
        <ele>263</ele>
        <time>2015-03-15T11:24:34Z</time>
      </trkpt>
      <trkpt lat="50.05692" lon="5.09232">
        <ele>263</ele>
        <time>2015-03-15T11:24:39Z</time>
      </trkpt>
      <trkpt lat="50.057" lon="5.09233">
        <ele>264</ele>
        <time>2015-03-15T11:24:45Z</time>
      </trkpt>
      <trkpt lat="50.05707" lon="5.09233">
        <ele>264</ele>
        <time>2015-03-15T11:24:51Z</time>
      </trkpt>
      <trkpt lat="50.05715" lon="5.09234">
        <ele>264</ele>
        <time>2015-03-15T11:24:57Z</time>
      </trkpt>
      <trkpt lat="50.05723" lon="5.09234">
        <ele>264</ele>
        <time>2015-03-15T11:25:02Z</time>
      </trkpt>
      <trkpt lat="50.05732" lon="5.09235">
        <ele>264</ele>
        <time>2015-03-15T11:25:08Z</time>
      </trkpt>
      <trkpt lat="50.05739" lon="5.09233">
        <ele>265</ele>
        <time>2015-03-15T11:25:13Z</time>
      </trkpt>
      <trkpt lat="50.05749" lon="5.09233">
        <ele>264</ele>
        <time>2015-03-15T11:25:19Z</time>
      </trkpt>
      <trkpt lat="50.05758" lon="5.09232">
        <ele>265</ele>
        <time>2015-03-15T11:25:24Z</time>
      </trkpt>
      <trkpt lat="50.05765" lon="5.09233">
        <ele>265</ele>
        <time>2015-03-15T11:25:29Z</time>
      </trkpt>
      <trkpt lat="50.05773" lon="5.09233">
        <ele>265</ele>
        <time>2015-03-15T11:25:35Z</time>
      </trkpt>
      <trkpt lat="50.05781" lon="5.09232">
        <ele>265</ele>
        <time>2015-03-15T11:25:40Z</time>
      </trkpt>
      <trkpt lat="50.05788" lon="5.0923">
        <ele>266</ele>
        <time>2015-03-15T11:25:46Z</time>
      </trkpt>
      <trkpt lat="50.05794" lon="5.0923">
        <ele>266</ele>
        <time>2015-03-15T11:25:51Z</time>
      </trkpt>
      <trkpt lat="50.05801" lon="5.09229">
        <ele>266</ele>
        <time>2015-03-15T11:25:56Z</time>
      </trkpt>
      <trkpt lat="50.05808" lon="5.09228">
        <ele>266</ele>
        <time>2015-03-15T11:26:01Z</time>
      </trkpt>
      <trkpt lat="50.05817" lon="5.09228">
        <ele>266</ele>
        <time>2015-03-15T11:26:07Z</time>
      </trkpt>
      <trkpt lat="50.05824" lon="5.09226">
        <ele>266</ele>
        <time>2015-03-15T11:26:12Z</time>
      </trkpt>
      <trkpt lat="50.05833" lon="5.09226">
        <ele>266</ele>
        <time>2015-03-15T11:26:18Z</time>
      </trkpt>
      <trkpt lat="50.05842" lon="5.09222">
        <ele>266</ele>
        <time>2015-03-15T11:26:23Z</time>
      </trkpt>
      <trkpt lat="50.0585" lon="5.09213">
        <ele>265</ele>
        <time>2015-03-15T11:26:29Z</time>
      </trkpt>
      <trkpt lat="50.05854" lon="5.09204">
        <ele>265</ele>
        <time>2015-03-15T11:26:34Z</time>
      </trkpt>
      <trkpt lat="50.05857" lon="5.09193">
        <ele>264</ele>
        <time>2015-03-15T11:26:40Z</time>
      </trkpt>
      <trkpt lat="50.05861" lon="5.09181">
        <ele>264</ele>
        <time>2015-03-15T11:26:46Z</time>
      </trkpt>
      <trkpt lat="50.05862" lon="5.0917">
        <ele>264</ele>
        <time>2015-03-15T11:26:51Z</time>
      </trkpt>
      <trkpt lat="50.05864" lon="5.09157">
        <ele>264</ele>
        <time>2015-03-15T11:26:57Z</time>
      </trkpt>
      <trkpt lat="50.05868" lon="5.09145">
        <ele>263</ele>
        <time>2015-03-15T11:27:03Z</time>
      </trkpt>
      <trkpt lat="50.05869" lon="5.09133">
        <ele>262</ele>
        <time>2015-03-15T11:27:08Z</time>
      </trkpt>
      <trkpt lat="50.0587" lon="5.09121">
        <ele>262</ele>
        <time>2015-03-15T11:27:14Z</time>
      </trkpt>
      <trkpt lat="50.05872" lon="5.0911">
        <ele>261</ele>
        <time>2015-03-15T11:27:19Z</time>
      </trkpt>
      <trkpt lat="50.05874" lon="5.09098">
        <ele>260</ele>
        <time>2015-03-15T11:27:25Z</time>
      </trkpt>
      <trkpt lat="50.05874" lon="5.09084">
        <ele>259</ele>
        <time>2015-03-15T11:27:31Z</time>
      </trkpt>
      <trkpt lat="50.05875" lon="5.09073">
        <ele>259</ele>
        <time>2015-03-15T11:27:36Z</time>
      </trkpt>
      <trkpt lat="50.05876" lon="5.09063">
        <ele>258</ele>
        <time>2015-03-15T11:27:41Z</time>
      </trkpt>
      <trkpt lat="50.05876" lon="5.09051">
        <ele>257</ele>
        <time>2015-03-15T11:27:47Z</time>
      </trkpt>
      <trkpt lat="50.05875" lon="5.09039">
        <ele>256</ele>
        <time>2015-03-15T11:27:53Z</time>
      </trkpt>
      <trkpt lat="50.05875" lon="5.09027">
        <ele>256</ele>
        <time>2015-03-15T11:27:59Z</time>
      </trkpt>
      <trkpt lat="50.05873" lon="5.09015">
        <ele>256</ele>
        <time>2015-03-15T11:28:05Z</time>
      </trkpt>
      <trkpt lat="50.05873" lon="5.09004">
        <ele>254</ele>
        <time>2015-03-15T11:28:10Z</time>
      </trkpt>
      <trkpt lat="50.05872" lon="5.08994">
        <ele>253</ele>
        <time>2015-03-15T11:28:15Z</time>
      </trkpt>
      <trkpt lat="50.05872" lon="5.08981">
        <ele>253</ele>
        <time>2015-03-15T11:28:21Z</time>
      </trkpt>
      <trkpt lat="50.05872" lon="5.08971">
        <ele>252</ele>
        <time>2015-03-15T11:28:26Z</time>
      </trkpt>
      <trkpt lat="50.05872" lon="5.08961">
        <ele>251</ele>
        <time>2015-03-15T11:28:31Z</time>
      </trkpt>
      <trkpt lat="50.05872" lon="5.08949">
        <ele>250</ele>
        <time>2015-03-15T11:28:37Z</time>
      </trkpt>
      <trkpt lat="50.05874" lon="5.08941">
        <ele>249</ele>
        <time>2015-03-15T11:28:42Z</time>
      </trkpt>
      <trkpt lat="50.05876" lon="5.08932">
        <ele>249</ele>
        <time>2015-03-15T11:28:47Z</time>
      </trkpt>
      <trkpt lat="50.05878" lon="5.08924">
        <ele>248</ele>
        <time>2015-03-15T11:28:52Z</time>
      </trkpt>
      <trkpt lat="50.05879" lon="5.08915">
        <ele>247</ele>
        <time>2015-03-15T11:28:57Z</time>
      </trkpt>
      <trkpt lat="50.0588" lon="5.08903">
        <ele>246</ele>
        <time>2015-03-15T11:29:03Z</time>
      </trkpt>
      <trkpt lat="50.05881" lon="5.08894">
        <ele>244</ele>
        <time>2015-03-15T11:29:08Z</time>
      </trkpt>
      <trkpt lat="50.05881" lon="5.08884">
        <ele>244</ele>
        <time>2015-03-15T11:29:13Z</time>
      </trkpt>
      <trkpt lat="50.05882" lon="5.08873">
        <ele>242</ele>
        <time>2015-03-15T11:29:19Z</time>
      </trkpt>
      <trkpt lat="50.05881" lon="5.08862">
        <ele>242</ele>
        <time>2015-03-15T11:29:24Z</time>
      </trkpt>
      <trkpt lat="50.0588" lon="5.08852">
        <ele>241</ele>
        <time>2015-03-15T11:29:29Z</time>
      </trkpt>
      <trkpt lat="50.0588" lon="5.08843">
        <ele>239</ele>
        <time>2015-03-15T11:29:35Z</time>
      </trkpt>
      <trkpt lat="50.0588" lon="5.08835">
        <ele>238</ele>
        <time>2015-03-15T11:29:40Z</time>
      </trkpt>
      <trkpt lat="50.05879" lon="5.08826">
        <ele>237</ele>
        <time>2015-03-15T11:29:45Z</time>
      </trkpt>
      <trkpt lat="50.05877" lon="5.08815">
        <ele>236</ele>
        <time>2015-03-15T11:29:51Z</time>
      </trkpt>
      <trkpt lat="50.05875" lon="5.08806">
        <ele>236</ele>
        <time>2015-03-15T11:29:56Z</time>
      </trkpt>
      <trkpt lat="50.05875" lon="5.08798">
        <ele>235</ele>
        <time>2015-03-15T11:30:01Z</time>
      </trkpt>
      <trkpt lat="50.05874" lon="5.08789">
        <ele>234</ele>
        <time>2015-03-15T11:30:07Z</time>
      </trkpt>
      <trkpt lat="50.05871" lon="5.08781">
        <ele>233</ele>
        <time>2015-03-15T11:30:12Z</time>
      </trkpt>
      <trkpt lat="50.05869" lon="5.08771">
        <ele>232</ele>
        <time>2015-03-15T11:30:18Z</time>
      </trkpt>
      <trkpt lat="50.05868" lon="5.08762">
        <ele>231</ele>
        <time>2015-03-15T11:30:23Z</time>
      </trkpt>
      <trkpt lat="50.05869" lon="5.08755">
        <ele>230</ele>
        <time>2015-03-15T11:30:28Z</time>
      </trkpt>
      <trkpt lat="50.05871" lon="5.08748">
        <ele>230</ele>
        <time>2015-03-15T11:30:34Z</time>
      </trkpt>
      <trkpt lat="50.05872" lon="5.08743">
        <ele>229</ele>
        <time>2015-03-15T11:30:39Z</time>
      </trkpt>
      <trkpt lat="50.05874" lon="5.08737">
        <ele>228</ele>
        <time>2015-03-15T11:30:45Z</time>
      </trkpt>
      <trkpt lat="50.05878" lon="5.08735">
        <ele>228</ele>
        <time>2015-03-15T11:30:50Z</time>
      </trkpt>
      <trkpt lat="50.05883" lon="5.08736">
        <ele>228</ele>
        <time>2015-03-15T11:30:55Z</time>
      </trkpt>
      <trkpt lat="50.0589" lon="5.08738">
        <ele>228</ele>
        <time>2015-03-15T11:31:01Z</time>
      </trkpt>
      <trkpt lat="50.05897" lon="5.0874">
        <ele>228</ele>
        <time>2015-03-15T11:31:07Z</time>
      </trkpt>
      <trkpt lat="50.05904" lon="5.08744">
        <ele>228</ele>
        <time>2015-03-15T11:31:13Z</time>
      </trkpt>
      <trkpt lat="50.0591" lon="5.08747">
        <ele>228</ele>
        <time>2015-03-15T11:31:18Z</time>
      </trkpt>
      <trkpt lat="50.05916" lon="5.08751">
        <ele>229</ele>
        <time>2015-03-15T11:31:23Z</time>
      </trkpt>
      <trkpt lat="50.05923" lon="5.08755">
        <ele>229</ele>
        <time>2015-03-15T11:31:29Z</time>
      </trkpt>
      <trkpt lat="50.05929" lon="5.08758">
        <ele>229</ele>
        <time>2015-03-15T11:31:34Z</time>
      </trkpt>
      <trkpt lat="50.05936" lon="5.08762">
        <ele>229</ele>
        <time>2015-03-15T11:31:40Z</time>
      </trkpt>
      <trkpt lat="50.05943" lon="5.08763">
        <ele>229</ele>
        <time>2015-03-15T11:31:46Z</time>
      </trkpt>
      <trkpt lat="50.05948" lon="5.08766">
        <ele>229</ele>
        <time>2015-03-15T11:31:51Z</time>
      </trkpt>
      <trkpt lat="50.05955" lon="5.08769">
        <ele>229</ele>
        <time>2015-03-15T11:31:57Z</time>
      </trkpt>
      <trkpt lat="50.05962" lon="5.08771">
        <ele>229</ele>
        <time>2015-03-15T11:32:03Z</time>
      </trkpt>
      <trkpt lat="50.0597" lon="5.08772">
        <ele>229</ele>
        <time>2015-03-15T11:32:09Z</time>
      </trkpt>
      <trkpt lat="50.05978" lon="5.08775">
        <ele>230</ele>
        <time>2015-03-15T11:32:15Z</time>
      </trkpt>
      <trkpt lat="50.05985" lon="5.08778">
        <ele>230</ele>
        <time>2015-03-15T11:32:20Z</time>
      </trkpt>
      <trkpt lat="50.05991" lon="5.08782">
        <ele>229</ele>
        <time>2015-03-15T11:32:25Z</time>
      </trkpt>
      <trkpt lat="50.05996" lon="5.08788">
        <ele>229</ele>
        <time>2015-03-15T11:32:31Z</time>
      </trkpt>
      <trkpt lat="50.06001" lon="5.08792">
        <ele>230</ele>
        <time>2015-03-15T11:32:36Z</time>
      </trkpt>
      <trkpt lat="50.06006" lon="5.08798">
        <ele>230</ele>
        <time>2015-03-15T11:32:41Z</time>
      </trkpt>
      <trkpt lat="50.06011" lon="5.08802">
        <ele>230</ele>
        <time>2015-03-15T11:32:46Z</time>
      </trkpt>
      <trkpt lat="50.06015" lon="5.08807">
        <ele>230</ele>
        <time>2015-03-15T11:32:52Z</time>
      </trkpt>
      <trkpt lat="50.06016" lon="5.08811">
        <ele>230</ele>
        <time>2015-03-15T11:32:57Z</time>
      </trkpt>
      <trkpt lat="50.06017" lon="5.08816">
        <ele>230</ele>
        <time>2015-03-15T11:33:03Z</time>
      </trkpt>
      <trkpt lat="50.06019" lon="5.0882">
        <ele>230</ele>
        <time>2015-03-15T11:33:08Z</time>
      </trkpt>
      <trkpt lat="50.06021" lon="5.08823">
        <ele>229</ele>
        <time>2015-03-15T11:33:13Z</time>
      </trkpt>
      <trkpt lat="50.06024" lon="5.08826">
        <ele>230</ele>
        <time>2015-03-15T11:33:19Z</time>
      </trkpt>
      <trkpt lat="50.06026" lon="5.08828">
        <ele>230</ele>
        <time>2015-03-15T11:33:24Z</time>
      </trkpt>
      <trkpt lat="50.06027" lon="5.0883">
        <ele>229</ele>
        <time>2015-03-15T11:33:30Z</time>
      </trkpt>
      <trkpt lat="50.06026" lon="5.08827">
        <ele>230</ele>
        <time>2015-03-15T11:33:36Z</time>
      </trkpt>
      <trkpt lat="50.06024" lon="5.08827">
        <ele>230</ele>
        <time>2015-03-15T11:33:42Z</time>
      </trkpt>
      <trkpt lat="50.06024" lon="5.08828">
        <ele>230</ele>
        <time>2015-03-15T11:33:48Z</time>
      </trkpt>
      <trkpt lat="50.06023" lon="5.0883">
        <ele>230</ele>
        <time>2015-03-15T11:33:53Z</time>
      </trkpt>
      <trkpt lat="50.06023" lon="5.0883">
        <ele>230</ele>
        <time>2015-03-15T11:34:00Z</time>
      </trkpt>
      <trkpt lat="50.06023" lon="5.08832">
        <ele>230</ele>
        <time>2015-03-15T11:34:06Z</time>
      </trkpt>
      <trkpt lat="50.06026" lon="5.08834">
        <ele>230</ele>
        <time>2015-03-15T11:34:12Z</time>
      </trkpt>
      <trkpt lat="50.06029" lon="5.08836">
        <ele>230</ele>
        <time>2015-03-15T11:34:17Z</time>
      </trkpt>
      <trkpt lat="50.06033" lon="5.08837">
        <ele>229</ele>
        <time>2015-03-15T11:34:23Z</time>
      </trkpt>
      <trkpt lat="50.06035" lon="5.08837">
        <ele>229</ele>
        <time>2015-03-15T11:34:29Z</time>
      </trkpt>
      <trkpt lat="50.06036" lon="5.08837">
        <ele>229</ele>
        <time>2015-03-15T11:34:34Z</time>
      </trkpt>
      <trkpt lat="50.06037" lon="5.08836">
        <ele>230</ele>
        <time>2015-03-15T11:34:40Z</time>
      </trkpt>
      <trkpt lat="50.06038" lon="5.08836">
        <ele>229</ele>
        <time>2015-03-15T11:34:46Z</time>
      </trkpt>
      <trkpt lat="50.06036" lon="5.08834">
        <ele>229</ele>
        <time>2015-03-15T11:34:51Z</time>
      </trkpt>
      <trkpt lat="50.06034" lon="5.08832">
        <ele>229</ele>
        <time>2015-03-15T11:34:57Z</time>
      </trkpt>
      <trkpt lat="50.06034" lon="5.0883">
        <ele>229</ele>
        <time>2015-03-15T11:35:02Z</time>
      </trkpt>
      <trkpt lat="50.06032" lon="5.08828">
        <ele>229</ele>
        <time>2015-03-15T11:35:08Z</time>
      </trkpt>
      <trkpt lat="50.06031" lon="5.08828">
        <ele>229</ele>
        <time>2015-03-15T11:35:14Z</time>
      </trkpt>
      <trkpt lat="50.06031" lon="5.08829">
        <ele>229</ele>
        <time>2015-03-15T11:35:19Z</time>
      </trkpt>
      <trkpt lat="50.06031" lon="5.08832">
        <ele>229</ele>
        <time>2015-03-15T11:35:25Z</time>
      </trkpt>
      <trkpt lat="50.0603" lon="5.08833">
        <ele>229</ele>
        <time>2015-03-15T11:35:30Z</time>
      </trkpt>
      <trkpt lat="50.06029" lon="5.08835">
        <ele>229</ele>
        <time>2015-03-15T11:35:35Z</time>
      </trkpt>
      <trkpt lat="50.06028" lon="5.08838">
        <ele>229</ele>
        <time>2015-03-15T11:35:41Z</time>
      </trkpt>
      <trkpt lat="50.06028" lon="5.0884">
        <ele>229</ele>
        <time>2015-03-15T11:35:46Z</time>
      </trkpt>
      <trkpt lat="50.06027" lon="5.08844">
        <ele>229</ele>
        <time>2015-03-15T11:35:52Z</time>
      </trkpt>
      <trkpt lat="50.06027" lon="5.08846">
        <ele>229</ele>
        <time>2015-03-15T11:35:57Z</time>
      </trkpt>
      <trkpt lat="50.06024" lon="5.08846">
        <ele>229</ele>
        <time>2015-03-15T11:36:03Z</time>
      </trkpt>
      <trkpt lat="50.06022" lon="5.08842">
        <ele>230</ele>
        <time>2015-03-15T11:36:09Z</time>
      </trkpt>
      <trkpt lat="50.06024" lon="5.08839">
        <ele>230</ele>
        <time>2015-03-15T11:36:14Z</time>
      </trkpt>
      <trkpt lat="50.06025" lon="5.08837">
        <ele>230</ele>
        <time>2015-03-15T11:36:20Z</time>
      </trkpt>
      <trkpt lat="50.06028" lon="5.08835">
        <ele>229</ele>
        <time>2015-03-15T11:36:25Z</time>
      </trkpt>
      <trkpt lat="50.06031" lon="5.08837">
        <ele>229</ele>
        <time>2015-03-15T11:36:30Z</time>
      </trkpt>
      <trkpt lat="50.06035" lon="5.0884">
        <ele>229</ele>
        <time>2015-03-15T11:36:35Z</time>
      </trkpt>
      <trkpt lat="50.06039" lon="5.08844">
        <ele>228</ele>
        <time>2015-03-15T11:36:41Z</time>
      </trkpt>
      <trkpt lat="50.06042" lon="5.08851">
        <ele>229</ele>
        <time>2015-03-15T11:36:47Z</time>
      </trkpt>
      <trkpt lat="50.06046" lon="5.08856">
        <ele>228</ele>
        <time>2015-03-15T11:36:52Z</time>
      </trkpt>
      <trkpt lat="50.0605" lon="5.08861">
        <ele>228</ele>
        <time>2015-03-15T11:36:57Z</time>
      </trkpt>
      <trkpt lat="50.06056" lon="5.08866">
        <ele>228</ele>
        <time>2015-03-15T11:37:02Z</time>
      </trkpt>
      <trkpt lat="50.06061" lon="5.08871">
        <ele>227</ele>
        <time>2015-03-15T11:37:08Z</time>
      </trkpt>
      <trkpt lat="50.06066" lon="5.08876">
        <ele>227</ele>
        <time>2015-03-15T11:37:13Z</time>
      </trkpt>
      <trkpt lat="50.06071" lon="5.0888">
        <ele>226</ele>
        <time>2015-03-15T11:37:18Z</time>
      </trkpt>
      <trkpt lat="50.06078" lon="5.08884">
        <ele>226</ele>
        <time>2015-03-15T11:37:24Z</time>
      </trkpt>
      <trkpt lat="50.06083" lon="5.08886">
        <ele>226</ele>
        <time>2015-03-15T11:37:29Z</time>
      </trkpt>
      <trkpt lat="50.06088" lon="5.08889">
        <ele>225</ele>
        <time>2015-03-15T11:37:34Z</time>
      </trkpt>
      <trkpt lat="50.06094" lon="5.08893">
        <ele>225</ele>
        <time>2015-03-15T11:37:40Z</time>
      </trkpt>
      <trkpt lat="50.06097" lon="5.08895">
        <ele>225</ele>
        <time>2015-03-15T11:37:45Z</time>
      </trkpt>
      <trkpt lat="50.061" lon="5.08899">
        <ele>225</ele>
        <time>2015-03-15T11:37:50Z</time>
      </trkpt>
      <trkpt lat="50.06105" lon="5.08903">
        <ele>225</ele>
        <time>2015-03-15T11:37:56Z</time>
      </trkpt>
      <trkpt lat="50.06109" lon="5.08904">
        <ele>225</ele>
        <time>2015-03-15T11:38:02Z</time>
      </trkpt>
      <trkpt lat="50.06111" lon="5.08904">
        <ele>225</ele>
        <time>2015-03-15T11:38:09Z</time>
      </trkpt>
      <trkpt lat="50.06113" lon="5.08903">
        <ele>225</ele>
        <time>2015-03-15T11:38:14Z</time>
      </trkpt>
      <trkpt lat="50.06117" lon="5.08902">
        <ele>225</ele>
        <time>2015-03-15T11:38:20Z</time>
      </trkpt>
      <trkpt lat="50.06118" lon="5.08902">
        <ele>225</ele>
        <time>2015-03-15T11:38:25Z</time>
      </trkpt>
      <trkpt lat="50.06121" lon="5.08903">
        <ele>224</ele>
        <time>2015-03-15T11:38:30Z</time>
      </trkpt>
      <trkpt lat="50.06125" lon="5.08903">
        <ele>224</ele>
        <time>2015-03-15T11:38:35Z</time>
      </trkpt>
      <trkpt lat="50.06125" lon="5.08905">
        <ele>224</ele>
        <time>2015-03-15T11:38:41Z</time>
      </trkpt>
      <trkpt lat="50.06129" lon="5.08904">
        <ele>224</ele>
        <time>2015-03-15T11:38:47Z</time>
      </trkpt>
      <trkpt lat="50.06134" lon="5.08901">
        <ele>224</ele>
        <time>2015-03-15T11:38:52Z</time>
      </trkpt>
      <trkpt lat="50.06139" lon="5.08898">
        <ele>224</ele>
        <time>2015-03-15T11:38:57Z</time>
      </trkpt>
      <trkpt lat="50.06144" lon="5.08897">
        <ele>224</ele>
        <time>2015-03-15T11:39:02Z</time>
      </trkpt>
      <trkpt lat="50.0615" lon="5.08895">
        <ele>224</ele>
        <time>2015-03-15T11:39:08Z</time>
      </trkpt>
      <trkpt lat="50.06156" lon="5.08893">
        <ele>224</ele>
        <time>2015-03-15T11:39:13Z</time>
      </trkpt>
      <trkpt lat="50.06165" lon="5.08889">
        <ele>224</ele>
        <time>2015-03-15T11:39:19Z</time>
      </trkpt>
      <trkpt lat="50.06171" lon="5.08887">
        <ele>225</ele>
        <time>2015-03-15T11:39:25Z</time>
      </trkpt>
      <trkpt lat="50.06177" lon="5.08885">
        <ele>224</ele>
        <time>2015-03-15T11:39:31Z</time>
      </trkpt>
      <trkpt lat="50.06184" lon="5.08883">
        <ele>224</ele>
        <time>2015-03-15T11:39:37Z</time>
      </trkpt>
      <trkpt lat="50.06189" lon="5.0888">
        <ele>225</ele>
        <time>2015-03-15T11:39:42Z</time>
      </trkpt>
      <trkpt lat="50.06197" lon="5.08877">
        <ele>225</ele>
        <time>2015-03-15T11:39:48Z</time>
      </trkpt>
      <trkpt lat="50.06204" lon="5.08874">
        <ele>225</ele>
        <time>2015-03-15T11:39:53Z</time>
      </trkpt>
      <trkpt lat="50.06208" lon="5.08872">
        <ele>225</ele>
        <time>2015-03-15T11:39:58Z</time>
      </trkpt>
      <trkpt lat="50.06215" lon="5.08869">
        <ele>225</ele>
        <time>2015-03-15T11:40:04Z</time>
      </trkpt>
      <trkpt lat="50.06221" lon="5.08868">
        <ele>225</ele>
        <time>2015-03-15T11:40:09Z</time>
      </trkpt>
      <trkpt lat="50.06228" lon="5.08866">
        <ele>226</ele>
        <time>2015-03-15T11:40:14Z</time>
      </trkpt>
      <trkpt lat="50.06234" lon="5.08864">
        <ele>225</ele>
        <time>2015-03-15T11:40:20Z</time>
      </trkpt>
      <trkpt lat="50.0624" lon="5.08862">
        <ele>225</ele>
        <time>2015-03-15T11:40:25Z</time>
      </trkpt>
      <trkpt lat="50.06243" lon="5.08861">
        <ele>225</ele>
        <time>2015-03-15T11:40:30Z</time>
      </trkpt>
      <trkpt lat="50.0625" lon="5.08859">
        <ele>226</ele>
        <time>2015-03-15T11:40:36Z</time>
      </trkpt>
      <trkpt lat="50.06256" lon="5.08857">
        <ele>226</ele>
        <time>2015-03-15T11:40:42Z</time>
      </trkpt>
      <trkpt lat="50.06262" lon="5.08853">
        <ele>226</ele>
        <time>2015-03-15T11:40:48Z</time>
      </trkpt>
      <trkpt lat="50.06268" lon="5.0885">
        <ele>226</ele>
        <time>2015-03-15T11:40:54Z</time>
      </trkpt>
      <trkpt lat="50.06273" lon="5.08849">
        <ele>226</ele>
        <time>2015-03-15T11:40:59Z</time>
      </trkpt>
      <trkpt lat="50.0628" lon="5.08848">
        <ele>226</ele>
        <time>2015-03-15T11:41:05Z</time>
      </trkpt>
      <trkpt lat="50.06285" lon="5.08846">
        <ele>227</ele>
        <time>2015-03-15T11:41:10Z</time>
      </trkpt>
      <trkpt lat="50.06289" lon="5.08845">
        <ele>227</ele>
        <time>2015-03-15T11:41:15Z</time>
      </trkpt>
      <trkpt lat="50.06293" lon="5.08844">
        <ele>226</ele>
        <time>2015-03-15T11:41:21Z</time>
      </trkpt>
      <trkpt lat="50.06298" lon="5.08841">
        <ele>226</ele>
        <time>2015-03-15T11:41:27Z</time>
      </trkpt>
      <trkpt lat="50.06303" lon="5.08839">
        <ele>225</ele>
        <time>2015-03-15T11:41:32Z</time>
      </trkpt>
      <trkpt lat="50.0631" lon="5.0884">
        <ele>225</ele>
        <time>2015-03-15T11:41:38Z</time>
      </trkpt>
      <trkpt lat="50.06316" lon="5.08842">
        <ele>225</ele>
        <time>2015-03-15T11:41:43Z</time>
      </trkpt>
      <trkpt lat="50.06321" lon="5.08842">
        <ele>224</ele>
        <time>2015-03-15T11:41:48Z</time>
      </trkpt>
      <trkpt lat="50.06326" lon="5.08844">
        <ele>223</ele>
        <time>2015-03-15T11:41:53Z</time>
      </trkpt>
      <trkpt lat="50.06332" lon="5.08845">
        <ele>223</ele>
        <time>2015-03-15T11:41:59Z</time>
      </trkpt>
      <trkpt lat="50.06337" lon="5.08845">
        <ele>222</ele>
        <time>2015-03-15T11:42:04Z</time>
      </trkpt>
      <trkpt lat="50.06343" lon="5.08847">
        <ele>222</ele>
        <time>2015-03-15T11:42:09Z</time>
      </trkpt>
      <trkpt lat="50.0635" lon="5.08848">
        <ele>221</ele>
        <time>2015-03-15T11:42:15Z</time>
      </trkpt>
      <trkpt lat="50.06356" lon="5.08846">
        <ele>220</ele>
        <time>2015-03-15T11:42:21Z</time>
      </trkpt>
      <trkpt lat="50.0636" lon="5.08841">
        <ele>220</ele>
        <time>2015-03-15T11:42:26Z</time>
      </trkpt>
      <trkpt lat="50.06364" lon="5.08835">
        <ele>219</ele>
        <time>2015-03-15T11:42:32Z</time>
      </trkpt>
      <trkpt lat="50.06365" lon="5.08826">
        <ele>219</ele>
        <time>2015-03-15T11:42:38Z</time>
      </trkpt>
      <trkpt lat="50.06366" lon="5.08824">
        <ele>219</ele>
        <time>2015-03-15T11:42:43Z</time>
      </trkpt>
      <trkpt lat="50.06368" lon="5.08824">
        <ele>219</ele>
        <time>2015-03-15T11:42:49Z</time>
      </trkpt>
      <trkpt lat="50.06367" lon="5.08821">
        <ele>219</ele>
        <time>2015-03-15T11:42:55Z</time>
      </trkpt>
      <trkpt lat="50.06367" lon="5.08822">
        <ele>219</ele>
        <time>2015-03-15T11:43:00Z</time>
      </trkpt>
      <trkpt lat="50.06366" lon="5.08826">
        <ele>220</ele>
        <time>2015-03-15T11:43:06Z</time>
      </trkpt>
      <trkpt lat="50.06366" lon="5.0883">
        <ele>220</ele>
        <time>2015-03-15T11:43:11Z</time>
      </trkpt>
      <trkpt lat="50.06366" lon="5.08836">
        <ele>220</ele>
        <time>2015-03-15T11:43:17Z</time>
      </trkpt>
      <trkpt lat="50.06367" lon="5.08842">
        <ele>220</ele>
        <time>2015-03-15T11:43:22Z</time>
      </trkpt>
      <trkpt lat="50.0637" lon="5.08845">
        <ele>219</ele>
        <time>2015-03-15T11:43:28Z</time>
      </trkpt>
      <trkpt lat="50.06373" lon="5.08849">
        <ele>218</ele>
        <time>2015-03-15T11:43:33Z</time>
      </trkpt>
      <trkpt lat="50.06377" lon="5.08852">
        <ele>218</ele>
        <time>2015-03-15T11:43:39Z</time>
      </trkpt>
      <trkpt lat="50.0638" lon="5.08855">
        <ele>217</ele>
        <time>2015-03-15T11:43:44Z</time>
      </trkpt>
      <trkpt lat="50.06386" lon="5.08858">
        <ele>216</ele>
        <time>2015-03-15T11:43:50Z</time>
      </trkpt>
      <trkpt lat="50.06391" lon="5.08859">
        <ele>216</ele>
        <time>2015-03-15T11:43:55Z</time>
      </trkpt>
      <trkpt lat="50.06398" lon="5.08861">
        <ele>215</ele>
        <time>2015-03-15T11:44:01Z</time>
      </trkpt>
      <trkpt lat="50.06403" lon="5.08862">
        <ele>215</ele>
        <time>2015-03-15T11:44:07Z</time>
      </trkpt>
      <trkpt lat="50.06409" lon="5.08862">
        <ele>215</ele>
        <time>2015-03-15T11:44:12Z</time>
      </trkpt>
      <trkpt lat="50.06415" lon="5.08864">
        <ele>214</ele>
        <time>2015-03-15T11:44:18Z</time>
      </trkpt>
      <trkpt lat="50.06421" lon="5.08866">
        <ele>213</ele>
        <time>2015-03-15T11:44:24Z</time>
      </trkpt>
      <trkpt lat="50.06426" lon="5.08867">
        <ele>213</ele>
        <time>2015-03-15T11:44:29Z</time>
      </trkpt>
      <trkpt lat="50.06433" lon="5.08869">
        <ele>212</ele>
        <time>2015-03-15T11:44:35Z</time>
      </trkpt>
      <trkpt lat="50.06439" lon="5.08871">
        <ele>211</ele>
        <time>2015-03-15T11:44:40Z</time>
      </trkpt>
      <trkpt lat="50.06446" lon="5.08875">
        <ele>210</ele>
        <time>2015-03-15T11:44:46Z</time>
      </trkpt>
      <trkpt lat="50.06454" lon="5.0888">
        <ele>210</ele>
        <time>2015-03-15T11:44:52Z</time>
      </trkpt>
      <trkpt lat="50.06462" lon="5.08883">
        <ele>209</ele>
        <time>2015-03-15T11:44:58Z</time>
      </trkpt>
      <trkpt lat="50.06467" lon="5.08888">
        <ele>208</ele>
        <time>2015-03-15T11:45:04Z</time>
      </trkpt>
      <trkpt lat="50.06472" lon="5.08896">
        <ele>208</ele>
        <time>2015-03-15T11:45:10Z</time>
      </trkpt>
      <trkpt lat="50.06477" lon="5.08905">
        <ele>208</ele>
        <time>2015-03-15T11:45:16Z</time>
      </trkpt>
      <trkpt lat="50.06478" lon="5.08906">
        <ele>207</ele>
        <time>2015-03-15T11:45:22Z</time>
      </trkpt>
      <trkpt lat="50.06478" lon="5.089">
        <ele>208</ele>
        <time>2015-03-15T11:45:27Z</time>
      </trkpt>
      <trkpt lat="50.06479" lon="5.089">
        <ele>208</ele>
        <time>2015-03-15T11:45:32Z</time>
      </trkpt>
      <trkpt lat="50.06479" lon="5.089">
        <ele>208</ele>
        <time>2015-03-15T11:45:38Z</time>
      </trkpt>
      <trkpt lat="50.06479" lon="5.08899">
        <ele>208</ele>
        <time>2015-03-15T11:45:44Z</time>
      </trkpt>
      <trkpt lat="50.06479" lon="5.08899">
        <ele>208</ele>
        <time>2015-03-15T11:45:50Z</time>
      </trkpt>
      <trkpt lat="50.0648" lon="5.08898">
        <ele>208</ele>
        <time>2015-03-15T11:45:55Z</time>
      </trkpt>
      <trkpt lat="50.06476" lon="5.08896">
        <ele>208</ele>
        <time>2015-03-15T11:46:01Z</time>
      </trkpt>
      <trkpt lat="50.06468" lon="5.08883">
        <ele>209</ele>
        <time>2015-03-15T11:46:06Z</time>
      </trkpt>
      <trkpt lat="50.0647" lon="5.08886">
        <ele>209</ele>
        <time>2015-03-15T11:46:12Z</time>
      </trkpt>
      <trkpt lat="50.06475" lon="5.08895">
        <ele>209</ele>
        <time>2015-03-15T11:46:18Z</time>
      </trkpt>
      <trkpt lat="50.06478" lon="5.089">
        <ele>208</ele>
        <time>2015-03-15T11:46:24Z</time>
      </trkpt>
      <trkpt lat="50.06479" lon="5.08904">
        <ele>208</ele>
        <time>2015-03-15T11:46:30Z</time>
      </trkpt>
      <trkpt lat="50.06483" lon="5.08909">
        <ele>208</ele>
        <time>2015-03-15T11:46:35Z</time>
      </trkpt>
      <trkpt lat="50.0649" lon="5.08912">
        <ele>208</ele>
        <time>2015-03-15T11:46:41Z</time>
      </trkpt>
      <trkpt lat="50.06496" lon="5.08912">
        <ele>207</ele>
        <time>2015-03-15T11:46:46Z</time>
      </trkpt>
      <trkpt lat="50.06504" lon="5.08913">
        <ele>205</ele>
        <time>2015-03-15T11:46:52Z</time>
      </trkpt>
      <trkpt lat="50.0651" lon="5.08914">
        <ele>205</ele>
        <time>2015-03-15T11:46:57Z</time>
      </trkpt>
      <trkpt lat="50.06517" lon="5.08915">
        <ele>204</ele>
        <time>2015-03-15T11:47:03Z</time>
      </trkpt>
      <trkpt lat="50.06522" lon="5.08916">
        <ele>203</ele>
        <time>2015-03-15T11:47:09Z</time>
      </trkpt>
      <trkpt lat="50.06522" lon="5.08916">
        <ele>203</ele>
        <time>2015-03-15T11:47:16Z</time>
      </trkpt>
      <trkpt lat="50.06528" lon="5.08917">
        <ele>203</ele>
        <time>2015-03-15T11:47:21Z</time>
      </trkpt>
      <trkpt lat="50.06535" lon="5.08917">
        <ele>202</ele>
        <time>2015-03-15T11:47:26Z</time>
      </trkpt>
      <trkpt lat="50.06538" lon="5.08917">
        <ele>201</ele>
        <time>2015-03-15T11:47:31Z</time>
      </trkpt>
      <trkpt lat="50.06541" lon="5.08918">
        <ele>201</ele>
        <time>2015-03-15T11:47:37Z</time>
      </trkpt>
      <trkpt lat="50.06548" lon="5.08919">
        <ele>201</ele>
        <time>2015-03-15T11:47:43Z</time>
      </trkpt>
      <trkpt lat="50.06554" lon="5.0892">
        <ele>200</ele>
        <time>2015-03-15T11:47:48Z</time>
      </trkpt>
      <trkpt lat="50.06562" lon="5.0892">
        <ele>199</ele>
        <time>2015-03-15T11:47:54Z</time>
      </trkpt>
      <trkpt lat="50.0657" lon="5.08921">
        <ele>198</ele>
        <time>2015-03-15T11:48:00Z</time>
      </trkpt>
      <trkpt lat="50.06577" lon="5.08922">
        <ele>198</ele>
        <time>2015-03-15T11:48:05Z</time>
      </trkpt>
      <trkpt lat="50.06582" lon="5.08923">
        <ele>197</ele>
        <time>2015-03-15T11:48:10Z</time>
      </trkpt>
      <trkpt lat="50.0659" lon="5.08924">
        <ele>197</ele>
        <time>2015-03-15T11:48:16Z</time>
      </trkpt>
      <trkpt lat="50.06595" lon="5.08924">
        <ele>196</ele>
        <time>2015-03-15T11:48:21Z</time>
      </trkpt>
      <trkpt lat="50.06601" lon="5.08924">
        <ele>195</ele>
        <time>2015-03-15T11:48:27Z</time>
      </trkpt>
      <trkpt lat="50.06609" lon="5.08923">
        <ele>194</ele>
        <time>2015-03-15T11:48:33Z</time>
      </trkpt>
      <trkpt lat="50.06615" lon="5.08923">
        <ele>194</ele>
        <time>2015-03-15T11:48:38Z</time>
      </trkpt>
      <trkpt lat="50.06622" lon="5.08923">
        <ele>193</ele>
        <time>2015-03-15T11:48:43Z</time>
      </trkpt>
      <trkpt lat="50.06628" lon="5.08923">
        <ele>193</ele>
        <time>2015-03-15T11:48:48Z</time>
      </trkpt>
      <trkpt lat="50.06636" lon="5.08924">
        <ele>192</ele>
        <time>2015-03-15T11:48:54Z</time>
      </trkpt>
      <trkpt lat="50.06642" lon="5.08926">
        <ele>192</ele>
        <time>2015-03-15T11:48:59Z</time>
      </trkpt>
      <trkpt lat="50.06648" lon="5.08926">
        <ele>192</ele>
        <time>2015-03-15T11:49:05Z</time>
      </trkpt>
      <trkpt lat="50.06654" lon="5.08926">
        <ele>192</ele>
        <time>2015-03-15T11:49:10Z</time>
      </trkpt>
      <trkpt lat="50.0666" lon="5.08925">
        <ele>191</ele>
        <time>2015-03-15T11:49:15Z</time>
      </trkpt>
      <trkpt lat="50.06661" lon="5.08925">
        <ele>191</ele>
        <time>2015-03-15T11:49:21Z</time>
      </trkpt>
      <trkpt lat="50.06668" lon="5.08926">
        <ele>191</ele>
        <time>2015-03-15T11:49:27Z</time>
      </trkpt>
      <trkpt lat="50.06675" lon="5.08926">
        <ele>191</ele>
        <time>2015-03-15T11:49:33Z</time>
      </trkpt>
      <trkpt lat="50.06681" lon="5.08927">
        <ele>190</ele>
        <time>2015-03-15T11:49:39Z</time>
      </trkpt>
      <trkpt lat="50.06687" lon="5.08927">
        <ele>190</ele>
        <time>2015-03-15T11:49:44Z</time>
      </trkpt>
      <trkpt lat="50.06692" lon="5.08927">
        <ele>190</ele>
        <time>2015-03-15T11:49:49Z</time>
      </trkpt>
      <trkpt lat="50.06699" lon="5.08928">
        <ele>190</ele>
        <time>2015-03-15T11:49:55Z</time>
      </trkpt>
      <trkpt lat="50.06707" lon="5.08928">
        <ele>190</ele>
        <time>2015-03-15T11:50:01Z</time>
      </trkpt>
      <trkpt lat="50.06714" lon="5.08929">
        <ele>190</ele>
        <time>2015-03-15T11:50:06Z</time>
      </trkpt>
      <trkpt lat="50.0672" lon="5.0893">
        <ele>190</ele>
        <time>2015-03-15T11:50:12Z</time>
      </trkpt>
      <trkpt lat="50.06726" lon="5.08929">
        <ele>189</ele>
        <time>2015-03-15T11:50:17Z</time>
      </trkpt>
      <trkpt lat="50.06731" lon="5.0893">
        <ele>189</ele>
        <time>2015-03-15T11:50:22Z</time>
      </trkpt>
      <trkpt lat="50.06737" lon="5.08931">
        <ele>189</ele>
        <time>2015-03-15T11:50:28Z</time>
      </trkpt>
      <trkpt lat="50.06744" lon="5.08935">
        <ele>189</ele>
        <time>2015-03-15T11:50:34Z</time>
      </trkpt>
      <trkpt lat="50.0675" lon="5.08939">
        <ele>189</ele>
        <time>2015-03-15T11:50:40Z</time>
      </trkpt>
      <trkpt lat="50.06757" lon="5.08942">
        <ele>189</ele>
        <time>2015-03-15T11:50:46Z</time>
      </trkpt>
      <trkpt lat="50.06762" lon="5.08945">
        <ele>189</ele>
        <time>2015-03-15T11:50:51Z</time>
      </trkpt>
      <trkpt lat="50.06769" lon="5.08949">
        <ele>189</ele>
        <time>2015-03-15T11:50:57Z</time>
      </trkpt>
      <trkpt lat="50.06774" lon="5.08954">
        <ele>189</ele>
        <time>2015-03-15T11:51:02Z</time>
      </trkpt>
      <trkpt lat="50.06782" lon="5.0896">
        <ele>189</ele>
        <time>2015-03-15T11:51:08Z</time>
      </trkpt>
      <trkpt lat="50.0679" lon="5.08967">
        <ele>188</ele>
        <time>2015-03-15T11:51:14Z</time>
      </trkpt>
      <trkpt lat="50.06796" lon="5.08972">
        <ele>189</ele>
        <time>2015-03-15T11:51:19Z</time>
      </trkpt>
      <trkpt lat="50.06802" lon="5.08977">
        <ele>189</ele>
        <time>2015-03-15T11:51:25Z</time>
      </trkpt>
      <trkpt lat="50.06808" lon="5.08982">
        <ele>188</ele>
        <time>2015-03-15T11:51:30Z</time>
      </trkpt>
      <trkpt lat="50.06815" lon="5.08985">
        <ele>188</ele>
        <time>2015-03-15T11:51:35Z</time>
      </trkpt>
      <trkpt lat="50.06823" lon="5.08989">
        <ele>188</ele>
        <time>2015-03-15T11:51:41Z</time>
      </trkpt>
      <trkpt lat="50.0683" lon="5.08992">
        <ele>187</ele>
        <time>2015-03-15T11:51:46Z</time>
      </trkpt>
      <trkpt lat="50.06836" lon="5.08995">
        <ele>187</ele>
        <time>2015-03-15T11:51:51Z</time>
      </trkpt>
      <trkpt lat="50.06843" lon="5.08998">
        <ele>186</ele>
        <time>2015-03-15T11:51:57Z</time>
      </trkpt>
      <trkpt lat="50.0685" lon="5.09001">
        <ele>186</ele>
        <time>2015-03-15T11:52:03Z</time>
      </trkpt>
      <trkpt lat="50.06855" lon="5.09003">
        <ele>186</ele>
        <time>2015-03-15T11:52:08Z</time>
      </trkpt>
      <trkpt lat="50.06861" lon="5.09005">
        <ele>186</ele>
        <time>2015-03-15T11:52:14Z</time>
      </trkpt>
      <trkpt lat="50.06867" lon="5.09008">
        <ele>185</ele>
        <time>2015-03-15T11:52:19Z</time>
      </trkpt>
      <trkpt lat="50.06874" lon="5.0901">
        <ele>185</ele>
        <time>2015-03-15T11:52:24Z</time>
      </trkpt>
      <trkpt lat="50.06881" lon="5.09013">
        <ele>184</ele>
        <time>2015-03-15T11:52:30Z</time>
      </trkpt>
      <trkpt lat="50.06887" lon="5.09016">
        <ele>183</ele>
        <time>2015-03-15T11:52:35Z</time>
      </trkpt>
      <trkpt lat="50.06892" lon="5.09018">
        <ele>183</ele>
        <time>2015-03-15T11:52:40Z</time>
      </trkpt>
      <trkpt lat="50.06897" lon="5.0902">
        <ele>183</ele>
        <time>2015-03-15T11:52:45Z</time>
      </trkpt>
      <trkpt lat="50.06903" lon="5.0902">
        <ele>183</ele>
        <time>2015-03-15T11:52:51Z</time>
      </trkpt>
      <trkpt lat="50.06909" lon="5.09023">
        <ele>182</ele>
        <time>2015-03-15T11:52:56Z</time>
      </trkpt>
      <trkpt lat="50.06915" lon="5.09024">
        <ele>182</ele>
        <time>2015-03-15T11:53:01Z</time>
      </trkpt>
      <trkpt lat="50.06921" lon="5.09025">
        <ele>181</ele>
        <time>2015-03-15T11:53:06Z</time>
      </trkpt>
      <trkpt lat="50.06929" lon="5.09026">
        <ele>180</ele>
        <time>2015-03-15T11:53:12Z</time>
      </trkpt>
      <trkpt lat="50.06937" lon="5.09027">
        <ele>179</ele>
        <time>2015-03-15T11:53:18Z</time>
      </trkpt>
      <trkpt lat="50.06942" lon="5.09028">
        <ele>178</ele>
        <time>2015-03-15T11:53:23Z</time>
      </trkpt>
      <trkpt lat="50.06949" lon="5.09029">
        <ele>177</ele>
        <time>2015-03-15T11:53:28Z</time>
      </trkpt>
      <trkpt lat="50.06956" lon="5.0903">
        <ele>177</ele>
        <time>2015-03-15T11:53:34Z</time>
      </trkpt>
      <trkpt lat="50.06963" lon="5.09031">
        <ele>176</ele>
        <time>2015-03-15T11:53:40Z</time>
      </trkpt>
      <trkpt lat="50.06969" lon="5.09032">
        <ele>176</ele>
        <time>2015-03-15T11:53:45Z</time>
      </trkpt>
      <trkpt lat="50.06977" lon="5.09034">
        <ele>175</ele>
        <time>2015-03-15T11:53:51Z</time>
      </trkpt>
      <trkpt lat="50.06986" lon="5.09035">
        <ele>174</ele>
        <time>2015-03-15T11:53:57Z</time>
      </trkpt>
      <trkpt lat="50.06994" lon="5.09036">
        <ele>174</ele>
        <time>2015-03-15T11:54:03Z</time>
      </trkpt>
      <trkpt lat="50.07003" lon="5.09038">
        <ele>173</ele>
        <time>2015-03-15T11:54:09Z</time>
      </trkpt>
      <trkpt lat="50.07012" lon="5.09039">
        <ele>172</ele>
        <time>2015-03-15T11:54:15Z</time>
      </trkpt>
      <trkpt lat="50.07018" lon="5.0904">
        <ele>172</ele>
        <time>2015-03-15T11:54:20Z</time>
      </trkpt>
      <trkpt lat="50.07026" lon="5.09039">
        <ele>172</ele>
        <time>2015-03-15T11:54:26Z</time>
      </trkpt>
      <trkpt lat="50.07033" lon="5.09039">
        <ele>171</ele>
        <time>2015-03-15T11:54:31Z</time>
      </trkpt>
      <trkpt lat="50.07042" lon="5.09038">
        <ele>171</ele>
        <time>2015-03-15T11:54:37Z</time>
      </trkpt>
      <trkpt lat="50.07047" lon="5.09038">
        <ele>171</ele>
        <time>2015-03-15T11:54:42Z</time>
      </trkpt>
      <trkpt lat="50.07055" lon="5.09037">
        <ele>171</ele>
        <time>2015-03-15T11:54:48Z</time>
      </trkpt>
      <trkpt lat="50.07063" lon="5.09036">
        <ele>170</ele>
        <time>2015-03-15T11:54:54Z</time>
      </trkpt>
      <trkpt lat="50.07072" lon="5.09035">
        <ele>170</ele>
        <time>2015-03-15T11:55:00Z</time>
      </trkpt>
      <trkpt lat="50.07081" lon="5.09035">
        <ele>170</ele>
        <time>2015-03-15T11:55:06Z</time>
      </trkpt>
      <trkpt lat="50.07087" lon="5.09034">
        <ele>170</ele>
        <time>2015-03-15T11:55:11Z</time>
      </trkpt>
      <trkpt lat="50.07095" lon="5.09034">
        <ele>170</ele>
        <time>2015-03-15T11:55:17Z</time>
      </trkpt>
      <trkpt lat="50.07102" lon="5.09034">
        <ele>169</ele>
        <time>2015-03-15T11:55:23Z</time>
      </trkpt>
      <trkpt lat="50.07104" lon="5.09034">
        <ele>169</ele>
        <time>2015-03-15T11:55:29Z</time>
      </trkpt>
      <trkpt lat="50.0711" lon="5.09036">
        <ele>169</ele>
        <time>2015-03-15T11:55:34Z</time>
      </trkpt>
      <trkpt lat="50.07116" lon="5.09037">
        <ele>168</ele>
        <time>2015-03-15T11:55:39Z</time>
      </trkpt>
      <trkpt lat="50.07123" lon="5.0904">
        <ele>168</ele>
        <time>2015-03-15T11:55:45Z</time>
      </trkpt>
      <trkpt lat="50.07129" lon="5.09043">
        <ele>167</ele>
        <time>2015-03-15T11:55:50Z</time>
      </trkpt>
      <trkpt lat="50.07135" lon="5.09046">
        <ele>167</ele>
        <time>2015-03-15T11:55:56Z</time>
      </trkpt>
      <trkpt lat="50.07139" lon="5.09048">
        <ele>166</ele>
        <time>2015-03-15T11:56:01Z</time>
      </trkpt>
      <trkpt lat="50.07145" lon="5.0905">
        <ele>166</ele>
        <time>2015-03-15T11:56:07Z</time>
      </trkpt>
      <trkpt lat="50.07148" lon="5.09051">
        <ele>166</ele>
        <time>2015-03-15T11:56:12Z</time>
      </trkpt>
      <trkpt lat="50.07153" lon="5.09052">
        <ele>165</ele>
        <time>2015-03-15T11:56:17Z</time>
      </trkpt>
      <trkpt lat="50.07159" lon="5.09052">
        <ele>164</ele>
        <time>2015-03-15T11:56:23Z</time>
      </trkpt>
      <trkpt lat="50.07165" lon="5.09048">
        <ele>163</ele>
        <time>2015-03-15T11:56:29Z</time>
      </trkpt>
      <trkpt lat="50.07171" lon="5.09047">
        <ele>163</ele>
        <time>2015-03-15T11:56:34Z</time>
      </trkpt>
      <trkpt lat="50.07177" lon="5.09045">
        <ele>162</ele>
        <time>2015-03-15T11:56:39Z</time>
      </trkpt>
      <trkpt lat="50.07184" lon="5.09042">
        <ele>161</ele>
        <time>2015-03-15T11:56:45Z</time>
      </trkpt>
      <trkpt lat="50.0719" lon="5.09041">
        <ele>161</ele>
        <time>2015-03-15T11:56:50Z</time>
      </trkpt>
      <trkpt lat="50.07199" lon="5.09039">
        <ele>159</ele>
        <time>2015-03-15T11:56:56Z</time>
      </trkpt>
      <trkpt lat="50.07204" lon="5.09037">
        <ele>159</ele>
        <time>2015-03-15T11:57:02Z</time>
      </trkpt>
      <trkpt lat="50.0721" lon="5.09036">
        <ele>158</ele>
        <time>2015-03-15T11:57:07Z</time>
      </trkpt>
      <trkpt lat="50.07215" lon="5.09033">
        <ele>158</ele>
        <time>2015-03-15T11:57:12Z</time>
      </trkpt>
      <trkpt lat="50.07223" lon="5.09031">
        <ele>157</ele>
        <time>2015-03-15T11:57:18Z</time>
      </trkpt>
      <trkpt lat="50.07231" lon="5.09027">
        <ele>157</ele>
        <time>2015-03-15T11:57:24Z</time>
      </trkpt>
      <trkpt lat="50.07236" lon="5.09025">
        <ele>156</ele>
        <time>2015-03-15T11:57:29Z</time>
      </trkpt>
      <trkpt lat="50.07238" lon="5.09023">
        <ele>155</ele>
        <time>2015-03-15T11:57:34Z</time>
      </trkpt>
      <trkpt lat="50.0724" lon="5.0902">
        <ele>156</ele>
        <time>2015-03-15T11:57:40Z</time>
      </trkpt>
      <trkpt lat="50.07242" lon="5.09018">
        <ele>156</ele>
        <time>2015-03-15T11:57:45Z</time>
      </trkpt>
      <trkpt lat="50.07245" lon="5.09017">
        <ele>156</ele>
        <time>2015-03-15T11:57:50Z</time>
      </trkpt>
      <trkpt lat="50.07249" lon="5.09015">
        <ele>155</ele>
        <time>2015-03-15T11:57:55Z</time>
      </trkpt>
      <trkpt lat="50.07256" lon="5.0901">
        <ele>155</ele>
        <time>2015-03-15T11:58:01Z</time>
      </trkpt>
      <trkpt lat="50.07262" lon="5.09007">
        <ele>154</ele>
        <time>2015-03-15T11:58:07Z</time>
      </trkpt>
      <trkpt lat="50.07267" lon="5.09005">
        <ele>153</ele>
        <time>2015-03-15T11:58:12Z</time>
      </trkpt>
      <trkpt lat="50.07274" lon="5.09008">
        <ele>153</ele>
        <time>2015-03-15T11:58:18Z</time>
      </trkpt>
      <trkpt lat="50.07279" lon="5.09013">
        <ele>153</ele>
        <time>2015-03-15T11:58:23Z</time>
      </trkpt>
      <trkpt lat="50.07286" lon="5.09017">
        <ele>153</ele>
        <time>2015-03-15T11:58:29Z</time>
      </trkpt>
      <trkpt lat="50.07292" lon="5.09022">
        <ele>153</ele>
        <time>2015-03-15T11:58:35Z</time>
      </trkpt>
      <trkpt lat="50.07297" lon="5.09026">
        <ele>152</ele>
        <time>2015-03-15T11:58:40Z</time>
      </trkpt>
      <trkpt lat="50.07303" lon="5.0903">
        <ele>152</ele>
        <time>2015-03-15T11:58:45Z</time>
      </trkpt>
      <trkpt lat="50.07308" lon="5.09033">
        <ele>152</ele>
        <time>2015-03-15T11:58:50Z</time>
      </trkpt>
      <trkpt lat="50.07314" lon="5.09038">
        <ele>152</ele>
        <time>2015-03-15T11:58:56Z</time>
      </trkpt>
      <trkpt lat="50.0732" lon="5.09044">
        <ele>152</ele>
        <time>2015-03-15T11:59:02Z</time>
      </trkpt>
      <trkpt lat="50.07325" lon="5.09048">
        <ele>152</ele>
        <time>2015-03-15T11:59:07Z</time>
      </trkpt>
      <trkpt lat="50.0733" lon="5.09051">
        <ele>151</ele>
        <time>2015-03-15T11:59:13Z</time>
      </trkpt>
      <trkpt lat="50.07335" lon="5.09057">
        <ele>151</ele>
        <time>2015-03-15T11:59:19Z</time>
      </trkpt>
      <trkpt lat="50.07339" lon="5.0906">
        <ele>151</ele>
        <time>2015-03-15T11:59:24Z</time>
      </trkpt>
      <trkpt lat="50.07343" lon="5.0906">
        <ele>152</ele>
        <time>2015-03-15T11:59:29Z</time>
      </trkpt>
      <trkpt lat="50.07348" lon="5.09067">
        <ele>151</ele>
        <time>2015-03-15T11:59:35Z</time>
      </trkpt>
      <trkpt lat="50.07353" lon="5.09071">
        <ele>152</ele>
        <time>2015-03-15T11:59:40Z</time>
      </trkpt>
      <trkpt lat="50.07359" lon="5.09076">
        <ele>152</ele>
        <time>2015-03-15T11:59:45Z</time>
      </trkpt>
      <trkpt lat="50.07365" lon="5.09083">
        <ele>152</ele>
        <time>2015-03-15T11:59:51Z</time>
      </trkpt>
      <trkpt lat="50.07371" lon="5.09089">
        <ele>152</ele>
        <time>2015-03-15T11:59:56Z</time>
      </trkpt>
      <trkpt lat="50.07375" lon="5.09096">
        <ele>152</ele>
        <time>2015-03-15T12:00:01Z</time>
      </trkpt>
      <trkpt lat="50.0738" lon="5.09107">
        <ele>151</ele>
        <time>2015-03-15T12:00:07Z</time>
      </trkpt>
      <trkpt lat="50.07383" lon="5.09115">
        <ele>152</ele>
        <time>2015-03-15T12:00:12Z</time>
      </trkpt>
      <trkpt lat="50.07386" lon="5.09127">
        <ele>152</ele>
        <time>2015-03-15T12:00:18Z</time>
      </trkpt>
      <trkpt lat="50.07388" lon="5.09137">
        <ele>152</ele>
        <time>2015-03-15T12:00:24Z</time>
      </trkpt>
      <trkpt lat="50.07391" lon="5.0914">
        <ele>152</ele>
        <time>2015-03-15T12:00:29Z</time>
      </trkpt>
      <trkpt lat="50.07396" lon="5.09145">
        <ele>152</ele>
        <time>2015-03-15T12:00:35Z</time>
      </trkpt>
      <trkpt lat="50.07401" lon="5.0915">
        <ele>152</ele>
        <time>2015-03-15T12:00:40Z</time>
      </trkpt>
      <trkpt lat="50.07405" lon="5.09156">
        <ele>151</ele>
        <time>2015-03-15T12:00:46Z</time>
      </trkpt>
      <trkpt lat="50.07408" lon="5.0916">
        <ele>151</ele>
        <time>2015-03-15T12:00:52Z</time>
      </trkpt>
      <trkpt lat="50.0741" lon="5.09163">
        <ele>151</ele>
        <time>2015-03-15T12:00:58Z</time>
      </trkpt>
      <trkpt lat="50.07412" lon="5.09167">
        <ele>151</ele>
        <time>2015-03-15T12:01:03Z</time>
      </trkpt>
      <trkpt lat="50.07413" lon="5.09173">
        <ele>151</ele>
        <time>2015-03-15T12:01:09Z</time>
      </trkpt>
      <trkpt lat="50.07415" lon="5.09176">
        <ele>151</ele>
        <time>2015-03-15T12:01:14Z</time>
      </trkpt>
      <trkpt lat="50.07417" lon="5.0918">
        <ele>151</ele>
        <time>2015-03-15T12:01:20Z</time>
      </trkpt>
      <trkpt lat="50.07417" lon="5.09181">
        <ele>151</ele>
        <time>2015-03-15T12:01:27Z</time>
      </trkpt>
      <trkpt lat="50.07417" lon="5.0918">
        <ele>151</ele>
        <time>2015-03-15T12:01:32Z</time>
      </trkpt>
      <trkpt lat="50.07416" lon="5.09177">
        <ele>151</ele>
        <time>2015-03-15T12:01:37Z</time>
      </trkpt>
      <trkpt lat="50.07415" lon="5.09174">
        <ele>151</ele>
        <time>2015-03-15T12:01:43Z</time>
      </trkpt>
      <trkpt lat="50.07414" lon="5.09172">
        <ele>152</ele>
        <time>2015-03-15T12:01:48Z</time>
      </trkpt>
      <trkpt lat="50.07415" lon="5.09171">
        <ele>151</ele>
        <time>2015-03-15T12:01:53Z</time>
      </trkpt>
      <trkpt lat="50.07414" lon="5.0917">
        <ele>151</ele>
        <time>2015-03-15T12:01:58Z</time>
      </trkpt>
      <trkpt lat="50.07414" lon="5.0917">
        <ele>151</ele>
        <time>2015-03-15T12:02:03Z</time>
      </trkpt>
      <trkpt lat="50.07414" lon="5.09169">
        <ele>151</ele>
        <time>2015-03-15T12:02:09Z</time>
      </trkpt>
      <trkpt lat="50.07415" lon="5.09169">
        <ele>151</ele>
        <time>2015-03-15T12:02:14Z</time>
      </trkpt>
      <trkpt lat="50.07416" lon="5.09168">
        <ele>151</ele>
        <time>2015-03-15T12:02:20Z</time>
      </trkpt>
      <trkpt lat="50.07417" lon="5.09168">
        <ele>151</ele>
        <time>2015-03-15T12:02:26Z</time>
      </trkpt>
      <trkpt lat="50.07417" lon="5.09165">
        <ele>151</ele>
        <time>2015-03-15T12:02:32Z</time>
      </trkpt>
      <trkpt lat="50.07415" lon="5.09164">
        <ele>151</ele>
        <time>2015-03-15T12:02:38Z</time>
      </trkpt>
      <trkpt lat="50.07411" lon="5.09166">
        <ele>151</ele>
        <time>2015-03-15T12:02:43Z</time>
      </trkpt>
      <trkpt lat="50.07407" lon="5.09169">
        <ele>152</ele>
        <time>2015-03-15T12:02:49Z</time>
      </trkpt>
      <trkpt lat="50.07407" lon="5.09177">
        <ele>152</ele>
        <time>2015-03-15T12:02:54Z</time>
      </trkpt>
      <trkpt lat="50.07406" lon="5.09186">
        <ele>151</ele>
        <time>2015-03-15T12:03:00Z</time>
      </trkpt>
      <trkpt lat="50.07406" lon="5.09182">
        <ele>152</ele>
        <time>2015-03-15T12:03:06Z</time>
      </trkpt>
      <trkpt lat="50.07406" lon="5.09177">
        <ele>152</ele>
        <time>2015-03-15T12:03:11Z</time>
      </trkpt>
      <trkpt lat="50.07408" lon="5.0918">
        <ele>151</ele>
        <time>2015-03-15T12:03:17Z</time>
      </trkpt>
      <trkpt lat="50.07412" lon="5.09186">
        <ele>151</ele>
        <time>2015-03-15T12:03:23Z</time>
      </trkpt>
      <trkpt lat="50.07414" lon="5.09191">
        <ele>151</ele>
        <time>2015-03-15T12:03:28Z</time>
      </trkpt>
      <trkpt lat="50.07418" lon="5.09198">
        <ele>151</ele>
        <time>2015-03-15T12:03:34Z</time>
      </trkpt>
      <trkpt lat="50.07421" lon="5.09205">
        <ele>151</ele>
        <time>2015-03-15T12:03:39Z</time>
      </trkpt>
      <trkpt lat="50.07422" lon="5.09208">
        <ele>151</ele>
        <time>2015-03-15T12:03:45Z</time>
      </trkpt>
      <trkpt lat="50.0742" lon="5.09208">
        <ele>151</ele>
        <time>2015-03-15T12:03:51Z</time>
      </trkpt>
      <trkpt lat="50.07419" lon="5.09207">
        <ele>151</ele>
        <time>2015-03-15T12:03:56Z</time>
      </trkpt>
      <trkpt lat="50.0742" lon="5.09207">
        <ele>151</ele>
        <time>2015-03-15T12:04:01Z</time>
      </trkpt>
      <trkpt lat="50.0742" lon="5.09206">
        <ele>151</ele>
        <time>2015-03-15T12:04:07Z</time>
      </trkpt>
      <trkpt lat="50.0742" lon="5.09204">
        <ele>151</ele>
        <time>2015-03-15T12:04:13Z</time>
      </trkpt>
      <trkpt lat="50.07419" lon="5.09203">
        <ele>151</ele>
        <time>2015-03-15T12:04:19Z</time>
      </trkpt>
      <trkpt lat="50.07417" lon="5.09201">
        <ele>151</ele>
        <time>2015-03-15T12:04:25Z</time>
      </trkpt>
      <trkpt lat="50.07412" lon="5.09195">
        <ele>152</ele>
        <time>2015-03-15T12:04:31Z</time>
      </trkpt>
      <trkpt lat="50.07409" lon="5.0919">
        <ele>151</ele>
        <time>2015-03-15T12:04:36Z</time>
      </trkpt>
      <trkpt lat="50.07406" lon="5.09185">
        <ele>152</ele>
        <time>2015-03-15T12:04:41Z</time>
      </trkpt>
      <trkpt lat="50.07404" lon="5.09183">
        <ele>152</ele>
        <time>2015-03-15T12:04:47Z</time>
      </trkpt>
      <trkpt lat="50.07403" lon="5.09184">
        <ele>152</ele>
        <time>2015-03-15T12:04:52Z</time>
      </trkpt>
      <trkpt lat="50.07402" lon="5.09193">
        <ele>151</ele>
        <time>2015-03-15T12:04:58Z</time>
      </trkpt>
      <trkpt lat="50.07403" lon="5.09202">
        <ele>151</ele>
        <time>2015-03-15T12:05:03Z</time>
      </trkpt>
      <trkpt lat="50.07405" lon="5.09212">
        <ele>151</ele>
        <time>2015-03-15T12:05:09Z</time>
      </trkpt>
      <trkpt lat="50.07407" lon="5.09221">
        <ele>151</ele>
        <time>2015-03-15T12:05:14Z</time>
      </trkpt>
      <trkpt lat="50.07409" lon="5.09229">
        <ele>151</ele>
        <time>2015-03-15T12:05:19Z</time>
      </trkpt>
      <trkpt lat="50.07411" lon="5.09238">
        <ele>151</ele>
        <time>2015-03-15T12:05:25Z</time>
      </trkpt>
      <trkpt lat="50.07415" lon="5.09245">
        <ele>150</ele>
        <time>2015-03-15T12:05:31Z</time>
      </trkpt>
      <trkpt lat="50.07418" lon="5.09251">
        <ele>151</ele>
        <time>2015-03-15T12:05:36Z</time>
      </trkpt>
      <trkpt lat="50.07421" lon="5.09254">
        <ele>151</ele>
        <time>2015-03-15T12:05:41Z</time>
      </trkpt>
      <trkpt lat="50.07423" lon="5.09257">
        <ele>151</ele>
        <time>2015-03-15T12:05:47Z</time>
      </trkpt>
      <trkpt lat="50.07423" lon="5.09261">
        <ele>151</ele>
        <time>2015-03-15T12:05:53Z</time>
      </trkpt>
      <trkpt lat="50.07425" lon="5.09263">
        <ele>150</ele>
        <time>2015-03-15T12:05:59Z</time>
      </trkpt>
      <trkpt lat="50.07425" lon="5.09263">
        <ele>151</ele>
        <time>2015-03-15T12:06:05Z</time>
      </trkpt>
      <trkpt lat="50.07427" lon="5.09264">
        <ele>151</ele>
        <time>2015-03-15T12:06:11Z</time>
      </trkpt>
      <trkpt lat="50.0743" lon="5.09267">
        <ele>151</ele>
        <time>2015-03-15T12:06:17Z</time>
      </trkpt>
      <trkpt lat="50.07432" lon="5.09272">
        <ele>151</ele>
        <time>2015-03-15T12:06:23Z</time>
      </trkpt>
      <trkpt lat="50.07436" lon="5.09279">
        <ele>150</ele>
        <time>2015-03-15T12:06:29Z</time>
      </trkpt>
      <trkpt lat="50.07438" lon="5.09285">
        <ele>151</ele>
        <time>2015-03-15T12:06:34Z</time>
      </trkpt>
      <trkpt lat="50.07441" lon="5.09293">
        <ele>151</ele>
        <time>2015-03-15T12:06:40Z</time>
      </trkpt>
      <trkpt lat="50.07444" lon="5.09298">
        <ele>151</ele>
        <time>2015-03-15T12:06:46Z</time>
      </trkpt>
      <trkpt lat="50.07448" lon="5.09302">
        <ele>151</ele>
        <time>2015-03-15T12:06:51Z</time>
      </trkpt>
      <trkpt lat="50.07451" lon="5.09308">
        <ele>151</ele>
        <time>2015-03-15T12:06:56Z</time>
      </trkpt>
      <trkpt lat="50.07455" lon="5.09311">
        <ele>150</ele>
        <time>2015-03-15T12:07:02Z</time>
      </trkpt>
      <trkpt lat="50.07458" lon="5.09312">
        <ele>150</ele>
        <time>2015-03-15T12:07:08Z</time>
      </trkpt>
      <trkpt lat="50.07462" lon="5.09313">
        <ele>151</ele>
        <time>2015-03-15T12:07:14Z</time>
      </trkpt>
      <trkpt lat="50.07465" lon="5.0931">
        <ele>151</ele>
        <time>2015-03-15T12:07:19Z</time>
      </trkpt>
      <trkpt lat="50.07465" lon="5.09309">
        <ele>150</ele>
        <time>2015-03-15T12:07:25Z</time>
      </trkpt>
      <trkpt lat="50.07464" lon="5.09309">
        <ele>150</ele>
        <time>2015-03-15T12:07:30Z</time>
      </trkpt>
      <trkpt lat="50.07464" lon="5.09312">
        <ele>150</ele>
        <time>2015-03-15T12:07:35Z</time>
      </trkpt>
      <trkpt lat="50.07466" lon="5.09318">
        <ele>150</ele>
        <time>2015-03-15T12:07:41Z</time>
      </trkpt>
      <trkpt lat="50.07469" lon="5.09319">
        <ele>150</ele>
        <time>2015-03-15T12:07:47Z</time>
      </trkpt>
      <trkpt lat="50.0747" lon="5.09319">
        <ele>150</ele>
        <time>2015-03-15T12:07:53Z</time>
      </trkpt>
      <trkpt lat="50.07472" lon="5.0932">
        <ele>150</ele>
        <time>2015-03-15T12:07:58Z</time>
      </trkpt>
      <trkpt lat="50.07473" lon="5.0932">
        <ele>150</ele>
        <time>2015-03-15T12:08:03Z</time>
      </trkpt>
      <trkpt lat="50.07475" lon="5.09319">
        <ele>150</ele>
        <time>2015-03-15T12:08:09Z</time>
      </trkpt>
      <trkpt lat="50.07476" lon="5.09317">
        <ele>150</ele>
        <time>2015-03-15T12:08:15Z</time>
      </trkpt>
      <trkpt lat="50.07476" lon="5.09317">
        <ele>150</ele>
        <time>2015-03-15T12:08:20Z</time>
      </trkpt>
      <trkpt lat="50.07477" lon="5.0932">
        <ele>150</ele>
        <time>2015-03-15T12:08:26Z</time>
      </trkpt>
      <trkpt lat="50.07479" lon="5.09327">
        <ele>150</ele>
        <time>2015-03-15T12:08:31Z</time>
      </trkpt>
      <trkpt lat="50.07483" lon="5.09336">
        <ele>150</ele>
        <time>2015-03-15T12:08:37Z</time>
      </trkpt>
      <trkpt lat="50.07486" lon="5.09344">
        <ele>150</ele>
        <time>2015-03-15T12:08:43Z</time>
      </trkpt>
      <trkpt lat="50.07489" lon="5.09352">
        <ele>150</ele>
        <time>2015-03-15T12:08:49Z</time>
      </trkpt>
      <trkpt lat="50.07491" lon="5.09358">
        <ele>150</ele>
        <time>2015-03-15T12:08:54Z</time>
      </trkpt>
      <trkpt lat="50.07493" lon="5.09366">
        <ele>150</ele>
        <time>2015-03-15T12:09:00Z</time>
      </trkpt>
      <trkpt lat="50.07495" lon="5.09375">
        <ele>150</ele>
        <time>2015-03-15T12:09:05Z</time>
      </trkpt>
      <trkpt lat="50.07497" lon="5.0938">
        <ele>150</ele>
        <time>2015-03-15T12:09:11Z</time>
      </trkpt>
      <trkpt lat="50.075" lon="5.09384">
        <ele>150</ele>
        <time>2015-03-15T12:09:17Z</time>
      </trkpt>
      <trkpt lat="50.075" lon="5.09386">
        <ele>150</ele>
        <time>2015-03-15T12:09:23Z</time>
      </trkpt>
      <trkpt lat="50.07501" lon="5.09387">
        <ele>150</ele>
        <time>2015-03-15T12:09:29Z</time>
      </trkpt>
      <trkpt lat="50.07501" lon="5.09387">
        <ele>150</ele>
        <time>2015-03-15T12:09:35Z</time>
      </trkpt>
      <trkpt lat="50.07501" lon="5.09387">
        <ele>150</ele>
        <time>2015-03-15T12:09:42Z</time>
      </trkpt>
      <trkpt lat="50.075" lon="5.09387">
        <ele>150</ele>
        <time>2015-03-15T12:09:47Z</time>
      </trkpt>
      <trkpt lat="50.07499" lon="5.09386">
        <ele>150</ele>
        <time>2015-03-15T12:09:53Z</time>
      </trkpt>
      <trkpt lat="50.07499" lon="5.09385">
        <ele>150</ele>
        <time>2015-03-15T12:09:58Z</time>
      </trkpt>
      <trkpt lat="50.07499" lon="5.09382">
        <ele>150</ele>
        <time>2015-03-15T12:10:04Z</time>
      </trkpt>
      <trkpt lat="50.07501" lon="5.09382">
        <ele>151</ele>
        <time>2015-03-15T12:10:10Z</time>
      </trkpt>
      <trkpt lat="50.07504" lon="5.09381">
        <ele>150</ele>
        <time>2015-03-15T12:10:16Z</time>
      </trkpt>
      <trkpt lat="50.07507" lon="5.09377">
        <ele>150</ele>
        <time>2015-03-15T12:10:21Z</time>
      </trkpt>
      <trkpt lat="50.07509" lon="5.09371">
        <ele>150</ele>
        <time>2015-03-15T12:10:26Z</time>
      </trkpt>
      <trkpt lat="50.07512" lon="5.09362">
        <ele>150</ele>
        <time>2015-03-15T12:10:32Z</time>
      </trkpt>
      <trkpt lat="50.07514" lon="5.09355">
        <ele>151</ele>
        <time>2015-03-15T12:10:37Z</time>
      </trkpt>
      <trkpt lat="50.07514" lon="5.09351">
        <ele>150</ele>
        <time>2015-03-15T12:10:42Z</time>
      </trkpt>
      <trkpt lat="50.07513" lon="5.09348">
        <ele>150</ele>
        <time>2015-03-15T12:10:47Z</time>
      </trkpt>
      <trkpt lat="50.07513" lon="5.09345">
        <ele>150</ele>
        <time>2015-03-15T12:10:53Z</time>
      </trkpt>
      <trkpt lat="50.07513" lon="5.09345">
        <ele>150</ele>
        <time>2015-03-15T12:10:58Z</time>
      </trkpt>
      <trkpt lat="50.07514" lon="5.09344">
        <ele>150</ele>
        <time>2015-03-15T12:11:04Z</time>
      </trkpt>
      <trkpt lat="50.07513" lon="5.09345">
        <ele>150</ele>
        <time>2015-03-15T12:11:10Z</time>
      </trkpt>
      <trkpt lat="50.07513" lon="5.09345">
        <ele>150</ele>
        <time>2015-03-15T12:11:15Z</time>
      </trkpt>
      <trkpt lat="50.07513" lon="5.09345">
        <ele>150</ele>
        <time>2015-03-15T12:11:21Z</time>
      </trkpt>
      <trkpt lat="50.07514" lon="5.09343">
        <ele>150</ele>
        <time>2015-03-15T12:11:27Z</time>
      </trkpt>
      <trkpt lat="50.07514" lon="5.09344">
        <ele>150</ele>
        <time>2015-03-15T12:11:32Z</time>
      </trkpt>
      <trkpt lat="50.07515" lon="5.09348">
        <ele>150</ele>
        <time>2015-03-15T12:11:38Z</time>
      </trkpt>
      <trkpt lat="50.07515" lon="5.09346">
        <ele>150</ele>
        <time>2015-03-15T12:11:44Z</time>
      </trkpt>
      <trkpt lat="50.07514" lon="5.09345">
        <ele>150</ele>
        <time>2015-03-15T12:11:49Z</time>
      </trkpt>
      <trkpt lat="50.07513" lon="5.09345">
        <ele>150</ele>
        <time>2015-03-15T12:11:54Z</time>
      </trkpt>
      <trkpt lat="50.07512" lon="5.09344">
        <ele>150</ele>
        <time>2015-03-15T12:12:00Z</time>
      </trkpt>
      <trkpt lat="50.07513" lon="5.09345">
        <ele>150</ele>
        <time>2015-03-15T12:12:05Z</time>
      </trkpt>
      <trkpt lat="50.07511" lon="5.09348">
        <ele>150</ele>
        <time>2015-03-15T12:12:10Z</time>
      </trkpt>
      <trkpt lat="50.07511" lon="5.09347">
        <ele>150</ele>
        <time>2015-03-15T12:12:16Z</time>
      </trkpt>
      <trkpt lat="50.07512" lon="5.09345">
        <ele>150</ele>
        <time>2015-03-15T12:12:22Z</time>
      </trkpt>
      <trkpt lat="50.07512" lon="5.09348">
        <ele>150</ele>
        <time>2015-03-15T12:12:28Z</time>
      </trkpt>
      <trkpt lat="50.07512" lon="5.09353">
        <ele>150</ele>
        <time>2015-03-15T12:12:33Z</time>
      </trkpt>
      <trkpt lat="50.07511" lon="5.09359">
        <ele>150</ele>
        <time>2015-03-15T12:12:39Z</time>
      </trkpt>
      <trkpt lat="50.07508" lon="5.09364">
        <ele>150</ele>
        <time>2015-03-15T12:12:45Z</time>
      </trkpt>
      <trkpt lat="50.07505" lon="5.09367">
        <ele>150</ele>
        <time>2015-03-15T12:12:50Z</time>
      </trkpt>
      <trkpt lat="50.07502" lon="5.09372">
        <ele>150</ele>
        <time>2015-03-15T12:12:56Z</time>
      </trkpt>
      <trkpt lat="50.07501" lon="5.0938">
        <ele>150</ele>
        <time>2015-03-15T12:13:01Z</time>
      </trkpt>
      <trkpt lat="50.07502" lon="5.09389">
        <ele>150</ele>
        <time>2015-03-15T12:13:06Z</time>
      </trkpt>
      <trkpt lat="50.07502" lon="5.094">
        <ele>150</ele>
        <time>2015-03-15T12:13:12Z</time>
      </trkpt>
      <trkpt lat="50.07503" lon="5.09408">
        <ele>150</ele>
        <time>2015-03-15T12:13:18Z</time>
      </trkpt>
      <trkpt lat="50.07503" lon="5.09413">
        <ele>150</ele>
        <time>2015-03-15T12:13:24Z</time>
      </trkpt>
      <trkpt lat="50.07503" lon="5.09415">
        <ele>150</ele>
        <time>2015-03-15T12:13:29Z</time>
      </trkpt>
      <trkpt lat="50.07503" lon="5.09418">
        <ele>150</ele>
        <time>2015-03-15T12:13:35Z</time>
      </trkpt>
      <trkpt lat="50.07503" lon="5.09418">
        <ele>150</ele>
        <time>2015-03-15T12:13:41Z</time>
      </trkpt>
      <trkpt lat="50.07501" lon="5.0942">
        <ele>150</ele>
        <time>2015-03-15T12:13:46Z</time>
      </trkpt>
      <trkpt lat="50.07502" lon="5.09428">
        <ele>150</ele>
        <time>2015-03-15T12:13:52Z</time>
      </trkpt>
      <trkpt lat="50.07505" lon="5.09436">
        <ele>150</ele>
        <time>2015-03-15T12:13:57Z</time>
      </trkpt>
      <trkpt lat="50.07506" lon="5.09445">
        <ele>150</ele>
        <time>2015-03-15T12:14:02Z</time>
      </trkpt>
      <trkpt lat="50.07509" lon="5.09454">
        <ele>151</ele>
        <time>2015-03-15T12:14:08Z</time>
      </trkpt>
      <trkpt lat="50.07512" lon="5.09464">
        <ele>150</ele>
        <time>2015-03-15T12:14:14Z</time>
      </trkpt>
      <trkpt lat="50.07513" lon="5.09473">
        <ele>150</ele>
        <time>2015-03-15T12:14:19Z</time>
      </trkpt>
      <trkpt lat="50.07515" lon="5.09482">
        <ele>150</ele>
        <time>2015-03-15T12:14:24Z</time>
      </trkpt>
      <trkpt lat="50.07517" lon="5.09494">
        <ele>150</ele>
        <time>2015-03-15T12:14:30Z</time>
      </trkpt>
      <trkpt lat="50.07519" lon="5.09503">
        <ele>150</ele>
        <time>2015-03-15T12:14:35Z</time>
      </trkpt>
      <trkpt lat="50.07521" lon="5.09518">
        <ele>150</ele>
        <time>2015-03-15T12:14:41Z</time>
      </trkpt>
      <trkpt lat="50.07524" lon="5.09532">
        <ele>151</ele>
        <time>2015-03-15T12:14:47Z</time>
      </trkpt>
      <trkpt lat="50.07528" lon="5.09543">
        <ele>150</ele>
        <time>2015-03-15T12:14:53Z</time>
      </trkpt>
      <trkpt lat="50.07531" lon="5.09552">
        <ele>151</ele>
        <time>2015-03-15T12:14:59Z</time>
      </trkpt>
      <trkpt lat="50.07533" lon="5.09555">
        <ele>151</ele>
        <time>2015-03-15T12:15:04Z</time>
      </trkpt>
      <trkpt lat="50.07535" lon="5.09558">
        <ele>151</ele>
        <time>2015-03-15T12:15:10Z</time>
      </trkpt>
      <trkpt lat="50.07538" lon="5.0956">
        <ele>151</ele>
        <time>2015-03-15T12:15:15Z</time>
      </trkpt>
      <trkpt lat="50.07538" lon="5.09562">
        <ele>151</ele>
        <time>2015-03-15T12:15:20Z</time>
      </trkpt>
      <trkpt lat="50.07541" lon="5.09566">
        <ele>151</ele>
        <time>2015-03-15T12:15:25Z</time>
      </trkpt>
      <trkpt lat="50.07546" lon="5.09573">
        <ele>152</ele>
        <time>2015-03-15T12:15:31Z</time>
      </trkpt>
      <trkpt lat="50.07549" lon="5.09577">
        <ele>152</ele>
        <time>2015-03-15T12:15:36Z</time>
      </trkpt>
      <trkpt lat="50.07551" lon="5.09581">
        <ele>153</ele>
        <time>2015-03-15T12:15:42Z</time>
      </trkpt>
      <trkpt lat="50.07555" lon="5.09588">
        <ele>153</ele>
        <time>2015-03-15T12:15:48Z</time>
      </trkpt>
      <trkpt lat="50.07561" lon="5.09594">
        <ele>153</ele>
        <time>2015-03-15T12:15:53Z</time>
      </trkpt>
      <trkpt lat="50.07565" lon="5.09601">
        <ele>154</ele>
        <time>2015-03-15T12:15:59Z</time>
      </trkpt>
      <trkpt lat="50.07569" lon="5.09606">
        <ele>154</ele>
        <time>2015-03-15T12:16:04Z</time>
      </trkpt>
      <trkpt lat="50.07574" lon="5.0961">
        <ele>155</ele>
        <time>2015-03-15T12:16:09Z</time>
      </trkpt>
      <trkpt lat="50.07579" lon="5.09615">
        <ele>156</ele>
        <time>2015-03-15T12:16:14Z</time>
      </trkpt>
      <trkpt lat="50.07585" lon="5.0962">
        <ele>156</ele>
        <time>2015-03-15T12:16:20Z</time>
      </trkpt>
      <trkpt lat="50.07589" lon="5.09624">
        <ele>156</ele>
        <time>2015-03-15T12:16:25Z</time>
      </trkpt>
      <trkpt lat="50.07593" lon="5.09628">
        <ele>156</ele>
        <time>2015-03-15T12:16:30Z</time>
      </trkpt>
      <trkpt lat="50.07598" lon="5.09633">
        <ele>156</ele>
        <time>2015-03-15T12:16:36Z</time>
      </trkpt>
      <trkpt lat="50.07604" lon="5.09639">
        <ele>157</ele>
        <time>2015-03-15T12:16:42Z</time>
      </trkpt>
      <trkpt lat="50.07609" lon="5.09644">
        <ele>157</ele>
        <time>2015-03-15T12:16:48Z</time>
      </trkpt>
      <trkpt lat="50.07614" lon="5.09648">
        <ele>157</ele>
        <time>2015-03-15T12:16:53Z</time>
      </trkpt>
      <trkpt lat="50.07618" lon="5.09652">
        <ele>156</ele>
        <time>2015-03-15T12:16:58Z</time>
      </trkpt>
      <trkpt lat="50.07622" lon="5.09658">
        <ele>156</ele>
        <time>2015-03-15T12:17:04Z</time>
      </trkpt>
      <trkpt lat="50.07629" lon="5.09662">
        <ele>156</ele>
        <time>2015-03-15T12:17:10Z</time>
      </trkpt>
      <trkpt lat="50.07634" lon="5.09664">
        <ele>156</ele>
        <time>2015-03-15T12:17:15Z</time>
      </trkpt>
      <trkpt lat="50.07639" lon="5.09668">
        <ele>156</ele>
        <time>2015-03-15T12:17:21Z</time>
      </trkpt>
      <trkpt lat="50.07644" lon="5.09673">
        <ele>156</ele>
        <time>2015-03-15T12:17:27Z</time>
      </trkpt>
      <trkpt lat="50.07647" lon="5.09676">
        <ele>156</ele>
        <time>2015-03-15T12:17:33Z</time>
      </trkpt>
      <trkpt lat="50.0765" lon="5.09676">
        <ele>157</ele>
        <time>2015-03-15T12:17:39Z</time>
      </trkpt>
      <trkpt lat="50.07654" lon="5.09677">
        <ele>156</ele>
        <time>2015-03-15T12:17:44Z</time>
      </trkpt>
      <trkpt lat="50.07659" lon="5.09681">
        <ele>156</ele>
        <time>2015-03-15T12:17:50Z</time>
      </trkpt>
      <trkpt lat="50.07663" lon="5.09686">
        <ele>156</ele>
        <time>2015-03-15T12:17:56Z</time>
      </trkpt>
      <trkpt lat="50.07667" lon="5.09691">
        <ele>155</ele>
        <time>2015-03-15T12:18:02Z</time>
      </trkpt>
      <trkpt lat="50.07671" lon="5.09696">
        <ele>154</ele>
        <time>2015-03-15T12:18:07Z</time>
      </trkpt>
      <trkpt lat="50.07675" lon="5.09703">
        <ele>154</ele>
        <time>2015-03-15T12:18:13Z</time>
      </trkpt>
      <trkpt lat="50.07681" lon="5.09708">
        <ele>153</ele>
        <time>2015-03-15T12:18:19Z</time>
      </trkpt>
      <trkpt lat="50.07686" lon="5.09715">
        <ele>153</ele>
        <time>2015-03-15T12:18:25Z</time>
      </trkpt>
      <trkpt lat="50.0769" lon="5.09719">
        <ele>153</ele>
        <time>2015-03-15T12:18:30Z</time>
      </trkpt>
      <trkpt lat="50.07695" lon="5.09724">
        <ele>152</ele>
        <time>2015-03-15T12:18:35Z</time>
      </trkpt>
      <trkpt lat="50.077" lon="5.09731">
        <ele>152</ele>
        <time>2015-03-15T12:18:41Z</time>
      </trkpt>
      <trkpt lat="50.07704" lon="5.0974">
        <ele>151</ele>
        <time>2015-03-15T12:18:47Z</time>
      </trkpt>
      <trkpt lat="50.07709" lon="5.09747">
        <ele>151</ele>
        <time>2015-03-15T12:18:52Z</time>
      </trkpt>
      <trkpt lat="50.07715" lon="5.09754">
        <ele>152</ele>
        <time>2015-03-15T12:18:58Z</time>
      </trkpt>
      <trkpt lat="50.0772" lon="5.09761">
        <ele>151</ele>
        <time>2015-03-15T12:19:03Z</time>
      </trkpt>
      <trkpt lat="50.07726" lon="5.0977">
        <ele>151</ele>
        <time>2015-03-15T12:19:09Z</time>
      </trkpt>
      <trkpt lat="50.07732" lon="5.0978">
        <ele>151</ele>
        <time>2015-03-15T12:19:15Z</time>
      </trkpt>
      <trkpt lat="50.07736" lon="5.09788">
        <ele>151</ele>
        <time>2015-03-15T12:19:20Z</time>
      </trkpt>
      <trkpt lat="50.0774" lon="5.09799">
        <ele>151</ele>
        <time>2015-03-15T12:19:26Z</time>
      </trkpt>
      <trkpt lat="50.07743" lon="5.09808">
        <ele>150</ele>
        <time>2015-03-15T12:19:31Z</time>
      </trkpt>
      <trkpt lat="50.07748" lon="5.09816">
        <ele>150</ele>
        <time>2015-03-15T12:19:37Z</time>
      </trkpt>
      <trkpt lat="50.07752" lon="5.09823">
        <ele>149</ele>
        <time>2015-03-15T12:19:42Z</time>
      </trkpt>
      <trkpt lat="50.07756" lon="5.0983">
        <ele>149</ele>
        <time>2015-03-15T12:19:47Z</time>
      </trkpt>
      <trkpt lat="50.07761" lon="5.09835">
        <ele>149</ele>
        <time>2015-03-15T12:19:53Z</time>
      </trkpt>
      <trkpt lat="50.07764" lon="5.09838">
        <ele>148</ele>
        <time>2015-03-15T12:19:58Z</time>
      </trkpt>
      <trkpt lat="50.07769" lon="5.09839">
        <ele>147</ele>
        <time>2015-03-15T12:20:04Z</time>
      </trkpt>
      <trkpt lat="50.07774" lon="5.0984">
        <ele>147</ele>
        <time>2015-03-15T12:20:09Z</time>
      </trkpt>
      <trkpt lat="50.07779" lon="5.09841">
        <ele>147</ele>
        <time>2015-03-15T12:20:15Z</time>
      </trkpt>
      <trkpt lat="50.07786" lon="5.0984">
        <ele>147</ele>
        <time>2015-03-15T12:20:21Z</time>
      </trkpt>
      <trkpt lat="50.07792" lon="5.09838">
        <ele>147</ele>
        <time>2015-03-15T12:20:26Z</time>
      </trkpt>
      <trkpt lat="50.07795" lon="5.09839">
        <ele>147</ele>
        <time>2015-03-15T12:20:31Z</time>
      </trkpt>
      <trkpt lat="50.07802" lon="5.09838">
        <ele>146</ele>
        <time>2015-03-15T12:20:37Z</time>
      </trkpt>
      <trkpt lat="50.07807" lon="5.09836">
        <ele>146</ele>
        <time>2015-03-15T12:20:43Z</time>
      </trkpt>
      <trkpt lat="50.07811" lon="5.09834">
        <ele>145</ele>
        <time>2015-03-15T12:20:48Z</time>
      </trkpt>
      <trkpt lat="50.07816" lon="5.09832">
        <ele>144</ele>
        <time>2015-03-15T12:20:54Z</time>
      </trkpt>
      <trkpt lat="50.07821" lon="5.09831">
        <ele>143</ele>
        <time>2015-03-15T12:20:59Z</time>
      </trkpt>
      <trkpt lat="50.07824" lon="5.09835">
        <ele>143</ele>
        <time>2015-03-15T12:21:04Z</time>
      </trkpt>
      <trkpt lat="50.07828" lon="5.09843">
        <ele>143</ele>
        <time>2015-03-15T12:21:10Z</time>
      </trkpt>
      <trkpt lat="50.07832" lon="5.0985">
        <ele>143</ele>
        <time>2015-03-15T12:21:15Z</time>
      </trkpt>
      <trkpt lat="50.07836" lon="5.09861">
        <ele>142</ele>
        <time>2015-03-15T12:21:21Z</time>
      </trkpt>
      <trkpt lat="50.0784" lon="5.09871">
        <ele>143</ele>
        <time>2015-03-15T12:21:27Z</time>
      </trkpt>
      <trkpt lat="50.07845" lon="5.09881">
        <ele>143</ele>
        <time>2015-03-15T12:21:33Z</time>
      </trkpt>
      <trkpt lat="50.07848" lon="5.09892">
        <ele>143</ele>
        <time>2015-03-15T12:21:39Z</time>
      </trkpt>
      <trkpt lat="50.07851" lon="5.09903">
        <ele>143</ele>
        <time>2015-03-15T12:21:44Z</time>
      </trkpt>
      <trkpt lat="50.07854" lon="5.09913">
        <ele>143</ele>
        <time>2015-03-15T12:21:50Z</time>
      </trkpt>
      <trkpt lat="50.07858" lon="5.09922">
        <ele>144</ele>
        <time>2015-03-15T12:21:55Z</time>
      </trkpt>
      <trkpt lat="50.07861" lon="5.09932">
        <ele>144</ele>
        <time>2015-03-15T12:22:00Z</time>
      </trkpt>
      <trkpt lat="50.07864" lon="5.09943">
        <ele>144</ele>
        <time>2015-03-15T12:22:06Z</time>
      </trkpt>
      <trkpt lat="50.07865" lon="5.09952">
        <ele>144</ele>
        <time>2015-03-15T12:22:11Z</time>
      </trkpt>
      <trkpt lat="50.07867" lon="5.09963">
        <ele>144</ele>
        <time>2015-03-15T12:22:17Z</time>
      </trkpt>
      <trkpt lat="50.07869" lon="5.09972">
        <ele>145</ele>
        <time>2015-03-15T12:22:23Z</time>
      </trkpt>
      <trkpt lat="50.07871" lon="5.09982">
        <ele>144</ele>
        <time>2015-03-15T12:22:28Z</time>
      </trkpt>
      <trkpt lat="50.07872" lon="5.09997">
        <ele>145</ele>
        <time>2015-03-15T12:22:34Z</time>
      </trkpt>
      <trkpt lat="50.07874" lon="5.10011">
        <ele>145</ele>
        <time>2015-03-15T12:22:40Z</time>
      </trkpt>
      <trkpt lat="50.07875" lon="5.10022">
        <ele>146</ele>
        <time>2015-03-15T12:22:45Z</time>
      </trkpt>
      <trkpt lat="50.07877" lon="5.10035">
        <ele>146</ele>
        <time>2015-03-15T12:22:51Z</time>
      </trkpt>
      <trkpt lat="50.07877" lon="5.10045">
        <ele>146</ele>
        <time>2015-03-15T12:22:56Z</time>
      </trkpt>
      <trkpt lat="50.07879" lon="5.10058">
        <ele>146</ele>
        <time>2015-03-15T12:23:02Z</time>
      </trkpt>
      <trkpt lat="50.07881" lon="5.10068">
        <ele>146</ele>
        <time>2015-03-15T12:23:07Z</time>
      </trkpt>
      <trkpt lat="50.07883" lon="5.10081">
        <ele>146</ele>
        <time>2015-03-15T12:23:13Z</time>
      </trkpt>
      <trkpt lat="50.07885" lon="5.10091">
        <ele>146</ele>
        <time>2015-03-15T12:23:18Z</time>
      </trkpt>
      <trkpt lat="50.07887" lon="5.10103">
        <ele>146</ele>
        <time>2015-03-15T12:23:23Z</time>
      </trkpt>
      <trkpt lat="50.0789" lon="5.10114">
        <ele>146</ele>
        <time>2015-03-15T12:23:29Z</time>
      </trkpt>
      <trkpt lat="50.07892" lon="5.10124">
        <ele>146</ele>
        <time>2015-03-15T12:23:35Z</time>
      </trkpt>
      <trkpt lat="50.07896" lon="5.10135">
        <ele>146</ele>
        <time>2015-03-15T12:23:41Z</time>
      </trkpt>
      <trkpt lat="50.07899" lon="5.10143">
        <ele>146</ele>
        <time>2015-03-15T12:23:46Z</time>
      </trkpt>
      <trkpt lat="50.07903" lon="5.10153">
        <ele>146</ele>
        <time>2015-03-15T12:23:52Z</time>
      </trkpt>
      <trkpt lat="50.07906" lon="5.10163">
        <ele>146</ele>
        <time>2015-03-15T12:23:57Z</time>
      </trkpt>
      <trkpt lat="50.07909" lon="5.10174">
        <ele>146</ele>
        <time>2015-03-15T12:24:03Z</time>
      </trkpt>
      <trkpt lat="50.07912" lon="5.10185">
        <ele>146</ele>
        <time>2015-03-15T12:24:08Z</time>
      </trkpt>
      <trkpt lat="50.07914" lon="5.10196">
        <ele>146</ele>
        <time>2015-03-15T12:24:13Z</time>
      </trkpt>
      <trkpt lat="50.07916" lon="5.10206">
        <ele>145</ele>
        <time>2015-03-15T12:24:18Z</time>
      </trkpt>
      <trkpt lat="50.07919" lon="5.10217">
        <ele>145</ele>
        <time>2015-03-15T12:24:24Z</time>
      </trkpt>
      <trkpt lat="50.07922" lon="5.10228">
        <ele>146</ele>
        <time>2015-03-15T12:24:30Z</time>
      </trkpt>
      <trkpt lat="50.07925" lon="5.10238">
        <ele>145</ele>
        <time>2015-03-15T12:24:35Z</time>
      </trkpt>
      <trkpt lat="50.07929" lon="5.10248">
        <ele>146</ele>
        <time>2015-03-15T12:24:41Z</time>
      </trkpt>
      <trkpt lat="50.07933" lon="5.10258">
        <ele>146</ele>
        <time>2015-03-15T12:24:47Z</time>
      </trkpt>
      <trkpt lat="50.07936" lon="5.10266">
        <ele>145</ele>
        <time>2015-03-15T12:24:52Z</time>
      </trkpt>
      <trkpt lat="50.0794" lon="5.10274">
        <ele>145</ele>
        <time>2015-03-15T12:24:58Z</time>
      </trkpt>
      <trkpt lat="50.07943" lon="5.10281">
        <ele>144</ele>
        <time>2015-03-15T12:25:03Z</time>
      </trkpt>
      <trkpt lat="50.07946" lon="5.10291">
        <ele>145</ele>
        <time>2015-03-15T12:25:09Z</time>
      </trkpt>
      <trkpt lat="50.07951" lon="5.103">
        <ele>144</ele>
        <time>2015-03-15T12:25:15Z</time>
      </trkpt>
      <trkpt lat="50.07954" lon="5.10308">
        <ele>144</ele>
        <time>2015-03-15T12:25:20Z</time>
      </trkpt>
      <trkpt lat="50.07958" lon="5.10318">
        <ele>144</ele>
        <time>2015-03-15T12:25:26Z</time>
      </trkpt>
      <trkpt lat="50.07961" lon="5.10327">
        <ele>144</ele>
        <time>2015-03-15T12:25:31Z</time>
      </trkpt>
      <trkpt lat="50.07964" lon="5.10336">
        <ele>144</ele>
        <time>2015-03-15T12:25:36Z</time>
      </trkpt>
      <trkpt lat="50.07969" lon="5.10348">
        <ele>144</ele>
        <time>2015-03-15T12:25:42Z</time>
      </trkpt>
      <trkpt lat="50.07973" lon="5.10359">
        <ele>143</ele>
        <time>2015-03-15T12:25:48Z</time>
      </trkpt>
      <trkpt lat="50.07976" lon="5.10368">
        <ele>144</ele>
        <time>2015-03-15T12:25:53Z</time>
      </trkpt>
      <trkpt lat="50.0798" lon="5.10378">
        <ele>144</ele>
        <time>2015-03-15T12:25:59Z</time>
      </trkpt>
      <trkpt lat="50.07982" lon="5.10381">
        <ele>144</ele>
        <time>2015-03-15T12:26:04Z</time>
      </trkpt>
      <trkpt lat="50.07985" lon="5.10386">
        <ele>144</ele>
        <time>2015-03-15T12:26:10Z</time>
      </trkpt>
      <trkpt lat="50.07986" lon="5.1039">
        <ele>144</ele>
        <time>2015-03-15T12:26:16Z</time>
      </trkpt>
      <trkpt lat="50.07987" lon="5.10389">
        <ele>144</ele>
        <time>2015-03-15T12:26:22Z</time>
      </trkpt>
      <trkpt lat="50.07991" lon="5.10398">
        <ele>143</ele>
        <time>2015-03-15T12:26:28Z</time>
      </trkpt>
      <trkpt lat="50.07995" lon="5.10408">
        <ele>143</ele>
        <time>2015-03-15T12:26:34Z</time>
      </trkpt>
      <trkpt lat="50.07997" lon="5.10416">
        <ele>143</ele>
        <time>2015-03-15T12:26:39Z</time>
      </trkpt>
      <trkpt lat="50.08" lon="5.10427">
        <ele>144</ele>
        <time>2015-03-15T12:26:45Z</time>
      </trkpt>
      <trkpt lat="50.07999" lon="5.10429">
        <ele>144</ele>
        <time>2015-03-15T12:26:50Z</time>
      </trkpt>
      <trkpt lat="50.07999" lon="5.1043">
        <ele>144</ele>
        <time>2015-03-15T12:26:57Z</time>
      </trkpt>
      <trkpt lat="50.08001" lon="5.10432">
        <ele>144</ele>
        <time>2015-03-15T12:27:02Z</time>
      </trkpt>
      <trkpt lat="50.08003" lon="5.1044">
        <ele>143</ele>
        <time>2015-03-15T12:27:07Z</time>
      </trkpt>
      <trkpt lat="50.08007" lon="5.1045">
        <ele>143</ele>
        <time>2015-03-15T12:27:13Z</time>
      </trkpt>
      <trkpt lat="50.0801" lon="5.10461">
        <ele>144</ele>
        <time>2015-03-15T12:27:19Z</time>
      </trkpt>
      <trkpt lat="50.08013" lon="5.1047">
        <ele>144</ele>
        <time>2015-03-15T12:27:24Z</time>
      </trkpt>
      <trkpt lat="50.08015" lon="5.10479">
        <ele>143</ele>
        <time>2015-03-15T12:27:29Z</time>
      </trkpt>
      <trkpt lat="50.08018" lon="5.1049">
        <ele>144</ele>
        <time>2015-03-15T12:27:35Z</time>
      </trkpt>
      <trkpt lat="50.08021" lon="5.10502">
        <ele>144</ele>
        <time>2015-03-15T12:27:41Z</time>
      </trkpt>
      <trkpt lat="50.08023" lon="5.10513">
        <ele>144</ele>
        <time>2015-03-15T12:27:46Z</time>
      </trkpt>
      <trkpt lat="50.08026" lon="5.10526">
        <ele>143</ele>
        <time>2015-03-15T12:27:52Z</time>
      </trkpt>
      <trkpt lat="50.08029" lon="5.10538">
        <ele>143</ele>
        <time>2015-03-15T12:27:58Z</time>
      </trkpt>
      <trkpt lat="50.08031" lon="5.10551">
        <ele>144</ele>
        <time>2015-03-15T12:28:04Z</time>
      </trkpt>
      <trkpt lat="50.08034" lon="5.1056">
        <ele>144</ele>
        <time>2015-03-15T12:28:09Z</time>
      </trkpt>
      <trkpt lat="50.08036" lon="5.10572">
        <ele>144</ele>
        <time>2015-03-15T12:28:15Z</time>
      </trkpt>
      <trkpt lat="50.08039" lon="5.10582">
        <ele>143</ele>
        <time>2015-03-15T12:28:20Z</time>
      </trkpt>
      <trkpt lat="50.08042" lon="5.10594">
        <ele>144</ele>
        <time>2015-03-15T12:28:26Z</time>
      </trkpt>
      <trkpt lat="50.08045" lon="5.10604">
        <ele>144</ele>
        <time>2015-03-15T12:28:31Z</time>
      </trkpt>
      <trkpt lat="50.08047" lon="5.10613">
        <ele>144</ele>
        <time>2015-03-15T12:28:36Z</time>
      </trkpt>
      <trkpt lat="50.08049" lon="5.10626">
        <ele>144</ele>
        <time>2015-03-15T12:28:42Z</time>
      </trkpt>
      <trkpt lat="50.08051" lon="5.10635">
        <ele>144</ele>
        <time>2015-03-15T12:28:47Z</time>
      </trkpt>
      <trkpt lat="50.08054" lon="5.10645">
        <ele>145</ele>
        <time>2015-03-15T12:28:53Z</time>
      </trkpt>
      <trkpt lat="50.08056" lon="5.10656">
        <ele>144</ele>
        <time>2015-03-15T12:28:59Z</time>
      </trkpt>
      <trkpt lat="50.08059" lon="5.10666">
        <ele>144</ele>
        <time>2015-03-15T12:29:05Z</time>
      </trkpt>
      <trkpt lat="50.08062" lon="5.10675">
        <ele>144</ele>
        <time>2015-03-15T12:29:10Z</time>
      </trkpt>
      <trkpt lat="50.08063" lon="5.10683">
        <ele>145</ele>
        <time>2015-03-15T12:29:16Z</time>
      </trkpt>
      <trkpt lat="50.08067" lon="5.1069">
        <ele>144</ele>
        <time>2015-03-15T12:29:21Z</time>
      </trkpt>
      <trkpt lat="50.08071" lon="5.10697">
        <ele>144</ele>
        <time>2015-03-15T12:29:27Z</time>
      </trkpt>
      <trkpt lat="50.08074" lon="5.10705">
        <ele>144</ele>
        <time>2015-03-15T12:29:32Z</time>
      </trkpt>
      <trkpt lat="50.08076" lon="5.10715">
        <ele>144</ele>
        <time>2015-03-15T12:29:37Z</time>
      </trkpt>
      <trkpt lat="50.08081" lon="5.10726">
        <ele>144</ele>
        <time>2015-03-15T12:29:43Z</time>
      </trkpt>
      <trkpt lat="50.08083" lon="5.10737">
        <ele>144</ele>
        <time>2015-03-15T12:29:49Z</time>
      </trkpt>
      <trkpt lat="50.08087" lon="5.10747">
        <ele>145</ele>
        <time>2015-03-15T12:29:55Z</time>
      </trkpt>
      <trkpt lat="50.08091" lon="5.10758">
        <ele>145</ele>
        <time>2015-03-15T12:30:01Z</time>
      </trkpt>
      <trkpt lat="50.08092" lon="5.10766">
        <ele>145</ele>
        <time>2015-03-15T12:30:06Z</time>
      </trkpt>
      <trkpt lat="50.08094" lon="5.10774">
        <ele>145</ele>
        <time>2015-03-15T12:30:11Z</time>
      </trkpt>
      <trkpt lat="50.08096" lon="5.10783">
        <ele>145</ele>
        <time>2015-03-15T12:30:17Z</time>
      </trkpt>
      <trkpt lat="50.08099" lon="5.1079">
        <ele>145</ele>
        <time>2015-03-15T12:30:23Z</time>
      </trkpt>
      <trkpt lat="50.08102" lon="5.10799">
        <ele>145</ele>
        <time>2015-03-15T12:30:29Z</time>
      </trkpt>
      <trkpt lat="50.08104" lon="5.10813">
        <ele>146</ele>
        <time>2015-03-15T12:30:35Z</time>
      </trkpt>
      <trkpt lat="50.08106" lon="5.1082">
        <ele>146</ele>
        <time>2015-03-15T12:30:40Z</time>
      </trkpt>
      <trkpt lat="50.08107" lon="5.10827">
        <ele>146</ele>
        <time>2015-03-15T12:30:45Z</time>
      </trkpt>
      <trkpt lat="50.08109" lon="5.10838">
        <ele>147</ele>
        <time>2015-03-15T12:30:51Z</time>
      </trkpt>
      <trkpt lat="50.0811" lon="5.10848">
        <ele>147</ele>
        <time>2015-03-15T12:30:56Z</time>
      </trkpt>
      <trkpt lat="50.08111" lon="5.10855">
        <ele>147</ele>
        <time>2015-03-15T12:31:01Z</time>
      </trkpt>
      <trkpt lat="50.08113" lon="5.10863">
        <ele>147</ele>
        <time>2015-03-15T12:31:07Z</time>
      </trkpt>
      <trkpt lat="50.08112" lon="5.1087">
        <ele>147</ele>
        <time>2015-03-15T12:31:12Z</time>
      </trkpt>
      <trkpt lat="50.08109" lon="5.1088">
        <ele>147</ele>
        <time>2015-03-15T12:31:18Z</time>
      </trkpt>
      <trkpt lat="50.08105" lon="5.10886">
        <ele>147</ele>
        <time>2015-03-15T12:31:23Z</time>
      </trkpt>
      <trkpt lat="50.081" lon="5.1089">
        <ele>149</ele>
        <time>2015-03-15T12:31:29Z</time>
      </trkpt>
      <trkpt lat="50.08094" lon="5.10893">
        <ele>149</ele>
        <time>2015-03-15T12:31:35Z</time>
      </trkpt>
      <trkpt lat="50.08087" lon="5.10897">
        <ele>150</ele>
        <time>2015-03-15T12:31:41Z</time>
      </trkpt>
      <trkpt lat="50.0808" lon="5.109">
        <ele>150</ele>
        <time>2015-03-15T12:31:47Z</time>
      </trkpt>
      <trkpt lat="50.08075" lon="5.10902">
        <ele>151</ele>
        <time>2015-03-15T12:31:52Z</time>
      </trkpt>
      <trkpt lat="50.0807" lon="5.10907">
        <ele>151</ele>
        <time>2015-03-15T12:31:57Z</time>
      </trkpt>
      <trkpt lat="50.08069" lon="5.10916">
        <ele>152</ele>
        <time>2015-03-15T12:32:02Z</time>
      </trkpt>
      <trkpt lat="50.08068" lon="5.10925">
        <ele>152</ele>
        <time>2015-03-15T12:32:07Z</time>
      </trkpt>
      <trkpt lat="50.08067" lon="5.10938">
        <ele>152</ele>
        <time>2015-03-15T12:32:13Z</time>
      </trkpt>
      <trkpt lat="50.08067" lon="5.10948">
        <ele>153</ele>
        <time>2015-03-15T12:32:18Z</time>
      </trkpt>
      <trkpt lat="50.08067" lon="5.10959">
        <ele>153</ele>
        <time>2015-03-15T12:32:24Z</time>
      </trkpt>
      <trkpt lat="50.08065" lon="5.10969">
        <ele>153</ele>
        <time>2015-03-15T12:32:30Z</time>
      </trkpt>
      <trkpt lat="50.08063" lon="5.10976">
        <ele>153</ele>
        <time>2015-03-15T12:32:35Z</time>
      </trkpt>
      <trkpt lat="50.0806" lon="5.10979">
        <ele>154</ele>
        <time>2015-03-15T12:32:41Z</time>
      </trkpt>
      <trkpt lat="50.08056" lon="5.10985">
        <ele>155</ele>
        <time>2015-03-15T12:32:46Z</time>
      </trkpt>
      <trkpt lat="50.08053" lon="5.10987">
        <ele>155</ele>
        <time>2015-03-15T12:32:52Z</time>
      </trkpt>
      <trkpt lat="50.08049" lon="5.10985">
        <ele>155</ele>
        <time>2015-03-15T12:32:57Z</time>
      </trkpt>
      <trkpt lat="50.08046" lon="5.10979">
        <ele>155</ele>
        <time>2015-03-15T12:33:03Z</time>
      </trkpt>
      <trkpt lat="50.08043" lon="5.10973">
        <ele>155</ele>
        <time>2015-03-15T12:33:08Z</time>
      </trkpt>
      <trkpt lat="50.0804" lon="5.10964">
        <ele>155</ele>
        <time>2015-03-15T12:33:14Z</time>
      </trkpt>
      <trkpt lat="50.08036" lon="5.10955">
        <ele>155</ele>
        <time>2015-03-15T12:33:19Z</time>
      </trkpt>
      <trkpt lat="50.08033" lon="5.10946">
        <ele>154</ele>
        <time>2015-03-15T12:33:25Z</time>
      </trkpt>
      <trkpt lat="50.08031" lon="5.10946">
        <ele>155</ele>
        <time>2015-03-15T12:33:30Z</time>
      </trkpt>
      <trkpt lat="50.08028" lon="5.10944">
        <ele>155</ele>
        <time>2015-03-15T12:33:36Z</time>
      </trkpt>
      <trkpt lat="50.08027" lon="5.10944">
        <ele>155</ele>
        <time>2015-03-15T12:33:41Z</time>
      </trkpt>
      <trkpt lat="50.08022" lon="5.10944">
        <ele>156</ele>
        <time>2015-03-15T12:33:47Z</time>
      </trkpt>
      <trkpt lat="50.0802" lon="5.10943">
        <ele>155</ele>
        <time>2015-03-15T12:33:52Z</time>
      </trkpt>
      <trkpt lat="50.08018" lon="5.10943">
        <ele>155</ele>
        <time>2015-03-15T12:33:58Z</time>
      </trkpt>
      <trkpt lat="50.08019" lon="5.10945">
        <ele>155</ele>
        <time>2015-03-15T12:34:04Z</time>
      </trkpt>
      <trkpt lat="50.08019" lon="5.10947">
        <ele>155</ele>
        <time>2015-03-15T12:34:10Z</time>
      </trkpt>
      <trkpt lat="50.0802" lon="5.10947">
        <ele>155</ele>
        <time>2015-03-15T12:34:11Z</time>
      </trkpt>
    </trkseg>
  </trk>
</gpx>